[[{"header":{"parameterUnit":"m.s-1","parameterCategory":1,"la1":30.6,"la2":29.2853,"lo1":-89.7004,"lo2":-87.6739,"dy":0.0162,"dx":0.0183,"nx":112,"ny":82,"refTime":"2023-04-20T12:00:00:Z","depth":0,"parameterNumber":2,"parameterNumberName":"U-component_of_WINDS"},"data":[0.0,0.0,0.0,0.0,0.0,0.0,0.0,0.0,0.0,0.0,0.0,0.0,0.0,0.0,0.0,0.0,0.0,0.0,0.0,0.0,0.0,0.0,0.0,0.0,0.0,0.0,0.0,0.0,0.0,0.0,0.0,0.0,0.0,0.0,0.0,0.0,0.0,0.0,0.0,0.0,0.0,0.0,0.0,0.0,0.0,0.0,0.0,0.0,0.0,0.0,0.0,0.0,0.0,0.0,0.0,0.0,0.0,0.0,0.0,0.0,0.0,0.0,0.0,0.0,0.0,0.0,0.0,0.0,0.0,0.0,0.0,0.0,0.0,0.0,0.0,0.0,0.0,0.0,0.0,0.0,0.0,0.0,0.0,0.0,0.0,0.0,0.0,0.0,0.0,0.0,-2.2153,-2.2191,-2.2344,-2.244,-2.244,-2.244,-2.2344,-2.2153,0.0,0.0,0.0,0.0,0.0,0.0,0.0,0.0,0.0,0.0,0.0,0.0,0.0,0.0,0.0,0.0,0.0,0.0,0.0,0.0,0.0,0.0,0.0,0.0,0.0,0.0,0.0,0.0,0.0,0.0,0.0,0.0,0.0,0.0,0.0,0.0,0.0,0.0,0.0,0.0,0.0,0.0,0.0,0.0,0.0,0.0,0.0,0.0,0.0,0.0,0.0,0.0,0.0,0.0,0.0,0.0,0.0,0.0,0.0,0.0,0.0,0.0,0.0,0.0,0.0,0.0,0.0,0.0,0.0,0.0,0.0,0.0,0.0,0.0,0.0,0.0,0.0,0.0,0.0,0.0,0.0,0.0,0.0,0.0,0.0,0.0,0.0,0.0,0.0,0.0,0.0,0.0,0.0,0.0,0.0,0.0,0.0,0.0,0.0,0.0,0.0,0.0,0.0,0.0,-2.2421,-2.259,-2.2647,-2.2647,-2.2647,-2.2647,-2.2572,-2.2365,0.0,0.0,0.0,0.0,0.0,0.0,0.0,0.0,0.0,0.0,0.0,0.0,0.0,0.0,0.0,0.0,0.0,0.0,0.0,0.0,0.0,0.0,0.0,0.0,0.0,0.0,0.0,0.0,0.0,0.0,0.0,0.0,0.0,0.0,0.0,0.0,0.0,0.0,0.0,0.0,0.0,0.0,0.0,0.0,0.0,0.0,0.0,0.0,0.0,0.0,0.0,0.0,0.0,0.0,0.0,0.0,0.0,0.0,0.0,0.0,0.0,0.0,0.0,0.0,0.0,0.0,0.0,0.0,0.0,0.0,0.0,0.0,0.0,0.0,0.0,0.0,0.0,0.0,0.0,0.0,0.0,0.0,0.0,0.0,0.0,0.0,0.0,0.0,0.0,0.0,0.0,0.0,0.0,0.0,0.0,0.0,0.0,0.0,0.0,0.0,0.0,0.0,0.0,-2.1502,-2.1583,-2.157,-2.1548,-2.1548,-2.1548,-2.1548,-2.1492,-2.1281,-2.1165,0.0,0.0,0.0,0.0,0.0,0.0,0.0,0.0,0.0,0.0,0.0,0.0,0.0,0.0,0.0,0.0,0.0,0.0,0.0,0.0,0.0,0.0,0.0,0.0,0.0,0.0,0.0,0.0,0.0,0.0,0.0,0.0,0.0,0.0,0.0,0.0,0.0,0.0,0.0,0.0,0.0,0.0,0.0,0.0,0.0,0.0,0.0,0.0,0.0,0.0,0.0,0.0,0.0,0.0,0.0,0.0,0.0,0.0,0.0,0.0,0.0,0.0,0.0,0.0,0.0,0.0,0.0,0.0,0.0,0.0,0.0,0.0,0.0,0.0,0.0,0.0,0.0,0.0,0.0,0.0,0.0,0.0,0.0,0.0,0.0,0.0,0.0,0.0,0.0,0.0,0.0,0.0,0.0,0.0,0.0,0.0,0.0,0.0,0.0,0.0,0.0,0.0,-2.0891,-2.1009,-2.0918,-2.0918,-2.0918,-2.0918,-2.0801,-2.0683,-2.0507,-2.041,0.0,0.0,0.0,0.0,0.0,0.0,0.0,0.0,0.0,0.0,0.0,0.0,0.0,0.0,0.0,0.0,0.0,0.0,0.0,0.0,0.0,0.0,0.0,0.0,0.0,0.0,0.0,0.0,0.0,0.0,0.0,0.0,0.0,0.0,0.0,0.0,0.0,0.0,0.0,0.0,0.0,0.0,0.0,0.0,0.0,0.0,0.0,0.0,0.0,0.0,0.0,0.0,0.0,0.0,0.0,0.0,0.0,0.0,0.0,0.0,0.0,0.0,0.0,0.0,0.0,0.0,0.0,0.0,0.0,0.0,0.0,0.0,0.0,0.0,0.0,0.0,0.0,0.0,0.0,0.0,0.0,0.0,0.0,0.0,0.0,0.0,0.0,0.0,0.0,0.0,0.0,0.0,0.0,0.0,0.0,0.0,0.0,0.0,0.0,0.0,0.0,0.0,-2.1589,-2.1548,-2.1776,-2.1817,-2.1817,-2.1817,-2.1405,-2.1151,-2.1151,-2.0801,0.0,0.0,0.0,0.0,0.0,0.0,0.0,0.0,0.0,0.0,0.0,0.0,0.0,0.0,0.0,0.0,0.0,0.0,0.0,0.0,0.0,0.0,0.0,0.0,0.0,0.0,0.0,0.0,0.0,0.0,0.0,0.0,0.0,0.0,0.0,0.0,0.0,0.0,0.0,0.0,0.0,0.0,0.0,0.0,0.0,0.0,0.0,0.0,0.0,0.0,0.0,0.0,0.0,0.0,0.0,0.0,0.0,0.0,0.0,0.0,0.0,0.0,0.0,0.0,0.0,0.0,0.0,0.0,0.0,0.0,0.0,0.0,0.0,0.0,0.0,0.0,0.0,0.0,0.0,0.0,0.0,0.0,0.0,0.0,0.0,0.0,0.0,0.0,0.0,0.0,0.0,0.0,0.0,0.0,0.0,0.0,0.0,0.0,0.0,0.0,0.0,0.0,-2.1816,-2.1853,-2.1686,-2.1792,-2.1915,-2.1915,-2.1738,-2.1641,-2.1641,0.0,0.0,0.0,0.0,0.0,0.0,0.0,0.0,0.0,0.0,0.0,0.0,0.0,0.0,0.0,0.0,0.0,0.0,0.0,0.0,0.0,0.0,0.0,0.0,0.0,0.0,0.0,0.0,0.0,0.0,0.0,0.0,0.0,0.0,0.0,0.0,0.0,0.0,0.0,0.0,0.0,0.0,0.0,0.0,0.0,0.0,0.0,0.0,0.0,0.0,0.0,0.0,0.0,0.0,0.0,0.0,0.0,0.0,0.0,0.0,0.0,0.0,0.0,0.0,0.0,0.0,0.0,0.0,0.0,0.0,0.0,0.0,0.0,0.0,0.0,0.0,0.0,0.0,0.0,0.0,0.0,0.0,0.0,0.0,0.0,0.0,0.0,0.0,0.0,0.0,0.0,0.0,0.0,0.0,0.0,0.0,0.0,0.0,0.0,0.0,0.0,0.0,-2.1374,-2.1833,-2.1954,-2.1395,-2.1759,-2.2053,-2.2053,-2.1937,-2.1881,-2.1881,0.0,0.0,0.0,0.0,0.0,0.0,0.0,0.0,0.0,0.0,0.0,0.0,0.0,0.0,0.0,0.0,0.0,0.0,0.0,0.0,0.0,0.0,0.0,0.0,0.0,0.0,0.0,0.0,0.0,0.0,0.0,0.0,0.0,0.0,0.0,0.0,0.0,0.0,0.0,0.0,0.0,0.0,0.0,0.0,0.0,0.0,0.0,0.0,0.0,0.0,0.0,0.0,0.0,0.0,0.0,0.0,0.0,0.0,0.0,0.0,0.0,0.0,0.0,0.0,0.0,0.0,0.0,0.0,0.0,0.0,0.0,0.0,0.0,0.0,0.0,0.0,0.0,0.0,0.0,0.0,0.0,0.0,0.0,0.0,0.0,0.0,0.0,0.0,0.0,0.0,0.0,0.0,0.0,0.0,0.0,0.0,0.0,0.0,0.0,0.0,0.0,0.0,-2.1096,-2.1624,-2.1802,-2.1074,-2.1828,-2.2375,-2.2375,-2.1997,-2.1771,0.0,0.0,0.0,0.0,0.0,0.0,0.0,0.0,0.0,0.0,0.0,0.0,0.0,0.0,0.0,0.0,0.0,0.0,0.0,0.0,0.0,0.0,0.0,0.0,0.0,0.0,0.0,0.0,0.0,0.0,0.0,0.0,0.0,0.0,0.0,0.0,0.0,0.0,0.0,0.0,0.0,0.0,0.0,0.0,0.0,0.0,0.0,0.0,0.0,0.0,0.0,0.0,0.0,0.0,0.0,0.0,0.0,0.0,0.0,0.0,0.0,0.0,0.0,0.0,0.0,0.0,0.0,0.0,0.0,0.0,0.0,0.0,0.0,0.0,0.0,0.0,0.0,0.0,0.0,0.0,0.0,0.0,0.0,0.0,0.0,0.0,0.0,0.0,0.0,0.0,0.0,0.0,0.0,0.0,0.0,0.0,0.0,0.0,0.0,0.0,0.0,0.0,0.0,-2.0737,-2.0917,-2.0962,-2.0759,-2.1141,-2.1409,-2.1409,-2.0654,-2.0472,-2.1202,0.0,0.0,0.0,0.0,0.0,0.0,0.0,0.0,0.0,0.0,0.0,0.0,0.0,0.0,0.0,0.0,0.0,0.0,0.0,0.0,0.0,0.0,0.0,0.0,0.0,0.0,0.0,0.0,0.0,0.0,0.0,0.0,0.0,0.0,0.0,0.0,0.0,0.0,0.0,0.0,0.0,0.0,0.0,0.0,0.0,0.0,0.0,0.0,0.0,0.0,0.0,0.0,0.0,0.0,0.0,0.0,0.0,0.0,0.0,0.0,0.0,0.0,0.0,0.0,0.0,0.0,0.0,0.0,0.0,0.0,0.0,0.0,0.0,0.0,0.0,0.0,0.0,0.0,0.0,0.0,0.0,0.0,0.0,0.0,0.0,0.0,0.0,0.0,0.0,0.0,0.0,0.0,0.0,0.0,0.0,0.0,0.0,0.0,0.0,0.0,0.0,0.0,-1.933,-1.9627,-1.9741,-1.933,-1.9786,-2.0127,-2.0127,-1.9581,-1.949,-2.0082,0.0,0.0,0.0,0.0,0.0,0.0,0.0,0.0,0.0,0.0,0.0,0.0,0.0,0.0,0.0,0.0,0.0,0.0,0.0,0.0,0.0,0.0,0.0,0.0,0.0,0.0,0.0,0.0,0.0,0.0,0.0,0.0,0.0,0.0,0.0,0.0,0.0,0.0,0.0,0.0,0.0,0.0,0.0,0.0,0.0,0.0,0.0,0.0,0.0,0.0,0.0,0.0,0.0,0.0,0.0,0.0,0.0,0.0,0.0,0.0,0.0,0.0,0.0,0.0,0.0,0.0,0.0,0.0,0.0,0.0,0.0,0.0,0.0,0.0,0.0,0.0,0.0,0.0,0.0,0.0,0.0,0.0,0.0,0.0,0.0,0.0,0.0,0.0,0.0,0.0,0.0,0.0,0.0,0.0,0.0,0.0,0.0,0.0,0.0,0.0,0.0,0.0,-1.7419,-1.8102,-1.8311,-1.7396,-1.8126,-1.8657,-1.8657,-1.8588,-1.8565,-1.8657,0.0,0.0,0.0,0.0,0.0,0.0,0.0,0.0,0.0,0.0,0.0,0.0,0.0,0.0,0.0,0.0,0.0,0.0,0.0,0.0,0.0,0.0,0.0,0.0,0.0,0.0,0.0,0.0,0.0,0.0,0.0,0.0,0.0,0.0,0.0,0.0,0.0,0.0,0.0,0.0,0.0,0.0,0.0,0.0,0.0,0.0,0.0,0.0,0.0,0.0,0.0,0.0,0.0,0.0,0.0,0.0,0.0,0.0,0.0,0.0,-1.6463,-1.6431,0.0,0.0,0.0,0.0,0.0,0.0,0.0,0.0,0.0,0.0,0.0,0.0,0.0,0.0,0.0,0.0,0.0,0.0,0.0,0.0,0.0,0.0,0.0,0.0,0.0,0.0,0.0,0.0,0.0,0.0,0.0,0.0,0.0,0.0,0.0,0.0,0.0,0.0,0.0,0.0,-1.7326,-1.7489,-1.7536,-1.7326,-1.7489,-1.7629,-1.7629,-1.6904,-1.6786,-1.7582,-1.7661,0.0,0.0,0.0,0.0,0.0,0.0,0.0,0.0,0.0,0.0,0.0,0.0,0.0,0.0,0.0,0.0,0.0,0.0,0.0,0.0,0.0,0.0,0.0,0.0,0.0,0.0,0.0,0.0,0.0,0.0,0.0,0.0,0.0,0.0,0.0,0.0,0.0,0.0,0.0,0.0,0.0,0.0,0.0,0.0,0.0,0.0,0.0,0.0,0.0,0.0,0.0,0.0,0.0,0.0,0.0,0.0,0.0,0.0,0.0,-1.6176,-1.6075,0.0,0.0,0.0,0.0,0.0,0.0,0.0,0.0,0.0,0.0,0.0,0.0,0.0,0.0,0.0,0.0,0.0,0.0,0.0,0.0,0.0,0.0,0.0,0.0,0.0,0.0,0.0,0.0,0.0,0.0,0.0,0.0,0.0,0.0,0.0,0.0,0.0,0.0,0.0,0.0,-1.6574,-1.6574,-1.6574,-1.6574,-1.6574,-1.6574,-1.6574,-1.6116,-1.6021,-1.6551,-1.6574,0.0,0.0,0.0,0.0,0.0,0.0,0.0,0.0,0.0,0.0,0.0,0.0,0.0,0.0,0.0,0.0,0.0,0.0,0.0,0.0,0.0,0.0,0.0,0.0,0.0,0.0,0.0,0.0,0.0,0.0,0.0,0.0,0.0,0.0,0.0,0.0,0.0,0.0,0.0,0.0,0.0,0.0,0.0,0.0,0.0,0.0,0.0,0.0,0.0,0.0,0.0,0.0,0.0,-1.6627,-1.6626,-1.6626,-1.6676,-1.6542,-1.6293,-1.6308,-1.6019,-1.5604,-1.6049,0.0,0.0,0.0,0.0,0.0,0.0,0.0,0.0,0.0,0.0,0.0,0.0,0.0,0.0,0.0,0.0,0.0,0.0,0.0,0.0,0.0,0.0,0.0,0.0,-1.5102,-1.5175,-1.5427,0.0,0.0,0.0,0.0,0.0,0.0,0.0,0.0,0.0,0.0,0.0,-1.5955,-1.5955,-1.5955,-1.5955,-1.5955,-1.5955,-1.5955,-1.5955,-1.5955,-1.5955,-1.5915,-1.5875,0.0,0.0,0.0,0.0,0.0,0.0,0.0,0.0,0.0,0.0,0.0,0.0,0.0,0.0,0.0,0.0,0.0,0.0,0.0,0.0,0.0,0.0,0.0,0.0,0.0,0.0,0.0,0.0,0.0,0.0,0.0,0.0,-1.6763,-1.6763,0.0,0.0,0.0,0.0,0.0,0.0,0.0,0.0,0.0,0.0,0.0,0.0,0.0,-1.671,-1.671,-1.6483,-1.635,-1.635,-1.6355,-1.6357,-1.6372,-1.6587,-1.6548,-1.6305,-1.6296,0.0,-1.5842,-1.5921,0.0,0.0,0.0,0.0,0.0,0.0,0.0,0.0,0.0,0.0,0.0,0.0,0.0,0.0,0.0,0.0,0.0,0.0,0.0,0.0,0.0,0.0,-1.5105,-1.5105,-1.5105,-1.518,0.0,-1.5505,-1.5663,-1.6131,-1.6045,-1.602,0.0,0.0,0.0,0.0,0.0,0.0,-1.6593,-1.6593,-1.6593,-1.6593,-1.6593,-1.6593,-1.6593,-1.6593,-1.6593,-1.6593,-1.6353,-1.6133,-1.589,-1.5654,0.0,0.0,0.0,0.0,0.0,0.0,0.0,0.0,0.0,0.0,0.0,0.0,0.0,0.0,0.0,0.0,0.0,0.0,0.0,0.0,0.0,0.0,0.0,0.0,0.0,0.0,0.0,0.0,0.0,-1.6917,-1.687,-1.6736,-1.6692,-1.663,0.0,0.0,0.0,0.0,0.0,0.0,0.0,0.0,0.0,-1.6481,-1.6481,-1.6567,-1.67,-1.6591,-1.6179,-1.548,-1.6188,-1.6164,-1.5473,-1.6326,-1.6259,-1.5473,-1.5473,-1.5388,-1.5319,-1.5884,-1.6064,-1.5966,0.0,0.0,0.0,0.0,-1.5547,-1.5469,-1.4815,-1.5025,-1.5338,-1.4004,0.0,0.0,0.0,0.0,0.0,0.0,0.0,-1.5461,0.0,0.0,-1.5113,-1.5113,-1.5113,-1.5174,-1.5436,-1.5515,-1.5594,0.0,-1.5985,-1.601,-1.6413,-1.6237,0.0,0.0,0.0,-1.6538,-1.6675,-1.67,-1.67,-1.67,-1.67,-1.67,-1.67,-1.67,-1.67,-1.67,-1.6444,-1.6254,-1.613,-1.5876,-1.566,0.0,0.0,0.0,0.0,0.0,0.0,0.0,0.0,0.0,0.0,0.0,0.0,0.0,0.0,0.0,0.0,0.0,0.0,0.0,0.0,0.0,0.0,0.0,0.0,0.0,0.0,0.0,0.0,-1.6762,-1.6557,-1.6667,-1.6402,-1.6253,0.0,0.0,0.0,0.0,0.0,0.0,-1.5429,-1.5429,-1.5429,-1.542,-1.546,-1.5597,-1.579,-1.5801,-1.5338,-1.4421,-1.5462,-1.5437,-1.4562,-1.5579,-1.5459,-1.4479,-1.4479,-1.4406,-1.4385,-1.5413,-1.6021,-1.6289,-1.6215,-1.6191,-1.6164,-1.5965,-1.5725,-1.5351,-1.4493,-1.4761,-1.5137,-1.3068,-1.3798,-1.5405,-1.5045,0.0,0.0,0.0,0.0,-1.5559,-1.5354,-1.5306,-1.5306,-1.5306,-1.5306,-1.5366,-1.5559,-1.5596,-1.5666,0.0,-1.5947,-1.6024,-1.633,-1.6177,0.0,-1.6623,-1.6534,-1.6483,-1.6673,-1.6699,-1.6699,-1.6699,-1.6699,-1.6699,-1.6699,-1.6699,-1.6699,-1.6699,-1.6456,-1.6278,-1.6202,-1.5948,-1.5708,-1.5505,0.0,0.0,0.0,0.0,0.0,0.0,0.0,0.0,0.0,0.0,0.0,0.0,0.0,0.0,0.0,0.0,0.0,0.0,0.0,0.0,0.0,0.0,0.0,0.0,0.0,0.0,0.0,0.0,0.0,-1.657,-1.5637,0.0,0.0,0.0,0.0,-1.4865,-1.3742,-1.306,-1.306,-1.306,-1.306,-1.307,-1.3182,-1.3266,-1.3276,-1.3414,-1.3457,-1.3368,-1.3714,-1.3829,-1.3777,-1.4097,-1.3996,-1.3567,-1.3567,-1.3342,-1.307,-1.4079,-1.5208,-1.6263,-1.6009,-1.5912,-1.5924,-1.5885,-1.5217,-1.4277,-1.4223,-1.425,-1.4078,-1.2797,-1.3268,-1.4493,-1.5512,-1.5859,0.0,0.0,-1.59,-1.5861,-1.5849,-1.5849,-1.5849,-1.5849,-1.5849,-1.5849,-1.5861,-1.5873,-1.5953,0.0,-1.6062,-1.6062,-1.658,0.0,-1.638,-1.6659,-1.6685,-1.6685,-1.6685,-1.6685,-1.6685,-1.6685,-1.6685,-1.6685,-1.6685,-1.6685,-1.6685,-1.6685,-1.6444,-1.62,-1.5928,-1.5668,-1.5519,-1.5494,-1.5254,0.0,0.0,0.0,0.0,0.0,0.0,0.0,0.0,0.0,0.0,0.0,0.0,0.0,0.0,0.0,0.0,0.0,0.0,0.0,0.0,0.0,0.0,0.0,0.0,0.0,0.0,0.0,0.0,-1.4463,-1.3957,0.0,-1.4207,-1.3838,-1.3582,-1.3582,-1.325,-1.3037,-1.3037,-1.3099,-1.3238,-1.3428,-1.3472,-1.3574,-1.3735,-1.3778,-1.3415,-1.2589,-1.3518,-1.3514,-1.2776,-1.368,-1.3572,-1.2673,-1.2673,-1.2566,-1.2452,-1.2551,-1.3193,-1.4102,-1.4019,-1.396,-1.396,-1.396,-1.3709,-1.3234,-1.2459,-1.2711,-1.3271,-1.2718,-1.2284,-1.2173,-1.3312,-1.3663,-1.3663,-1.3663,-1.4321,-1.5051,-1.5051,-1.5752,-1.6416,-1.6416,-1.6416,-1.6416,-1.6416,-1.6416,-1.6444,-1.6554,-1.6208,-1.6019,-1.6377,-1.6205,-1.6178,-1.663,-1.6551,-1.6497,-1.6683,-1.671,-1.671,-1.671,-1.671,-1.671,-1.671,-1.671,-1.671,-1.671,-1.6462,-1.6254,-1.6161,-1.5892,-1.568,-1.5509,-1.5406,-1.5273,0.0,0.0,0.0,0.0,0.0,0.0,0.0,0.0,0.0,0.0,0.0,0.0,0.0,0.0,0.0,0.0,0.0,0.0,0.0,0.0,0.0,0.0,0.0,0.0,0.0,-1.37,-1.2924,-1.3433,-1.2967,-1.2786,-1.3271,-1.2926,-1.2661,-1.2661,-1.2337,-1.2174,-1.2174,-1.2231,-1.2379,-1.2535,-1.2594,-1.2718,-1.2868,-1.2927,-1.2522,-1.1698,-1.2554,-1.2522,-1.173,-1.2586,-1.2458,-1.1646,-1.1646,-1.1615,-1.1546,-1.1263,-1.149,-1.2073,-1.2684,-1.2889,-1.2889,-1.2889,-1.2632,-1.2184,-1.1388,-1.138,-1.1842,-1.2486,-1.1845,-1.1045,-1.2211,-1.257,-1.257,-1.257,-1.3285,-1.412,-1.4577,-1.5031,-1.5519,-1.5952,-1.5727,-1.5406,-1.5406,-1.5406,-1.5406,-1.5406,-1.5813,-1.6217,-1.6407,-1.6299,-1.6299,-1.6638,-1.6542,-1.6488,-1.6678,-1.6692,-1.6692,-1.6692,-1.6692,-1.6692,-1.6692,-1.6692,-1.6655,-1.6582,-1.6394,-1.6262,-1.6164,-1.6004,-1.5813,-1.5632,-1.517,-1.4685,-1.419,0.0,0.0,0.0,0.0,0.0,0.0,0.0,0.0,0.0,0.0,0.0,0.0,0.0,0.0,0.0,0.0,0.0,0.0,0.0,0.0,0.0,0.0,0.0,-1.3465,-1.2475,-1.218,-1.3612,-1.2689,-1.2488,-1.3854,-1.2878,-1.2162,-1.2162,-1.1014,-1.0335,-1.0335,-1.0304,-1.0342,-1.0342,-1.0439,-1.0514,-1.0514,-1.0663,-1.0738,-1.0738,-1.0738,-1.0738,-1.0738,-1.0738,-1.0649,-1.0507,-1.0507,-1.0426,-1.0297,-1.0322,-1.0322,-1.0482,-1.2166,-1.2812,-1.2803,-1.2803,-1.2066,-1.1059,-1.1059,-1.0337,-0.9787,-1.2078,-1.1983,-1.1273,-1.2432,-1.2803,-1.2803,-1.2803,-1.2813,-1.3127,-1.4377,-1.381,-1.325,-1.4465,-1.383,-1.2908,-1.2908,-1.2908,-1.2908,-1.2908,-1.4919,-1.6606,-1.665,-1.665,-1.6638,-1.6694,-1.6706,0.0,-1.6706,-1.6706,-1.6706,-1.6706,-1.6706,-1.6706,-1.6706,-1.6706,-1.6585,-1.628,-1.6241,-1.6148,-1.5868,-1.5829,-1.5803,-1.5803,-1.4473,-1.3312,-1.24,0.0,0.0,0.0,0.0,0.0,0.0,0.0,0.0,0.0,0.0,0.0,0.0,0.0,0.0,0.0,0.0,0.0,0.0,0.0,0.0,0.0,-1.0645,-1.0933,-1.2275,-1.1302,-1.0659,-1.1227,-1.0966,-1.0917,-1.1309,-1.1133,-1.0973,-1.0973,-1.0833,-1.0732,-1.0732,-1.0867,-1.0955,-1.0955,-1.0989,-1.1016,-1.1016,-1.1057,-1.1077,-1.1077,-1.1077,-1.1077,-1.1077,-1.1077,-1.0962,-1.0792,-1.0792,-1.0704,-1.0588,-1.048,-1.0465,-1.047,-1.0878,-1.0934,-1.0799,-1.0799,-1.0544,-1.0172,-1.0172,-0.99,-0.9662,-1.0303,-1.0222,-0.9925,-1.0264,-1.0351,-1.0351,-1.0351,-1.1102,-1.1958,-1.2328,-1.2933,-1.3583,-1.3908,-1.3731,-1.3495,-1.3495,-1.3495,-1.3495,-1.3495,-1.4055,-1.4686,-1.5218,-1.5332,-1.5643,-1.6554,-1.6706,0.0,-1.6706,-1.6706,-1.6706,-1.6706,-1.6706,-1.6706,-1.6706,-1.6706,-1.6266,-1.5289,-1.5193,-1.5188,-1.511,-1.4207,-1.3732,-1.3732,-1.3189,-1.2808,0.0,0.0,0.0,0.0,0.0,0.0,0.0,0.0,0.0,0.0,0.0,0.0,0.0,0.0,0.0,0.0,0.0,0.0,0.0,0.0,0.0,0.0,-0.9884,-1.0181,-1.1092,-1.0563,-1.0222,-1.0439,-1.0466,-1.0514,-1.0669,-1.0757,-1.0805,-1.0805,-1.0934,-1.1036,-1.1036,-1.1152,-1.12,-1.12,-1.12,-1.12,-1.12,-1.12,-1.12,-1.12,-1.12,-1.12,-1.12,-1.12,-1.1152,-1.1036,-1.1036,-1.0921,-1.0779,-1.0684,-1.0643,0.0,0.0,0.0,0.0,0.0,-1.0015,-0.9886,-0.9886,-0.9792,-0.97,-0.97,-0.9639,-0.9564,-0.9564,-0.9564,-0.9564,-0.9564,-1.0154,-1.0912,-1.1441,-1.182,-1.2195,-1.2736,-1.2436,-1.2075,-1.2075,-1.2075,-1.2075,-1.2075,-1.2075,0.0,-1.3353,-1.3895,-1.4463,-1.5135,-1.5237,-1.5237,-1.5237,-1.5296,-1.5334,-1.5334,-1.5393,-1.543,-1.543,-1.543,0.0,0.0,0.0,-1.411,-1.3999,-1.3288,0.0,0.0,0.0,-1.1535,-1.1053,0.0,0.0,0.0,-1.1576,-1.2009,0.0,0.0,0.0,0.0,0.0,0.0,0.0,0.0,0.0,0.0,0.0,0.0,0.0,0.0,0.0,0.0,-0.9798,-0.9767,-1.0022,-1.0162,-1.035,-1.0605,-1.0705,-1.0873,-1.1103,-1.1144,-1.1151,-1.1227,-1.1206,-1.1212,-1.1247,-1.1247,0.0,0.0,0.0,-1.1143,-1.1108,-1.1143,-1.1178,-1.1178,-1.1212,-1.1212,-1.1178,-1.1178,-1.1171,-1.1151,-1.1123,-1.1001,-1.0873,-1.0833,-1.0712,-1.0585,-1.0387,-1.0304,-1.0335,-1.0315,-1.0195,-1.0042,-1.0042,0.0,0.0,-0.9839,-0.9832,-0.9819,-0.9819,-0.9805,-0.9792,-0.9792,-0.9792,-1.0065,-1.1178,-1.0634,-1.0095,-1.1209,-1.0604,-0.9792,-0.9792,-0.9792,-0.9792,-0.9792,-0.9792,-1.0149,-1.1276,-1.2429,-1.3228,-1.3241,-1.327,-1.327,-1.327,-1.3326,-1.3402,-1.3402,0.0,0.0,-1.3657,-1.3657,-1.3501,-1.3145,-1.3127,-1.2956,-1.2562,-1.2668,-1.213,-1.0933,-1.0555,-0.9881,-0.8855,-0.8551,-0.8399,-0.8451,-1.0855,-1.1937,0.0,0.0,0.0,0.0,0.0,0.0,0.0,0.0,0.0,0.0,0.0,0.0,0.0,0.0,0.0,-0.9349,-0.9514,-0.9633,-0.9682,-0.9903,-1.0088,-1.0144,-1.07,-1.0994,-1.0744,-1.082,-1.0997,-1.1348,-1.118,-1.1174,-1.1496,-1.1531,-1.1389,-1.1067,-1.1032,-1.0918,-1.0626,-1.0882,-1.1032,-1.1032,-1.1389,0.0,-1.1032,-1.1032,-1.0967,-1.0856,-1.054,-1.0493,-1.0636,-1.0298,-1.0107,-1.0019,-1.0339,-1.0453,-1.0439,-1.0356,-1.0295,-1.0236,-1.0236,-1.0215,-1.0195,-1.0195,-1.0076,-0.9974,-0.9974,-0.9886,0.0,-0.9792,-0.9792,-0.9852,-1.0095,-0.9974,-0.9852,-1.0119,-0.9974,-0.9792,-0.9792,-0.9792,-0.9792,-0.9792,-0.9792,-0.9842,-0.9965,-1.1122,-1.2397,-1.3433,-1.3601,-1.3601,-1.3601,-1.3487,-1.3402,-1.3402,-1.3346,-1.3336,-1.3449,-1.3459,-1.3054,-1.2085,-1.1995,-1.1529,-1.0448,-1.119,-1.098,-0.9674,-0.9225,-0.887,-0.8669,-0.8477,-0.8393,-0.8416,-0.8938,-0.9171,0.0,0.0,0.0,0.0,0.0,0.0,0.0,0.0,0.0,0.0,0.0,-0.9256,-0.933,0.0,-0.9315,-0.9382,-0.9479,-0.9575,-0.9646,-0.9764,-0.9917,-1.0086,-1.0436,-1.0677,-1.0565,-1.0605,-1.0714,-1.0928,-1.082,-1.0858,-1.1038,-1.1038,-1.0966,-1.075,-1.075,-1.0678,-1.0491,-1.0678,-1.075,-1.075,-1.0966,-1.093,-1.075,-1.075,-1.0712,-1.0643,-1.0429,-1.0355,-1.0366,-1.0117,-0.9946,-0.9942,-1.0179,-1.0206,-1.0077,-1.0006,-0.9935,-0.9838,-0.9838,-0.9793,-0.9761,-0.9761,-0.9684,-0.9588,-0.9588,-0.9544,-0.9517,-0.9517,-0.9517,-0.9517,-0.9517,-0.9517,-0.9517,-0.9517,-0.9517,-0.9498,-0.9396,-0.9414,-0.9395,-0.9348,-0.9335,-0.9316,-0.9252,-0.9835,-1.0582,-1.142,-1.1543,-1.1543,-1.1543,-1.1513,-1.1505,-1.1505,-1.1505,-1.1538,-1.1598,-1.1524,-1.1191,-1.0449,-1.0389,-1.0072,-0.9366,-0.9846,-0.9785,-0.9129,-0.8696,-0.8509,-0.8509,-0.8264,-0.814,-0.814,-0.8146,-0.8225,0.0,0.0,0.0,0.0,0.0,0.0,0.0,-0.9336,-0.9374,-0.9093,-0.9083,-0.9104,-0.9158,-0.9312,-0.9407,-0.946,-0.9428,-0.9474,-0.9577,-0.9611,-0.9735,-0.9983,-1.0155,-1.0304,-1.0371,-1.0383,-1.0419,-1.0491,-1.0419,-1.0419,-1.0491,-1.0491,-1.0455,-1.0383,-1.0383,-1.0347,-1.0275,-1.0347,-1.0383,-1.0383,-1.0455,-1.0455,-1.0383,-1.0383,-1.0383,-1.0383,-1.0383,-1.0251,-1.0007,-0.99,-0.984,-0.9817,-0.9817,-0.9708,-0.9567,-0.9676,-0.9612,-0.9463,-0.9463,-0.939,-0.9299,-0.9299,-0.9281,-0.9224,-0.9224,-0.9206,-0.9182,-0.9182,-0.9182,-0.9182,-0.9182,-0.9182,-0.9182,-0.9182,-0.9182,-0.9158,-0.9054,-0.903,-0.9031,-0.8983,-0.8965,-0.8965,-0.8965,-0.8965,-0.9025,-0.9275,-0.9293,-0.9293,-0.9293,-0.9373,-0.9397,-0.9397,-0.947,-0.9536,-0.9563,-0.949,-0.9341,-0.9034,-0.9034,-0.8965,-0.8872,-0.8787,-0.8769,-0.8793,-0.8458,-0.8305,-0.8305,-0.8025,-0.7903,-0.7903,-0.7903,-0.804,-0.9427,-0.9183,-0.9007,-0.9007,-0.9038,-0.9063,0.0,-0.9136,-0.9227,-0.9195,-0.8953,-0.8843,-0.9075,-0.8906,-0.8761,-0.8947,-0.906,-0.9152,-0.9169,-0.9256,-0.9357,-0.9394,-1.0036,-1.0329,-0.9987,-0.9951,-1.0131,-1.0455,-1.0167,-1.0131,-1.0491,-1.0491,-1.0347,-0.9987,-0.9951,-0.9807,-0.9446,-0.9771,-0.9951,-0.9987,-1.0347,-1.0311,-0.9951,-0.9951,-0.9951,-0.9951,-0.9951,-0.9765,-0.9394,-0.9377,-0.9311,-0.9182,-0.9182,-0.91,-0.9072,-0.9603,-0.9747,-0.967,-0.967,-0.9664,-0.9651,-0.9651,-0.9533,-0.9364,-0.9364,-0.9279,-0.9182,-0.9182,-0.9182,-0.9182,-0.9182,-0.9182,-0.9182,-0.9182,-0.9182,-0.9182,-0.917,-0.9164,-0.9158,-0.9177,-0.9171,-0.9171,-0.9171,-0.9171,-0.9117,-0.897,-0.8963,-0.8963,-0.8963,-0.8804,-0.8706,-0.8706,-0.8608,-0.8595,-0.8719,-0.889,-0.8902,-0.8748,-0.8736,-0.8748,-0.8731,-0.8432,-0.8341,-0.8458,-0.8122,-0.7964,-0.7964,-0.7933,-0.7903,-0.7903,-0.7903,-0.7917,-0.9268,-0.9143,-0.9081,-0.9081,-0.9098,-0.9077,-0.8856,-0.8925,-0.9004,-0.8878,-0.8794,-0.8801,-0.8945,-0.893,-0.8903,-0.9006,-0.9119,-0.9231,-0.9231,-0.9275,-0.9302,-0.9302,-0.959,-0.9735,-0.9554,-0.9554,-0.9627,-0.9771,-0.9663,-0.9627,-0.9807,-0.9807,-0.9735,-0.9554,-0.9554,-0.9482,-0.9302,-0.9482,-0.9554,-0.9554,-0.9735,-0.9699,-0.9554,-0.9554,-0.9554,-0.9554,-0.9554,-0.9446,-0.9302,-0.9302,-0.9275,-0.9231,-0.9231,-0.9125,-0.9041,-0.9198,-0.9257,-0.9234,-0.9194,-0.9171,-0.9159,-0.9079,-0.8988,-0.8943,-0.8943,-0.8903,-0.8863,-0.8863,-0.8863,-0.8863,-0.8863,-0.8863,-0.8863,-0.8863,-0.8863,-0.884,-0.8739,-0.8728,-0.8705,-0.8631,-0.8614,-0.8614,-0.8614,-0.8614,-0.858,-0.8509,-0.8746,-0.8946,-0.8897,-0.8836,-0.8769,-0.8769,-0.8714,-0.8671,-0.8617,-0.8672,-0.8618,-0.8355,-0.8355,-0.8324,-0.8249,-0.8036,-0.7935,-0.7985,-0.7793,-0.7665,-0.7665,-0.7665,-0.7665,-0.7665,-0.7665,-0.7665,-0.906,-0.8997,-0.8933,-0.8933,-0.8986,-0.8975,-0.8716,-0.8776,-0.8851,-0.8705,-0.8758,-0.8856,-0.8946,-0.9038,-0.9109,-0.9141,-0.9253,-0.9302,-0.9302,-0.9302,-0.9302,-0.9302,-0.9302,-0.9302,-0.9302,-0.9302,-0.9302,-0.9302,-0.9302,-0.9302,-0.9302,-0.9302,-0.9302,-0.9302,-0.9302,-0.9302,-0.9302,-0.9302,-0.9302,-0.9302,-0.9302,-0.9302,-0.9302,-0.9302,-0.9302,-0.9302,-0.9302,-0.9302,-0.9302,-0.9302,-0.9302,-0.9302,-0.9302,-0.9253,-0.9136,-0.9044,-0.8973,-0.8903,-0.8851,-0.8818,-0.8807,-0.8715,-0.8687,-0.8682,-0.8649,-0.8672,-0.8633,-0.8595,-0.859,-0.859,-0.859,-0.859,-0.859,-0.859,-0.859,-0.8562,-0.8481,-0.8465,-0.8437,-0.8318,-0.8302,-0.8302,-0.8302,-0.8302,-0.8291,-0.8258,-0.8597,-0.8803,-0.8704,-0.8717,-0.8717,-0.8717,-0.8688,-0.8622,-0.8467,-0.842,-0.83,-0.7997,-0.7997,-0.7946,-0.7848,-0.7747,-0.7714,-0.7747,-0.7627,-0.7568,-0.7568,-0.7506,-0.7489,-0.7489,-0.7489,-0.7489,-0.871,-0.8486,-0.8236,-0.8236,-0.8443,-0.8612,-0.8612,-0.8764,-0.8903,-0.8908,-0.8908,-0.8952,-0.9071,-0.9098,-0.9136,-0.928,-0.9302,-0.9302,-0.9302,-0.9302,-0.9302,-0.9302,-0.9302,-0.9302,-0.9302,-0.9302,-0.9302,-0.9302,-0.9302,-0.9302,-0.9302,-0.9302,-0.9302,-0.9302,-0.9302,-0.9302,-0.9302,-0.9302,-0.9302,-0.9302,-0.9302,-0.9302,-0.9302,-0.9302,-0.9302,-0.9302,-0.9302,-0.9302,-0.9302,-0.9302,-0.9302,-0.9302,-0.9302,-0.9302,-0.9296,-0.9296,-0.9114,-0.8919,-0.8914,-0.8914,-0.8914,-0.8908,-0.8903,-0.8881,-0.8802,-0.8798,-0.8776,-0.8622,-0.859,-0.859,-0.859,-0.859,-0.859,-0.859,-0.859,-0.8584,-0.8584,-0.8584,-0.8584,-0.8579,-0.8579,-0.8579,-0.8579,-0.8579,-0.8541,-0.8432,-0.841,-0.8361,-0.8242,-0.8225,-0.8225,-0.8225,-0.8148,-0.8108,-0.8103,-0.7993,-0.7848,-0.7709,-0.7703,-0.7703,-0.7709,-0.7703,-0.7752,-0.7892,-0.7752,-0.7698,-0.7698,-0.7578,-0.7489,-0.7489,-0.7489,-0.7489,-0.8634,-0.8624,-0.859,-0.859,-0.8709,-0.8795,-0.8795,-0.8859,-0.8941,-0.9022,-0.9038,-0.9076,-0.9226,-0.9247,-0.9258,-0.9296,-0.9302,-0.9302,-0.9302,-0.9302,-0.9302,-0.9302,-0.9302,-0.9302,-0.9302,-0.9302,-0.9302,-0.9302,-0.9302,-0.9302,-0.9302,-0.9302,-0.9302,-0.9302,-0.9302,-0.9302,-0.9302,-0.9302,-0.9302,-0.9302,-0.9302,-0.9302,-0.9302,-0.9302,-0.9302,-0.9302,-0.9302,-0.9302,-0.9302,-0.9302,-0.9302,-0.9302,-0.9302,-0.9302,-0.9302,-0.9302,-0.9253,-0.9141,-0.9065,-0.9038,-0.9027,-0.8941,-0.8919,-0.8908,-0.887,-0.8854,-0.8849,-0.8805,-0.8795,-0.8795,-0.8795,-0.8795,-0.8773,-0.8725,-0.8743,-0.8721,-0.8606,-0.859,-0.859,-0.859,-0.859,-0.859,-0.859,-0.859,-0.8573,-0.8535,-0.8399,-0.8248,-0.821,-0.8204,-0.8204,-0.8204,-0.8166,-0.8176,-0.8176,-0.8138,-0.8063,-0.8026,-0.8026,-0.8026,-0.8026,-0.7981,-0.7946,-0.7903,-0.7758,-0.766,-0.7578,-0.7511,-0.7446,-0.737,-0.737,-0.7355,-0.8672,-0.8743,-0.8814,-0.8823,-0.8892,-0.8979,-0.8979,-0.9011,-0.9065,-0.9141,-0.9157,-0.9184,-0.9291,-0.9302,-0.9318,-0.9362,-0.9367,-0.9383,-0.9427,-0.9432,-0.9432,-0.9432,-0.9432,-0.9416,-0.9372,-0.9367,-0.9351,-0.9307,-0.9302,-0.9302,-0.9302,-0.9302,-0.9302,-0.9302,-0.9302,-0.9302,-0.9302,-0.9302,-0.9302,-0.9302,-0.9302,-0.9302,-0.9302,-0.9302,-0.9302,-0.9302,-0.9302,-0.9302,-0.9302,-0.9302,-0.9302,-0.9302,-0.9302,-0.9302,-0.9302,-0.9302,-0.9302,-0.9296,-0.9184,-0.9157,-0.9147,-0.9071,-0.9044,-0.9033,-0.8995,-0.8979,-0.8973,-0.893,-0.8919,-0.8919,-0.8919,-0.8919,-0.8897,-0.8856,-0.8834,-0.8812,-0.8736,-0.872,-0.872,-0.872,-0.8682,-0.8683,-0.8683,-0.8617,-0.859,-0.859,-0.8459,-0.8329,-0.8329,-0.8329,-0.8329,-0.8329,-0.8291,-0.8269,-0.8269,-0.8226,-0.8204,-0.8204,-0.8204,-0.8204,-0.8204,-0.816,-0.8084,-0.8002,-0.7888,-0.779,-0.7709,-0.7665,-0.7584,-0.7435,-0.7435,-0.7399,-0.8781,-0.8819,-0.8818,-0.8897,-0.9017,-0.9109,-0.9109,-0.9226,-0.9302,-0.9302,-0.9302,-0.9302,-0.9302,-0.9307,-0.9351,-0.947,-0.9492,-0.9536,-0.9693,-0.9709,-0.9703,-0.9698,-0.9698,-0.9649,-0.9492,-0.9476,-0.9432,-0.9323,-0.9307,-0.9307,-0.9313,-0.9313,-0.9318,-0.9323,-0.9323,-0.9323,-0.9323,-0.9323,-0.9323,-0.9323,-0.9318,-0.9313,-0.9313,-0.9307,-0.9302,-0.9302,-0.9302,-0.9302,-0.9302,-0.9302,-0.9302,-0.9302,-0.9302,-0.9302,-0.9302,-0.9302,-0.9302,-0.9302,-0.9302,-0.9302,-0.9302,-0.9302,-0.9302,-0.9285,-0.9141,-0.9109,-0.9082,-0.8968,-0.8935,-0.8935,-0.8935,-0.8935,-0.8935,-0.893,-0.8924,-0.8924,-0.8919,-0.8919,-0.8919,-0.8919,-0.8856,-0.8814,-0.8814,-0.8716,-0.8606,-0.8606,-0.86,-0.8595,-0.859,-0.859,-0.859,-0.859,-0.8492,-0.8394,-0.8394,-0.8285,-0.822,-0.822,-0.822,-0.822,-0.822,-0.822,-0.822,-0.8215,-0.8164,-0.8099,-0.8094,-0.7979,-0.7864,-0.772,-0.772,-0.7655,-0.8838,-0.8935,-0.9017,-0.9044,-0.9141,-0.9258,-0.9258,-0.928,-0.9302,-0.9302,-0.9302,-0.9302,-0.9302,-0.9378,-0.9449,-0.9481,-0.96,-0.9671,-0.9703,-0.9709,-0.9671,-0.9546,-0.9536,-0.9487,-0.9362,-0.9351,-0.9378,-0.9438,-0.9356,-0.9345,-0.9432,-0.9438,-0.9481,-0.9611,-0.9616,-0.9616,-0.9616,-0.9616,-0.9616,-0.9611,-0.9487,-0.9438,-0.9438,-0.9345,-0.9302,-0.9302,-0.9302,-0.9302,-0.9302,-0.9302,-0.9302,-0.9302,-0.9302,-0.9302,-0.9302,-0.9302,-0.9302,-0.9302,-0.9302,-0.9302,-0.9302,-0.9302,-0.9302,-0.9296,-0.9269,-0.9258,-0.9253,-0.9226,-0.9215,-0.9215,-0.9215,-0.9215,-0.9157,-0.9071,-0.9054,-0.9027,-0.8935,-0.8919,-0.8919,-0.8919,-0.8892,-0.887,-0.887,-0.8843,-0.8827,-0.8827,-0.878,-0.8721,-0.86,-0.859,-0.859,-0.859,-0.8562,-0.8546,-0.8546,-0.8513,-0.8497,-0.8497,-0.8497,-0.8497,-0.8497,-0.8497,-0.8459,-0.834,-0.8339,-0.828,-0.8187,-0.8128,-0.8079,-0.7995,-0.7995,-0.793,-0.8962,-0.9049,-0.9109,-0.9163,-0.9258,-0.9302,-0.9302,-0.9302,-0.9302,-0.9302,-0.9302,-0.9302,-0.9302,-0.9405,-0.9503,-0.9594,-0.9666,-0.9764,-0.9818,-0.978,-0.972,-0.965,-0.9595,-0.9541,-0.947,-0.9465,-0.9492,-0.96,-0.9454,-0.9438,-0.96,-0.9605,-0.9633,-0.9703,-0.9709,-0.9709,-0.9709,-0.9709,-0.9709,-0.9703,-0.9638,-0.9541,-0.9487,-0.9416,-0.9356,-0.9302,-0.9302,-0.9334,-0.9378,-0.9329,-0.9334,-0.9378,-0.9323,-0.9302,-0.9302,-0.9302,-0.9302,-0.9302,-0.9302,-0.9302,-0.9302,-0.9302,-0.9302,-0.9302,-0.9302,-0.9302,-0.9302,-0.9302,-0.9302,-0.9302,-0.9302,-0.9302,-0.9291,-0.9226,-0.9174,-0.9152,-0.9087,-0.9071,-0.9054,-0.9006,-0.8995,-0.8979,-0.8924,-0.8919,-0.8919,-0.8919,-0.8859,-0.8823,-0.8758,-0.8655,-0.859,-0.859,-0.859,-0.859,-0.859,-0.859,-0.859,-0.859,-0.859,-0.859,-0.859,-0.859,-0.8557,-0.8492,-0.8492,-0.8459,-0.8388,-0.8388,-0.8329,-0.8246,-0.8246,-0.8149,-0.9087,-0.9119,-0.9147,-0.928,-0.9302,-0.9302,-0.9302,-0.9302,-0.9302,-0.9302,-0.9302,-0.9307,-0.9323,-0.9427,-0.9552,-0.9709,-0.9786,-0.9861,-0.9964,-0.9878,-0.9791,-0.978,-0.9726,-0.9698,-0.9687,-0.9698,-0.9714,-0.9731,-0.9595,-0.9579,-0.9725,-0.9731,-0.9736,-0.9753,-0.9753,-0.9753,-0.9753,-0.9753,-0.9753,-0.9753,-0.9736,-0.9633,-0.953,-0.9503,-0.9427,-0.9329,-0.9313,-0.9362,-0.9454,-0.9345,-0.9378,-0.9476,-0.9372,-0.934,-0.9351,-0.9351,-0.9351,-0.9351,-0.9334,-0.9329,-0.9323,-0.9307,-0.9302,-0.9302,-0.9302,-0.9302,-0.9302,-0.9302,-0.9302,-0.9302,-0.9302,-0.9302,-0.9302,-0.9302,-0.9302,-0.9302,-0.9302,-0.9302,-0.9275,-0.9141,-0.9119,-0.9087,-0.8979,-0.8962,-0.8962,-0.8962,-0.8952,-0.8941,-0.8941,-0.874,-0.8638,-0.8638,-0.8638,-0.8638,-0.8638,-0.8638,-0.8638,-0.8638,-0.8622,-0.8611,-0.8611,-0.8595,-0.859,-0.859,-0.859,-0.859,-0.859,-0.859,-0.8535,-0.8443,-0.8443,-0.835,-0.9242,-0.9275,-0.928,-0.9302,-0.9302,-0.9302,-0.9302,-0.9302,-0.9302,-0.9302,-0.9302,-0.9334,-0.9438,-0.9594,-0.9677,-0.9753,-0.9872,-0.9959,-0.998,-0.9878,-0.9764,-0.9709,-0.972,-0.9665,-0.953,-0.9649,-0.9709,-0.9764,-0.9748,-0.9748,-0.9769,-0.9769,-0.9818,-0.9954,-0.996,-0.996,-0.996,-0.996,-0.996,-0.996,-0.9818,-0.9758,-0.9731,-0.9574,-0.9476,-0.9449,-0.9345,-0.9318,-0.9334,-0.9313,-0.9378,-0.9487,-0.9465,-0.9514,-0.9643,-0.9643,-0.9643,-0.9627,-0.9492,-0.9454,-0.9438,-0.9334,-0.9302,-0.9302,-0.9302,-0.9302,-0.9302,-0.9302,-0.9302,-0.9302,-0.9302,-0.9302,-0.9302,-0.9302,-0.9302,-0.9302,-0.9302,-0.9302,-0.9296,-0.928,-0.9275,-0.9269,-0.9247,-0.9242,-0.9242,-0.9242,-0.9125,-0.9065,-0.9065,-0.8941,-0.8854,-0.8854,-0.8854,-0.8854,-0.8854,-0.8854,-0.8854,-0.8854,-0.8796,-0.877,-0.877,-0.8672,-0.859,-0.859,-0.859,-0.859,-0.859,-0.859,-0.8579,-0.8557,-0.8557,-0.8546,-0.9291,-0.9302,-0.9302,-0.9302,-0.9302,-0.9302,-0.9302,-0.9302,-0.9302,-0.9302,-0.9302,-0.934,-0.9465,-0.9622,-0.9704,-0.978,-0.9899,-0.998,-0.998,-0.9129,-0.8469,-0.8459,-0.7655,-0.7104,-0.707,-0.7113,-0.7201,-0.7289,-0.7293,-0.807,-0.9817,-0.9894,-0.9921,-0.998,-0.998,-0.998,-0.998,-0.998,-0.998,-0.998,-0.9921,-0.9861,-0.9796,-0.9683,-0.9639,-0.9611,-0.9454,-0.9432,-0.9487,-0.9356,-0.9378,-0.9481,-0.9416,-0.9465,-0.9611,-0.9611,-0.9654,-0.9698,-0.9638,-0.9622,-0.9611,-0.9514,-0.941,-0.9302,-0.9302,-0.9302,-0.9302,-0.9302,-0.9302,-0.9302,-0.9302,-0.9302,-0.9302,-0.9302,-0.9302,-0.9302,-0.9302,-0.9302,-0.9302,-0.9302,-0.9302,-0.9302,-0.9302,-0.9302,-0.9302,-0.9302,-0.9258,-0.9184,-0.9184,-0.9136,-0.9054,-0.893,-0.8919,-0.8919,-0.8919,-0.8919,-0.8919,-0.8919,-0.8865,-0.8867,-0.8867,-0.8773,-0.8747,-0.8716,-0.8716,-0.8683,-0.859,-0.859,-0.859,-0.8584,-0.8524,-0.8497,-0.9302,-0.9302,-0.9302,-0.9302,-0.9302,-0.9302,-0.9302,-0.9302,-0.9302,-0.9302,-0.9302,-0.9351,-0.9497,-0.9643,-0.9715,-0.9818,-0.9915,-0.9864,-0.9508,-0.8202,-0.7172,-0.6815,-0.5544,-0.4748,-0.4807,-0.4831,-0.4885,-0.5011,-0.5014,-0.6147,-0.8808,-0.8925,-0.8925,-0.8925,-0.8925,-0.8925,-0.8925,-0.8925,-0.8925,-0.8925,-0.8925,-0.8881,-0.8755,-0.8731,-0.8716,-0.8634,-0.8527,-0.8518,-0.8599,-0.8387,-0.8367,-0.8477,-0.8389,-0.8423,-0.8595,-0.8891,-0.8887,-0.8752,-0.9071,-0.8925,-0.8714,-0.9071,-0.9276,-0.9383,-0.9383,-0.9362,-0.9345,-0.9345,-0.9323,-0.9302,-0.9302,-0.9302,-0.9302,-0.9302,-0.9302,-0.9302,-0.9302,-0.9302,-0.9302,-0.9302,-0.9302,-0.9302,-0.9302,-0.9302,-0.9302,-0.9302,-0.9302,-0.9302,-0.9302,-0.9302,-0.9231,-0.9011,-0.8995,-0.8995,-0.8995,-0.8995,-0.8995,-0.8995,-0.8968,-0.8957,-0.8957,-0.893,-0.887,-0.8812,-0.8807,-0.8764,-0.8666,-0.8638,-0.8628,-0.8622,-0.8508,-0.8454,-0.9302,-0.9302,-0.9302,-0.9302,-0.9302,-0.9302,-0.9302,-0.9302,-0.9302,-0.9302,-0.9302,-0.9378,-0.9649,-0.9698,-0.978,-0.9965,-0.9975,-0.947,-0.7946,-0.7472,-0.6744,-0.5214,-0.4899,-0.481,-0.4793,-0.4893,-0.4969,-0.5014,-0.5014,-0.5131,-0.5444,-0.5444,-0.5444,-0.5444,-0.5444,-0.5444,-0.5444,-0.5444,-0.5444,-0.5444,-0.5444,-0.5441,-0.5432,-0.5334,-0.5264,-0.5255,-0.5191,-0.5132,-0.5157,-0.5145,-0.5179,-0.5222,-0.5216,-0.5292,-0.5578,-0.6969,-0.6607,-0.5634,-0.697,-0.6463,-0.5478,-0.6966,-0.844,-0.9671,-0.9671,-0.9594,-0.947,-0.947,-0.9389,-0.9302,-0.9302,-0.9302,-0.9302,-0.9302,-0.9302,-0.9302,-0.9302,-0.9302,-0.9302,-0.9302,-0.9302,-0.9302,-0.9302,-0.9302,-0.9302,-0.9302,-0.9302,-0.9302,-0.9302,-0.9302,-0.9296,-0.9275,-0.9269,-0.9269,-0.9269,-0.9269,-0.9269,-0.9269,-0.9141,-0.9082,-0.9082,-0.8973,-0.8914,-0.8897,-0.8897,-0.8892,-0.8881,-0.8807,-0.8787,-0.8787,-0.8628,-0.8573,-0.9302,-0.9302,-0.9302,-0.9302,-0.9302,-0.9302,-0.9302,-0.9302,-0.9302,-0.9302,-0.9302,-0.9378,-0.966,-0.9709,-0.9785,-0.9981,-0.998,-0.9431,-0.7751,-0.6594,-0.531,-0.3613,-0.2514,-0.1899,-0.1923,-0.1947,-0.2,-0.2,-0.2,-0.2,-0.2,-0.3918,-0.5014,-0.5014,-0.5014,-0.5014,-0.5014,-0.5014,-0.5014,-0.5014,-0.5014,-0.5014,-0.5014,-0.495,-0.4939,-0.4895,-0.4798,-0.4758,-0.4772,-0.4734,-0.4699,-0.4741,-0.4741,-0.4792,-0.4963,-0.5559,-0.5453,-0.51,-0.5682,-0.5437,-0.5039,-0.5669,-0.633,-0.7237,-0.9144,-0.9671,-0.9633,-0.9633,-0.96,-0.9525,-0.9525,-0.947,-0.9416,-0.9416,-0.9356,-0.9302,-0.9302,-0.9302,-0.9302,-0.9302,-0.9302,-0.9302,-0.9302,-0.9302,-0.9302,-0.9302,-0.9302,-0.9302,-0.9302,-0.9302,-0.9302,-0.9302,-0.9302,-0.9302,-0.9302,-0.9302,-0.9302,-0.9302,-0.9264,-0.9237,-0.9237,-0.9152,-0.9098,-0.9027,-0.9027,-0.8989,-0.8919,-0.887,-0.8843,-0.8838,-0.8677,-0.859,-0.8615,-0.8941,-0.9302,-0.9302,-0.8941,-0.8615,-0.8615,-0.8249,-0.7923,-0.7923,-0.7947,-0.8021,-0.8197,-0.8257,-0.8293,-0.8503,-0.853,-0.7946,-0.6261,-0.5022,-0.3649,-0.1972,-0.0726,0.0,0.0,0.0,0.0,0.0,0.0,0.0,0.0,-0.2235,-0.3527,-0.3527,-0.3527,-0.3527,-0.3527,-0.3527,-0.3527,-0.3527,-0.3527,-0.3527,-0.3527,-0.3527,-0.3527,-0.3525,-0.3417,-0.3398,0.0,-0.3317,-0.3317,-0.3317,-0.3317,-0.3347,-0.3448,-0.389,-0.3838,-0.3575,-0.406,-0.389,-0.3605,-0.4115,-0.4247,-0.4782,-0.7472,-0.8299,-0.8351,-0.8847,-0.9317,-0.9709,-0.9709,-0.9643,-0.9578,-0.9578,-0.9476,-0.941,-0.941,-0.941,-0.941,-0.941,-0.941,-0.941,-0.941,-0.941,-0.941,-0.941,-0.9383,-0.9356,-0.9356,-0.9329,-0.9302,-0.9302,-0.9302,-0.9302,-0.9302,-0.9302,-0.9302,-0.9302,-0.9302,-0.9302,-0.9302,-0.9302,-0.9264,-0.9152,-0.9147,-0.9109,-0.9022,-0.8989,-0.8968,-0.8968,-0.8757,-0.8693,-0.7014,-0.814,-0.9302,-0.9302,-0.814,-0.7014,-0.7014,-0.5855,-0.4729,-0.4729,-0.4737,-0.4758,-0.482,-0.4842,-0.4902,-0.5042,-0.5053,-0.4466,-0.2781,-0.2533,-0.1909,-0.0235,0.0,0.0,0.0,0.0,0.0,0.0,0.0,0.0,0.0,-0.0039,-0.0039,-0.0039,-0.0039,-0.0039,-0.0039,-0.0039,-0.0039,-0.0039,-0.0039,-0.0039,-0.0039,-0.0039,-0.0039,-0.0039,-0.0039,-0.0039,0.0,-0.0039,-0.0038,-0.0038,-0.0038,-0.0038,-0.0223,-0.1745,-0.1374,-0.026,-0.1782,-0.1348,-0.0341,-0.1996,-0.2543,-0.2856,-0.4527,-0.497,-0.519,-0.6838,-0.846,-0.9709,-0.9709,-0.9703,-0.9703,-0.9703,-0.9703,-0.9703,-0.9703,-0.9703,-0.9703,-0.9703,-0.9703,-0.9703,-0.9703,-0.9703,-0.9703,-0.9703,-0.96,-0.9487,-0.9487,-0.9378,-0.9302,-0.9302,-0.9302,-0.9302,-0.9302,-0.9302,-0.9302,-0.9302,-0.9302,-0.9302,-0.9302,-0.9302,-0.9302,-0.9302,-0.9302,-0.9302,-0.9302,-0.9152,-0.9098,-0.9092,-0.8968,-0.8914,-0.5419,-0.5782,-0.6145,-0.6145,-0.5782,-0.5419,-0.5419,-0.5052,-0.4714,-0.4714,-0.4689,-0.4707,-0.4807,-0.4795,-0.4827,-0.4964,-0.5014,-0.4427,-0.2742,-0.2495,-0.1871,-0.0196,0.0,0.0,0.0,0.0,0.0,0.0,0.0,0.0,0.0,0.0,0.0,0.0,0.0,0.0,0.0,0.0,0.0,0.0,0.0,0.0,0.0,0.0,0.0,0.0,0.0,0.0,0.0,0.0,0.0,0.0,0.0,0.0,-0.0075,-0.0564,-0.0414,-0.0075,-0.0564,-0.0415,-0.0076,-0.0608,-0.08,-0.0878,-0.1428,-0.3145,-0.5062,-0.5567,-0.6097,-0.6505,-0.6505,-0.6424,-0.6347,-0.6347,-0.7175,-0.7999,-0.7999,-0.891,-0.9709,-0.9709,-0.9709,-0.9709,-0.9709,-0.9709,-0.9709,-0.9709,-0.9676,-0.9649,-0.9649,-0.9616,-0.9589,-0.9589,-0.9589,-0.9487,-0.9318,-0.9302,-0.9302,-0.9302,-0.9302,-0.9302,-0.9302,-0.9302,-0.9302,-0.9302,-0.9302,-0.9302,-0.9302,-0.9269,-0.9174,-0.9098,-0.906,-0.8995,-0.3639,-0.4221,-0.4693,-0.4693,-0.4257,-0.3789,-0.3807,-0.3355,-0.2933,-0.2909,-0.2942,-0.2936,-0.2997,-0.2975,-0.303,-0.3093,-0.3096,-0.2743,-0.1686,-0.1427,-0.0882,0.035,0.0352,0.0314,0.0471,0.0314,0.0314,0.0471,0.0314,0.0314,0.0471,0.0196,0.0157,0.0471,0.0157,0.0,0.0,0.0,0.0,0.0,0.0,0.0,0.0,0.0,0.0,0.0,0.0,0.0,0.0,0.0,0.0,0.0,0.0,0.0,0.0,0.0,0.0,0.0,0.0,0.0,0.0,0.0,0.0,0.0,0.0,-0.1897,-0.4073,-0.4073,-0.4505,-0.5014,-0.5014,-0.4948,-0.4879,-0.4879,-0.5656,-0.635,-0.635,-0.7193,-0.7926,-0.7926,-0.7926,-0.7926,-0.7926,-0.7926,-0.7926,-0.7926,-0.7891,-0.7869,-0.7869,-0.8365,-0.876,-0.876,-0.9328,-0.9643,-0.9454,-0.94,-0.9351,-0.9307,-0.9302,-0.9302,-0.9302,-0.9302,-0.9302,-0.9302,-0.9302,-0.9302,-0.9302,-0.9302,-0.9269,-0.9163,-0.9163,-0.9119,0.0,-0.3239,-0.4366,-0.4366,-0.3241,-0.2121,-0.2146,-0.1042,0.0,0.0,0.0,0.0,0.0,0.0,0.0,0.0,0.0,0.0,0.0039,0.0388,0.081,0.1234,0.0897,0.0825,0.1256,0.0903,0.0825,0.1256,0.0903,0.0825,0.1296,0.055,0.0471,0.1256,0.051,0.0079,0.0079,0.0079,0.0079,0.0079,0.0039,0.0079,0.0079,0.0079,0.0079,0.0079,0.0079,0.0079,0.0079,0.0079,0.0079,0.0079,0.0039,0.0078,0.0077,0.0039,0.0,0.0038,0.0038,0.0038,0.0,0.0,0.0,0.0,0.0,-0.1078,-0.2309,-0.2309,-0.3445,-0.4662,-0.4662,-0.4662,-0.4662,-0.4662,-0.474,-0.4818,-0.4818,-0.4936,-0.5014,-0.5014,-0.5014,-0.5014,-0.5014,-0.5014,-0.5014,-0.5014,-0.4887,-0.4814,-0.4814,-0.6135,-0.7071,-0.7222,-0.8629,-0.958,-0.9645,-0.9568,-0.9454,-0.934,-0.9329,-0.9329,-0.9318,-0.9318,-0.9313,-0.9302,-0.9302,-0.9302,-0.9302,-0.9302,-0.9302,-0.9302,-0.9302,-0.9302,-0.0438,0.0,-0.1094,-0.1094,-0.0808,-0.0555,0.0,-0.0264,0.0,0.0,0.0,0.0,0.0,0.0,0.0,0.0,0.0,0.0117,0.0427,0.0811,0.1118,0.1272,0.1209,0.1178,0.1296,0.1217,0.1178,0.1296,0.1217,0.1178,0.1296,0.1099,0.1099,0.1296,0.1099,0.0982,0.0982,0.0628,0.0628,0.0982,0.0628,0.0628,0.0982,0.0982,0.0982,0.0982,0.0982,0.0982,0.0982,0.0982,0.0982,0.0942,0.0589,0.0666,0.0899,0.0235,0.0195,0.0467,0.0462,0.0269,0.0,0.0,0.0,0.0,0.0,-0.027,-0.0581,-0.0581,-0.0857,-0.1177,-0.1177,-0.1177,-0.1177,-0.1177,-0.2156,-0.3094,-0.3094,-0.4114,-0.5014,-0.5014,-0.5014,-0.5014,-0.5014,-0.5014,-0.5014,-0.5014,-0.4964,-0.4953,-0.4953,-0.5289,-0.6016,-0.7297,-0.78,-0.8352,-0.9236,-0.9505,-0.9654,-0.9622,-0.9622,-0.9541,-0.9449,-0.9443,-0.94,-0.9307,-0.9302,-0.9302,-0.9302,-0.9302,-0.9302,-0.9302,-0.9302,-0.9302,0.0,0.0,0.0,0.0,0.0,0.0,0.0,0.0,0.0,0.0,0.0,0.0039,0.0236,0.0275,0.0353,0.055,0.0589,0.0744,0.1129,0.14,0.1595,0.1828,0.1682,0.165,0.1846,0.1689,0.165,0.1846,0.1689,0.165,0.1846,0.1493,0.1454,0.1846,0.1689,0.1493,0.1296,0.106,0.106,0.1296,0.106,0.106,0.1296,0.1296,0.1296,0.1296,0.1296,0.1296,0.1296,0.1296,0.1296,0.1256,0.1021,0.106,0.1256,0.0785,0.0746,0.0903,0.0936,0.0778,0.0582,0.0613,0.0614,0.0578,0.0613,0.0614,0.0501,0.0116,0.0,0.0,0.0,0.0,0.0,0.0,-0.0706,-0.1373,-0.1373,-0.2077,-0.2704,-0.2704,-0.2704,-0.2704,-0.2704,-0.2704,-0.2704,-0.2704,-0.2704,-0.2626,-0.2469,-0.3094,-0.3838,-0.4539,-0.5321,-0.6046,-0.6663,-0.6892,-0.76,-0.9033,-0.9291,-0.9265,-0.9011,-0.916,-0.9218,-0.9134,-0.9316,-0.9289,-0.9018,-0.9199,-0.9302,-0.9302,-0.9253,-0.9253,0.0,0.0,0.0,0.0,0.0,0.0,0.0,0.0038,0.0078,0.0078,0.0157,0.0314,0.0628,0.0707,0.0825,0.1217,0.1334,0.149,0.1845,0.1961,0.2117,0.2475,0.22,0.2121,0.2475,0.22,0.2121,0.2475,0.22,0.2163,0.2481,0.1851,0.1813,0.2488,0.2172,0.1856,0.15,0.1417,0.1414,0.1493,0.1414,0.1414,0.1493,0.1493,0.1493,0.1493,0.1493,0.0,0.1493,0.1493,0.1493,0.1493,0.1414,0.1414,0.1454,0.1336,0.1336,0.1375,0.1336,0.1336,0.1372,0.1319,0.1315,0.1312,0.1299,0.1302,0.1157,0.0424,0.0193,0.0155,0.0039,0.0039,0.0078,0.0,0.0,0.0,0.0,0.0,0.0,0.0,0.0,0.0,0.0,0.0,0.0039,0.0079,0.0079,0.0236,0.0668,-0.0588,-0.145,-0.1214,-0.2583,-0.3558,-0.3675,-0.3753,-0.4962,-0.7717,-0.8318,-0.854,-0.8446,-0.8737,-0.8875,-0.8817,-0.9144,-0.9097,-0.8671,-0.8977,-0.9184,-0.922,-0.9107,-0.9143,0.0,0.0,0.0,0.0,0.0,0.0,0.0,0.027,0.0509,0.051,0.0825,0.1099,0.1178,0.1178,0.1217,0.1296,0.1519,0.1747,0.1882,0.2181,0.2446,0.2511,0.2435,0.2435,0.2475,0.2435,0.2435,0.2514,0.2435,0.2446,0.2592,0.2472,0.2443,0.2587,0.2508,0.2468,0.2385,0.2023,0.1964,0.2318,0.1964,0.2003,0.2318,0.2318,0.2318,0.2318,0.0,0.2318,0.2318,0.2318,0.2318,0.2278,0.1925,0.2003,0.2239,0.1532,0.1532,0.1768,0.1414,0.1532,0.1767,0.141,0.1292,0.1292,0.1289,0.1282,0.1272,0.1157,0.1088,0.0938,0.0193,0.0234,0.0431,0.0078,0.0,0.0,0.0,0.0,0.0,0.0,0.0,0.0,0.0,0.0,0.0118,0.0471,0.051,0.0668,0.1139,0.0628,-0.0157,-0.1097,-0.1801,-0.2467,-0.3169,-0.3558,-0.4296,-0.5453,-0.6269,-0.7289,-0.8521,-0.8507,-0.8492,-0.8473,-0.8548,-0.8538,-0.8449,-0.8469,-0.8609,-0.8945,-0.8827,-0.8966,0.0,0.0146,0.0329,0.0331,0.0336,0.0379,0.0649,0.0853,0.0982,0.0982,0.1139,0.1375,0.1571,0.1611,0.1689,0.1925,0.2072,0.2185,0.2238,0.2386,0.2499,0.2512,0.2514,0.2514,0.2514,0.2529,0.2538,0.2538,0.2553,0.2568,0.2582,0.2582,0.2589,0.2601,0.2601,0.2601,0.2601,0.2374,0.2362,0.2562,0.2386,0.238,0.2538,0.2522,0.2514,0.2514,0.0,0.2514,0.2514,0.2514,0.2514,0.2475,0.2278,0.2318,0.2435,0.2082,0.2082,0.22,0.2003,0.2082,0.22,0.2003,0.1964,0.1964,0.1964,0.1957,0.1908,0.1675,0.1479,0.1204,0.0811,0.0856,0.0861,0.0425,0.031,0.0272,0.0039,0.0,0.0078,0.0272,0.0313,0.0393,0.0668,0.0707,0.0746,0.0942,0.0982,0.1139,0.1571,0.1454,0.1178,0.0824,0.0588,0.0314,-0.0039,-0.0274,-0.141,-0.3836,-0.5835,-0.6956,-0.6991,-0.7808,-0.8263,-0.817,-0.8393,-0.8365,-0.8084,-0.8262,-0.8463,-0.8649,-0.8664,-0.8723,0.0109,0.0366,0.0662,0.0819,0.0827,0.0836,0.1231,0.1362,0.1454,0.1454,0.1532,0.1689,0.2003,0.2043,0.216,0.2435,0.2514,0.2514,0.2514,0.2514,0.2514,0.2514,0.2514,0.2517,0.2523,0.2586,0.2603,0.261,0.2589,0.2605,0.2612,0.2612,0.2616,0.2623,0.2623,0.2623,0.2623,0.2623,0.2616,0.2601,0.2579,0.261,0.2608,0.2545,0.2534,0.2534,0.2534,0.2532,0.2525,0.2525,0.2521,0.2514,0.2514,0.2514,0.2514,0.2514,0.2514,0.2514,0.2514,0.2514,0.2514,0.2514,0.2514,0.2514,0.2514,0.2514,0.2435,0.2121,0.1834,0.1548,0.1351,0.1362,0.1331,0.0889,0.0773,0.0656,0.0343,0.0268,0.0385,0.0691,0.0735,0.0857,0.1207,0.1288,0.1291,0.1408,0.1411,0.1571,0.2003,0.1964,0.2043,0.2475,0.2396,0.2396,0.2475,0.2121,0.0863,-0.1645,-0.5011,-0.6463,-0.5519,-0.7131,-0.8002,-0.789,-0.8193,-0.8157,-0.7739,-0.8016,-0.8233,-0.8304,-0.8418,-0.8448,0.0438,0.0589,0.0783,0.1546,0.1438,0.1178,0.1269,0.1597,0.1846,0.1846,0.216,0.2435,0.2435,0.2475,0.2475,0.2514,0.2514,0.2514,0.2514,0.2514,0.2514,0.2514,0.2514,0.2526,0.2593,0.2599,0.2611,0.2597,0.2601,0.2613,0.2601,0.2602,0.2615,0.2686,0.2686,0.2686,0.2686,0.2686,0.2657,0.2601,0.26,0.2598,0.2598,0.2597,0.2596,0.2596,0.2596,0.2581,0.2596,0.2596,0.254,0.2514,0.2514,0.2514,0.2514,0.2514,0.2514,0.2514,0.2514,0.2514,0.2514,0.2514,0.2514,0.2514,0.2514,0.2514,0.2475,0.2475,0.2434,0.223,0.1509,0.1596,0.1762,0.1354,0.1245,0.1212,0.112,0.1118,0.1115,0.114,0.1176,0.1177,0.1215,0.1188,0.1352,0.1699,0.1832,0.2003,0.2396,0.2121,0.2043,0.2475,0.216,0.2082,0.2475,0.106,0.0746,0.2002,-0.2468,-0.5131,-0.5053,-0.6662,-0.756,-0.7556,-0.7556,-0.7552,-0.7505,-0.7496,-0.765,-0.8033,-0.7927,-0.807,0.0847,0.1148,0.1419,0.1791,0.1953,0.1998,0.2023,0.2153,0.2278,0.2278,0.2396,0.2514,0.2514,0.2514,0.2514,0.2514,0.2514,0.2514,0.2514,0.2514,0.2514,0.2514,0.2532,0.2586,0.2599,0.2593,0.2619,0.2589,0.2647,0.2662,0.2675,0.2675,0.268,0.2692,0.2692,0.2692,0.2692,0.2692,0.2682,0.2658,0.2639,0.2589,0.2589,0.2611,0.2601,0.2601,0.2601,0.2596,0.2586,0.2586,0.2579,0.2567,0.2549,0.2542,0.254,0.2521,0.2514,0.2514,0.2514,0.2514,0.2514,0.2514,0.2514,0.2514,0.2514,0.2514,0.2514,0.2514,0.2514,0.2433,0.211,0.2153,0.2153,0.178,0.1664,0.1587,0.1338,0.1265,0.1348,0.1571,0.1609,0.1647,0.1953,0.1986,0.1983,0.2135,0.2182,0.2266,0.242,0.2304,0.2272,0.2484,0.2347,0.2318,0.2475,0.1924,0.1806,0.2475,-0.1254,-0.3447,-0.3447,-0.5053,-0.6424,-0.7486,-0.7486,-0.7486,-0.7486,-0.7493,-0.7554,-0.7709,-0.7846,-0.7875,0.1296,0.1602,0.184,0.2033,0.2282,0.2489,0.251,0.2514,0.2514,0.2514,0.2514,0.2514,0.2514,0.2514,0.2514,0.2514,0.2514,0.2514,0.2514,0.2522,0.2529,0.2529,0.2555,0.2617,0.2586,0.2582,0.2609,0.262,0.268,0.2692,0.2692,0.2692,0.2692,0.2692,0.2692,0.2692,0.2692,0.2692,0.2692,0.2692,0.2672,0.262,0.262,0.2639,0.263,0.263,0.263,0.2624,0.2616,0.2616,0.2611,0.26,0.2581,0.2613,0.2611,0.2549,0.2542,0.2541,0.2532,0.2529,0.2527,0.2518,0.2514,0.2514,0.2514,0.2514,0.2514,0.2514,0.2514,0.2514,0.2514,0.2514,0.243,0.2138,0.2095,0.2011,0.1757,0.1687,0.1772,0.1995,0.2032,0.2109,0.2416,0.2438,0.2386,0.2386,0.2386,0.2386,0.2386,0.2386,0.2432,0.2453,0.2473,0.2489,0.2499,0.25,0.2504,0.2514,0.0353,-0.141,-0.2468,-0.4114,-0.5799,-0.7486,-0.7486,-0.7486,-0.7486,-0.7486,-0.7486,-0.7525,-0.7735,-0.7705,0.1704,0.1801,0.1899,0.2385,0.2492,0.2514,0.2514,0.2514,0.2514,0.2514,0.2514,0.2514,0.2514,0.2514,0.2514,0.2514,0.2514,0.2514,0.2515,0.2541,0.26,0.26,0.2585,0.2613,0.2603,0.2606,0.2618,0.269,0.2692,0.2692,0.2692,0.2692,0.2692,0.2692,0.2692,0.2692,0.2692,0.2692,0.2692,0.2692,0.2692,0.2692,0.2692,0.2692,0.2692,0.2692,0.2692,0.2675,0.2606,0.2606,0.2589,0.2602,0.2602,0.2602,0.2602,0.2601,0.2601,0.2598,0.261,0.26,0.2595,0.2525,0.2515,0.2515,0.2515,0.2515,0.2514,0.2514,0.2514,0.2514,0.2514,0.2514,0.2514,0.2514,0.2514,0.2506,0.2514,0.2507,0.2499,0.2431,0.2386,0.2386,0.2386,0.2386,0.2386,0.2386,0.2385,0.2385,0.2385,0.2385,0.2385,0.2385,0.2386,0.2436,0.2505,0.2507,0.2481,0.2511,0.2514,0.102,-0.235,-0.4075,-0.576,-0.7447,-0.7486,-0.7486,-0.7486,-0.7486,-0.7486,-0.7486,-0.7486,-0.7486,0.2102,0.2242,0.2308,0.2454,0.2507,0.2514,0.2514,0.2514,0.2514,0.2514,0.2514,0.2514,0.2514,0.2514,0.2514,0.2514,0.2514,0.2522,0.2584,0.2595,0.2607,0.2587,0.2616,0.2595,0.2605,0.2625,0.2683,0.2691,0.2692,0.2692,0.2692,0.2692,0.2692,0.2692,0.2692,0.2692,0.2692,0.2692,0.2692,0.2692,0.2692,0.2692,0.2692,0.2692,0.2692,0.2692,0.2692,0.2687,0.2679,0.2679,0.2673,0.2664,0.2601,0.2593,0.259,0.2609,0.2601,0.2601,0.2592,0.2589,0.2587,0.2578,0.2563,0.2586,0.2586,0.2532,0.2514,0.2514,0.2514,0.2514,0.2514,0.2514,0.2514,0.2514,0.2514,0.2512,0.2503,0.25,0.2499,0.2489,0.247,0.2455,0.2455,0.2438,0.2386,0.2386,0.2405,0.2384,0.2326,0.2379,0.2391,0.2391,0.241,0.2389,0.2436,0.2438,0.2442,0.2412,0.247,0.1517,-0.0666,-0.235,-0.4033,-0.5721,-0.6896,-0.7486,-0.7486,-0.7486,-0.7486,-0.7486,-0.7486,-0.7486,0.234,0.2446,0.2514,0.2507,0.2514,0.2514,0.2514,0.2514,0.2514,0.2514,0.2514,0.2514,0.2514,0.2514,0.2514,0.2514,0.2514,0.2525,0.2596,0.261,0.2587,0.2616,0.2605,0.2624,0.2624,0.2682,0.2692,0.2692,0.2692,0.2692,0.2692,0.2692,0.2692,0.2692,0.2692,0.2692,0.2692,0.2692,0.2692,0.2692,0.2692,0.2692,0.2692,0.2692,0.2692,0.2692,0.2692,0.2692,0.2692,0.2692,0.2692,0.2691,0.2672,0.2624,0.2621,0.2645,0.2638,0.2635,0.2624,0.262,0.2617,0.2605,0.259,0.2617,0.2617,0.2563,0.2547,0.2536,0.2533,0.253,0.2518,0.2514,0.2514,0.2514,0.2514,0.2514,0.2514,0.2514,0.2514,0.2514,0.25,0.2487,0.2487,0.2462,0.2442,0.2442,0.2416,0.2386,0.2354,0.2367,0.2373,0.2361,0.2376,0.2355,0.2405,0.2405,0.241,0.2385,0.244,0.1997,0.1005,-0.0624,-0.2624,-0.4936,-0.5994,-0.6818,-0.7486,-0.7486,-0.7486,-0.7486,-0.7486,-0.7486,0.242,0.245,0.2518,0.2507,0.2514,0.2514,0.2514,0.2514,0.2514,0.2514,0.2514,0.2514,0.2514,0.2514,0.2515,0.2518,0.2518,0.253,0.2603,0.259,0.2617,0.2606,0.2676,0.2692,0.2692,0.2692,0.2692,0.2692,0.2692,0.2692,0.2692,0.2692,0.2692,0.2692,0.2692,0.2692,0.2692,0.2692,0.2692,0.2692,0.2692,0.2692,0.2692,0.2692,0.2692,0.2692,0.2692,0.2692,0.2692,0.2692,0.2692,0.2692,0.2692,0.2692,0.2692,0.2692,0.2692,0.2688,0.262,0.261,0.2605,0.2619,0.2608,0.2605,0.2605,0.2604,0.2597,0.2611,0.2603,0.2596,0.2526,0.2518,0.2518,0.2515,0.2514,0.2514,0.2514,0.2514,0.2514,0.2514,0.2514,0.2514,0.2514,0.2491,0.251,0.2507,0.2446,0.2417,0.2386,0.2383,0.2371,0.2303,0.23,0.2348,0.2372,0.2373,0.2386,0.2375,0.2381,0.2382,0.2382,0.085,-0.1446,-0.4498,-0.4693,-0.5597,-0.7291,-0.7291,-0.7369,-0.7486,-0.7486,-0.7486,0.2451,0.2481,0.2506,0.2512,0.2514,0.2514,0.2514,0.2514,0.2514,0.2514,0.2514,0.2514,0.2514,0.2514,0.2522,0.2586,0.2589,0.2568,0.2579,0.2593,0.2607,0.2679,0.2688,0.2692,0.2692,0.2692,0.2692,0.2692,0.2692,0.2692,0.2692,0.2692,0.2692,0.2692,0.2692,0.2692,0.2692,0.2692,0.2692,0.2692,0.2692,0.2692,0.2692,0.2692,0.2692,0.2692,0.2692,0.2692,0.2692,0.2692,0.2692,0.2692,0.2692,0.2692,0.2692,0.2692,0.2692,0.2691,0.2686,0.2683,0.2682,0.2675,0.2657,0.2595,0.2595,0.262,0.26,0.2594,0.2593,0.2586,0.2597,0.2589,0.2584,0.2519,0.2514,0.2514,0.2514,0.2514,0.2514,0.2514,0.2514,0.2514,0.2514,0.2508,0.2496,0.2512,0.2502,0.2448,0.2417,0.2414,0.2402,0.2372,0.2368,0.2361,0.2307,0.2305,0.2308,0.2315,0.2375,0.2388,0.2388,0.0794,-0.0383,-0.1043,-0.2433,-0.3919,-0.5522,-0.5522,-0.6229,-0.7486,-0.7486,-0.7486,0.2503,0.2491,0.2514,0.2514,0.2514,0.2514,0.2514,0.2514,0.2514,0.2514,0.2514,0.2514,0.2514,0.2526,0.2541,0.2597,0.2611,0.2596,0.2599,0.2606,0.2617,0.2688,0.2692,0.2692,0.2692,0.2692,0.2692,0.2692,0.2692,0.2692,0.2692,0.2692,0.2692,0.2692,0.2692,0.2692,0.2692,0.2692,0.2692,0.2692,0.2692,0.2692,0.2692,0.2692,0.2692,0.2692,0.2692,0.2692,0.2692,0.2692,0.2692,0.2692,0.2692,0.2692,0.2692,0.2692,0.2692,0.2692,0.2692,0.2692,0.2692,0.2692,0.2682,0.2669,0.2669,0.2658,0.2642,0.2627,0.2582,0.2616,0.2587,0.262,0.2572,0.2542,0.2525,0.2514,0.2514,0.2514,0.2514,0.2514,0.2514,0.2514,0.2514,0.2514,0.2508,0.2493,0.2491,0.248,0.2448,0.2446,0.2433,0.2403,0.2399,0.2387,0.2357,0.2354,0.2348,0.2297,0.2348,0.2357,0.2357,0.1518,0.0712,-0.0038,-0.0954,-0.2225,-0.3845,-0.3845,-0.4712,-0.6307,-0.6307,-0.674,0.2514,0.2495,0.2514,0.2514,0.2514,0.2514,0.2514,0.2514,0.2514,0.2514,0.2514,0.2514,0.2514,0.254,0.2602,0.2606,0.259,0.262,0.2609,0.2613,0.2622,0.269,0.2692,0.2692,0.2692,0.2692,0.2692,0.2692,0.2692,0.2692,0.2692,0.2692,0.2692,0.2692,0.2692,0.2692,0.2692,0.2692,0.2692,0.2692,0.2692,0.2692,0.2692,0.2692,0.2692,0.2692,0.2692,0.2692,0.2692,0.2692,0.2692,0.2692,0.2692,0.2692,0.2692,0.2692,0.2692,0.2692,0.2692,0.2692,0.2692,0.2692,0.2692,0.2692,0.2692,0.2692,0.2687,0.2621,0.2613,0.2606,0.2617,0.2609,0.2602,0.2614,0.2548,0.2526,0.2517,0.2514,0.2514,0.2514,0.2514,0.2514,0.2514,0.2514,0.2514,0.2514,0.2514,0.2506,0.2518,0.2516,0.2465,0.2435,0.2431,0.2418,0.2388,0.2386,0.2373,0.2305,0.2304,0.2301,0.2296,0.2296,0.1656,0.0338,0.0339,-0.0493,-0.2186,-0.2186,-0.301,-0.4569,-0.4569,-0.5474,0.2502,0.2511,0.2514,0.2514,0.2514,0.2514,0.2514,0.2514,0.2514,0.2514,0.2514,0.2514,0.2514,0.254,0.2608,0.2592,0.2581,0.261,0.2682,0.2687,0.2688,0.2692,0.2692,0.2692,0.2692,0.2692,0.2692,0.2692,0.2692,0.2692,0.2692,0.2692,0.2692,0.2692,0.2692,0.2692,0.2692,0.2692,0.2692,0.2692,0.2692,0.2692,0.2692,0.2692,0.2692,0.2692,0.2692,0.2692,0.2692,0.2692,0.2692,0.2692,0.2692,0.2692,0.2692,0.2692,0.2692,0.2692,0.2692,0.2692,0.2692,0.2692,0.2692,0.2692,0.2692,0.2692,0.2691,0.2687,0.2687,0.2679,0.2607,0.2599,0.2593,0.2602,0.2593,0.2577,0.2525,0.2514,0.2514,0.2514,0.2514,0.2514,0.2514,0.2514,0.2514,0.2514,0.2514,0.2512,0.2508,0.2508,0.2496,0.2505,0.2502,0.245,0.242,0.2417,0.2405,0.2373,0.2372,0.236,0.2297,0.2296,0.2191,0.1977,0.2037,0.1236,-0.0417,-0.0417,-0.1296,-0.293,-0.293,-0.38,0.4151,0.3883,0.3687,0.2749,0.2514,0.2514,0.2514,0.2514,0.2514,0.2514,0.2514,0.2519,0.2537,0.2563,0.2593,0.2581,0.2653,0.2677,0.2691,0.2692,0.2692,0.2692,0.2692,0.2692,0.2692,0.2692,0.2692,0.2692,0.2692,0.2692,0.2692,0.2692,0.2692,0.2692,0.2692,0.2692,0.2692,0.2692,0.2692,0.2692,0.2692,0.2692,0.2692,0.2692,0.2692,0.2692,0.2692,0.2692,0.2692,0.2692,0.2692,0.2692,0.2692,0.2692,0.2692,0.2692,0.2692,0.2692,0.2692,0.2692,0.2692,0.2692,0.2692,0.2692,0.2692,0.2692,0.2692,0.2692,0.2692,0.269,0.2676,0.2672,0.2665,0.2593,0.2586,0.2574,0.2572,0.2551,0.2534,0.2518,0.2514,0.2514,0.2514,0.2514,0.2514,0.2514,0.2514,0.2514,0.2514,0.2514,0.2508,0.2496,0.2495,0.2482,0.2451,0.2448,0.2436,0.2405,0.2403,0.239,0.236,0.2358,0.235,0.2296,0.2346,0.1997,0.131,0.131,0.0452,-0.1181,-0.1181,-0.2069,0.5327,0.4701,0.4077,0.2828,0.2514,0.2514,0.2514,0.2514,0.2514,0.2514,0.2514,0.2526,0.2603,0.2587,0.2612,0.2601,0.2672,0.2692,0.2692,0.2692,0.2692,0.2692,0.2692,0.2692,0.2692,0.2692,0.2692,0.2692,0.2692,0.2692,0.2692,0.2692,0.2692,0.2692,0.2692,0.2692,0.2692,0.2692,0.2692,0.2692,0.2692,0.2692,0.2692,0.2692,0.2692,0.2692,0.2692,0.2692,0.2692,0.2692,0.2692,0.2692,0.2692,0.2692,0.2692,0.2692,0.2692,0.2692,0.2692,0.2692,0.2692,0.2692,0.2692,0.2692,0.2692,0.2692,0.2692,0.2692,0.2692,0.2692,0.2692,0.2692,0.2687,0.2622,0.2617,0.2606,0.2611,0.2585,0.2602,0.2532,0.2526,0.2523,0.2515,0.2514,0.2514,0.2514,0.2514,0.2514,0.2514,0.2514,0.2514,0.2514,0.2514,0.2506,0.2482,0.2518,0.2467,0.2438,0.2435,0.2421,0.2391,0.239,0.2375,0.2308,0.2308,0.2352,0.2367,0.2367,0.1748,0.0527,0.0527,-0.0379,0.5014,0.3844,0.2592,0.2514,0.2514,0.2514,0.2514,0.2514,0.2514,0.2514,0.2514,0.2532,0.2589,0.2601,0.2612,0.2601,0.2672,0.2692,0.2692,0.2692,0.2692,0.2692,0.2692,0.2692,0.2692,0.2692,0.2692,0.2692,0.2692,0.2692,0.2692,0.2692,0.2692,0.2692,0.2692,0.2692,0.2692,0.2692,0.2692,0.2692,0.2692,0.2692,0.2692,0.2692,0.2692,0.2692,0.2692,0.2692,0.2692,0.2692,0.2692,0.2692,0.2692,0.2692,0.2692,0.2692,0.2692,0.2692,0.2692,0.2692,0.2692,0.2692,0.2692,0.2692,0.2692,0.2692,0.2692,0.2692,0.2692,0.2692,0.2692,0.2692,0.2692,0.269,0.269,0.2673,0.2615,0.2601,0.2592,0.2603,0.2597,0.2588,0.2519,0.2514,0.2514,0.2514,0.2514,0.2514,0.2514,0.2514,0.2514,0.2514,0.2514,0.2514,0.2512,0.2512,0.2499,0.2507,0.2505,0.2453,0.2385,0.2383,0.2406,0.2413,0.2413,0.2363,0.2299,0.2299,0.2277,0.2269,0.2269,0.1384,0.5287,0.4547,0.3844,0.2789,0.2514,0.2514,0.2514,0.2514,0.2514,0.2514,0.253,0.2556,0.2594,0.2601,0.2617,0.2668,0.2686,0.2692,0.2692,0.2692,0.2692,0.2692,0.2692,0.2692,0.2692,0.2692,0.2692,0.2692,0.2692,0.2692,0.2692,0.2692,0.2692,0.2692,0.2692,0.2692,0.2692,0.2692,0.2692,0.2692,0.2692,0.2692,0.2692,0.2692,0.2692,0.2692,0.2692,0.2692,0.2692,0.2692,0.2692,0.2692,0.2692,0.2692,0.2692,0.2692,0.2692,0.2692,0.2692,0.2692,0.2692,0.2692,0.2692,0.2692,0.2692,0.2692,0.2692,0.2692,0.2692,0.2692,0.2692,0.2692,0.2692,0.2692,0.2692,0.2687,0.2664,0.2645,0.2581,0.2592,0.2586,0.2578,0.2548,0.2584,0.2537,0.2517,0.2514,0.2514,0.2514,0.2514,0.2514,0.2514,0.2514,0.2514,0.2514,0.2514,0.251,0.2499,0.2497,0.2484,0.2454,0.2453,0.2438,0.2408,0.2408,0.2383,0.2296,0.2296,0.2301,0.2349,0.2349,0.2032,0.6147,0.5016,0.3883,0.2789,0.2514,0.2514,0.2514,0.2514,0.2514,0.2514,0.253,0.2556,0.2594,0.2601,0.2622,0.2683,0.2692,0.2692,0.2692,0.2692,0.2692,0.2692,0.2692,0.2692,0.2692,0.2692,0.2692,0.2692,0.2692,0.2692,0.2692,0.2692,0.2692,0.2692,0.2692,0.2692,0.2692,0.2692,0.2692,0.2692,0.2692,0.2692,0.2692,0.2692,0.2692,0.2692,0.2692,0.2692,0.2692,0.2692,0.2692,0.2692,0.2692,0.2692,0.2692,0.2692,0.2692,0.2692,0.2692,0.2692,0.2692,0.2692,0.2692,0.2692,0.2692,0.2692,0.2692,0.2692,0.2692,0.2692,0.2692,0.2692,0.2692,0.2692,0.2692,0.2692,0.2692,0.2676,0.2611,0.2623,0.2617,0.2608,0.262,0.2614,0.2603,0.2534,0.253,0.2526,0.2515,0.2514,0.2514,0.2514,0.2514,0.2514,0.2514,0.2514,0.2514,0.2514,0.2514,0.2506,0.2485,0.2484,0.247,0.2439,0.2439,0.2414,0.2326,0.2316,0.2307,0.2296,0.2296,0.2307,0.0,0.0,0.0,0.2592,0.2592,0.2553,0.2514,0.2514,0.2514,0.2514,0.2515,0.2533,0.259,0.2602,0.2622,0.2682,0.2691,0.2692,0.2692,0.2692,0.2692,0.2692,0.2692,0.2692,0.2692,0.2692,0.2692,0.2692,0.2692,0.2692,0.2692,0.2692,0.2692,0.2692,0.2692,0.2692,0.2692,0.2692,0.2692,0.2692,0.2694,0.2694,0.2694,0.2695,0.2695,0.2695,0.2695,0.2695,0.2694,0.2692,0.2692,0.2692,0.2692,0.2692,0.2692,0.2692,0.2692,0.2692,0.2692,0.2692,0.2692,0.2692,0.2692,0.2692,0.2692,0.2692,0.2692,0.2692,0.2692,0.2692,0.2692,0.2692,0.2692,0.2692,0.2692,0.2692,0.2692,0.2692,0.2684,0.2613,0.2607,0.2597,0.2608,0.2602,0.2593,0.2606,0.2602,0.2589,0.2519,0.2515,0.2515,0.2514,0.2514,0.2514,0.2514,0.2514,0.2514,0.2514,0.2514,0.2514,0.2514,0.2514,0.25,0.2509,0.247,0.2455,0.2387,0.2394,0.2363,0.2297,0.2296,0.2296,0.7513,0.0,0.0,0.0,0.0,0.0,0.2789,0.2514,0.2514,0.2514,0.2532,0.2592,0.2608,0.2605,0.2599,0.2615,0.2677,0.2692,0.2692,0.2692,0.2692,0.2692,0.2692,0.2692,0.2692,0.2692,0.2692,0.2692,0.2692,0.2692,0.2692,0.2692,0.2692,0.2692,0.2692,0.2692,0.2692,0.2692,0.2692,0.2692,0.2714,0.2683,0.2684,0.2748,0.2758,0.2758,0.2758,0.2746,0.2681,0.2702,0.2692,0.2692,0.2692,0.2692,0.2692,0.2692,0.2692,0.2692,0.2692,0.2692,0.2692,0.2692,0.2692,0.2692,0.2692,0.2692,0.2692,0.2692,0.2692,0.2692,0.2692,0.2692,0.2692,0.2692,0.2692,0.2692,0.2692,0.2692,0.269,0.2682,0.268,0.2671,0.2598,0.2593,0.2583,0.2594,0.259,0.2579,0.259,0.2586,0.2538,0.2517,0.2514,0.2514,0.2514,0.2514,0.2514,0.2514,0.2514,0.2514,0.2514,0.2514,0.251,0.2502,0.2228,0.2215,0.2457,0.2441,0.2373,0.2365,0.2307,0.2296,0.8526,0.802,0.7084,0.5405,0.0,0.0,0.2866,0.2514,0.2514,0.2514,0.2529,0.2585,0.2597,0.2587,0.2619,0.2602,0.2621,0.2677,0.2691,0.2692,0.2692,0.2692,0.2692,0.2692,0.2692,0.2692,0.2692,0.2692,0.2692,0.2692,0.2692,0.2692,0.2692,0.2692,0.2692,0.2692,0.2692,0.2705,0.2712,0.2712,0.2743,0.2757,0.2758,0.2776,0.2784,0.2784,0.2784,0.2773,0.2755,0.2737,0.2716,0.2692,0.2692,0.2692,0.2692,0.2692,0.2692,0.2692,0.2692,0.2692,0.2692,0.2692,0.2692,0.2692,0.2692,0.2692,0.2692,0.2692,0.2692,0.2692,0.2692,0.2692,0.2692,0.2692,0.2692,0.2692,0.2692,0.2692,0.2692,0.2692,0.2692,0.2687,0.2628,0.2624,0.2614,0.2585,0.262,0.2611,0.2581,0.2617,0.2566,0.2536,0.2533,0.2529,0.2515,0.2514,0.2514,0.2514,0.2514,0.2514,0.2514,0.2514,0.2435,0.2239,0.22,0.2187,0.2199,0.2167,0.2252,0.2415,0.236,0.2345,1.028,0.9187,0.0,0.5991,0.5405,0.0,0.3179,0.2632,0.2514,0.2514,0.2514,0.2522,0.2589,0.2597,0.2617,0.2587,0.2599,0.2613,0.2687,0.2692,0.2692,0.2692,0.2692,0.2692,0.2692,0.2692,0.2692,0.2692,0.2692,0.2692,0.2692,0.2692,0.2692,0.2692,0.2692,0.2692,0.2692,0.268,0.2695,0.2695,0.2772,0.2788,0.2788,0.2792,0.2793,0.2793,0.2793,0.2791,0.2788,0.2788,0.2754,0.2702,0.2702,0.2702,0.2702,0.2702,0.2701,0.2698,0.2698,0.2695,0.2692,0.2692,0.2692,0.2692,0.2692,0.2692,0.2692,0.2692,0.2692,0.2692,0.2692,0.2692,0.2692,0.2692,0.2692,0.2692,0.2692,0.2692,0.2692,0.2692,0.2692,0.2692,0.2692,0.2692,0.2683,0.2614,0.261,0.2599,0.2611,0.2607,0.2596,0.2607,0.2604,0.2592,0.2522,0.2519,0.2479,0.2437,0.2475,0.2475,0.2435,0.2435,0.2278,0.1925,0.22,0.2149,0.1662,0.1814,0.202,0.2346,0.2383,0.2367,1.1992,1.176,1.1134,0.9459,0.802,0.0,0.4896,0.3452,0.2514,0.2514,0.2514,0.2517,0.2522,0.2584,0.2603,0.2615,0.2596,0.263,0.2684,0.2692,0.2692,0.2692,0.2692,0.2692,0.2692,0.2692,0.2692,0.2692,0.2692,0.2692,0.2692,0.2692,0.2692,0.2692,0.2692,0.2692,0.2692,0.268,0.2695,0.2696,0.275,0.2819,0.2821,0.2845,0.2901,0.2901,0.2901,0.2842,0.2819,0.2819,0.2799,0.2766,0.2766,0.2766,0.2766,0.2766,0.275,0.2687,0.2687,0.2713,0.2692,0.2692,0.2692,0.2692,0.2692,0.2692,0.2692,0.2692,0.2692,0.2692,0.2692,0.2692,0.2692,0.2692,0.2692,0.2692,0.2692,0.2692,0.2692,0.2692,0.2692,0.2692,0.2692,0.2692,0.269,0.2684,0.2684,0.2672,0.2601,0.2597,0.2586,0.2597,0.2593,0.2582,0.2593,0.259,0.2421,0.2044,0.2318,0.2357,0.2043,0.2003,0.1964,0.1886,0.165,0.1294,0.0822,0.186,0.222,0.1924,0.2263,0.2398,1.2501,1.2501,1.2114,1.0436,0.9382,0.0,0.0,0.4351,0.3491,0.2671,0.2514,0.2514,0.2514,0.2527,0.2542,0.2597,0.2611,0.2597,0.2641,0.266,0.2675,0.2691,0.2692,0.2692,0.2692,0.2692,0.2692,0.2692,0.2692,0.2692,0.2692,0.2692,0.2692,0.2692,0.2692,0.2692,0.2692,0.2737,0.2761,0.2761,0.2822,0.2852,0.2852,0.2867,0.2919,0.2919,0.2919,0.2866,0.2852,0.2852,0.2842,0.2826,0.2795,0.2784,0.2784,0.2784,0.2773,0.2761,0.2761,0.275,0.2735,0.272,0.2716,0.2713,0.2697,0.2692,0.2692,0.2692,0.2692,0.2692,0.2692,0.2692,0.2692,0.2692,0.2692,0.2692,0.2692,0.2692,0.2692,0.2692,0.2692,0.2692,0.2692,0.2692,0.2692,0.2692,0.2692,0.2687,0.2672,0.2669,0.2617,0.2586,0.2419,0.2286,0.2262,0.2247,0.2074,0.1625,0.197,0.2003,0.1611,0.1611,0.1611,0.1611,0.1178,0.0825,0.0589,0.1483,0.1857,0.1796,0.2025,0.2202,1.2501,1.2501,1.2192,1.0823,1.0241,0.9304,0.0,0.0,0.0,0.3258,0.271,0.2514,0.2514,0.2514,0.2522,0.2586,0.259,0.2602,0.2589,0.2615,0.2602,0.2679,0.2688,0.2692,0.2692,0.2692,0.2692,0.2692,0.2692,0.2692,0.2692,0.2692,0.2692,0.2692,0.2692,0.2692,0.2692,0.2752,0.2784,0.2784,0.289,0.2919,0.2919,0.2919,0.2919,0.2919,0.2919,0.2919,0.2919,0.2919,0.2919,0.2914,0.2819,0.28,0.28,0.28,0.2797,0.2792,0.2792,0.2788,0.278,0.2755,0.2704,0.2699,0.271,0.2701,0.2701,0.2694,0.2692,0.2692,0.2692,0.2692,0.2692,0.2692,0.2692,0.2692,0.2692,0.2692,0.2692,0.2692,0.2692,0.2692,0.2692,0.2692,0.2692,0.2692,0.2692,0.2692,0.2692,0.2692,0.2641,0.2492,0.2282,0.2065,0.192,0.1902,0.1729,0.1324,0.1587,0.1616,0.1182,0.118,0.1139,0.106,0.0668,0.0471,0.0471,0.0864,0.1289,0.1703,0.1703,0.1961,1.2501,1.2501,1.2463,1.2269,1.1095,0.9892,0.9537,0.0,0.4936,0.474,0.0,0.2514,0.2514,0.0,0.0,0.2519,0.2519,0.253,0.26,0.2607,0.259,0.2605,0.2676,0.2692,0.2692,0.2692,0.2692,0.2692,0.2692,0.2692,0.2692,0.2692,0.2692,0.2692,0.2692,0.2692,0.2692,0.2752,0.2784,0.2784,0.289,0.2919,0.2919,0.2919,0.2919,0.2919,0.2919,0.2919,0.2919,0.2919,0.2919,0.2919,0.2912,0.2909,0.2909,0.2909,0.2846,0.2779,0.2779,0.2806,0.2782,0.278,0.2778,0.2773,0.2699,0.2689,0.2684,0.2701,0.2692,0.2692,0.2692,0.2692,0.2692,0.2692,0.2692,0.2692,0.2692,0.2692,0.2692,0.2692,0.2692,0.2692,0.2692,0.2692,0.2692,0.2692,0.2692,0.2692,0.2692,0.2692,0.2523,0.2099,0.2393,0.2466,0.2025,0.1979,0.1805,0.1341,0.1325,0.1157,0.0718,0.0671,0.051,0.0157,0.0079,0.0079,0.0079,0.0118,0.0549,0.1372,0.1372,0.1752,1.2805,1.2705,1.263,1.263,0.0,0.0,1.0203,0.0,0.7353,0.5405,0.0,0.0,0.0,0.0,0.0,0.0,0.2514,0.2519,0.2532,0.2588,0.2582,0.2599,0.2617,0.2673,0.2691,0.2692,0.2692,0.2692,0.2692,0.2692,0.2692,0.2692,0.2692,0.2692,0.2692,0.2692,0.2692,0.2752,0.2784,0.2784,0.289,0.2919,0.2919,0.2919,0.2919,0.2919,0.2919,0.2919,0.2919,0.2919,0.2919,0.2919,0.2919,0.2919,0.2919,0.2919,0.2866,0.2855,0.2855,0.2846,0.2833,0.2815,0.2797,0.2781,0.2769,0.2763,0.2758,0.2728,0.2718,0.2714,0.2697,0.2692,0.2692,0.2692,0.2692,0.2692,0.2692,0.2692,0.2692,0.2692,0.2692,0.2692,0.2692,0.2692,0.2692,0.2692,0.2692,0.2692,0.2692,0.2692,0.2524,0.2061,0.1934,0.1722,0.1296,0.1205,0.0991,0.0576,0.0566,0.044,0.028,0.0237,0.0157,0.0,0.0,0.0,0.0,0.0,0.0315,0.0912,0.0906,0.1331,1.3003,0.0,0.0,0.0,0.0,0.0,0.0,0.0,0.0,0.0,0.5639,0.0,0.0,0.0,0.2514,0.2514,0.0,0.2514,0.2514,0.2533,0.2566,0.2617,0.2595,0.2614,0.2677,0.2687,0.2692,0.2692,0.2692,0.2692,0.2692,0.2692,0.2692,0.2692,0.2692,0.2692,0.2692,0.2752,0.2784,0.2784,0.289,0.2919,0.2919,0.2919,0.2919,0.2919,0.2919,0.2919,0.2919,0.2919,0.2919,0.2919,0.2919,0.2919,0.2919,0.2919,0.2919,0.2919,0.2919,0.2919,0.2871,0.2848,0.2826,0.2807,0.2799,0.2796,0.2789,0.2759,0.2707,0.2743,0.2713,0.2705,0.2703,0.2695,0.2692,0.2692,0.2692,0.2692,0.2692,0.2692,0.2692,0.2692,0.2692,0.2692,0.2692,0.2692,0.2608,0.2524,0.2524,0.2398,0.2146,0.1683,0.143,0.1136,0.0716,0.0669,0.0457,0.0041,0.0,0.0,0.0,0.0,0.0,0.0,0.0,0.0,0.0,0.0,0.0159,0.044,0.0436,0.0949,0.0,0.0,0.0,1.2996,0.0,0.0,0.0,0.0,1.015,0.0,0.0,0.0,0.0,0.0,0.0,0.0,0.2514,0.0,0.0,0.2515,0.2527,0.2599,0.2612,0.2606,0.2607,0.2675,0.2692,0.2692,0.2692,0.2692,0.2692,0.2692,0.2692,0.2692,0.2692,0.2692,0.2692,0.2752,0.2784,0.2784,0.289,0.2919,0.2919,0.2919,0.2919,0.2919,0.2919,0.2919,0.2919,0.2919,0.2919,0.2919,0.2919,0.2919,0.2919,0.2919,0.2919,0.2919,0.2919,0.2919,0.2919,0.2917,0.2917,0.2866,0.2836,0.2783,0.2821,0.2791,0.2782,0.2774,0.2701,0.2693,0.2687,0.2699,0.2692,0.2692,0.2692,0.2692,0.2692,0.2692,0.2692,0.2692,0.2692,0.2692,0.2692,0.2692,0.2314,0.2018,0.2018,0.164,0.1178,0.08,0.1094,0.1136,0.0716,0.0716,0.0503,0.0041,0.0,0.0,0.0,0.0,0.0,0.0,0.0,0.0,0.0,0.0,0.0,0.0,0.0,0.0683,0.0,0.0,1.3139,1.3139,0.0,0.0,0.0,0.0,0.0,0.0,0.0,0.0,0.0,0.0,0.0,0.0,0.0,0.2514,0.0,0.2514,0.2518,0.2529,0.2581,0.2585,0.2603,0.2615,0.2671,0.2691,0.2692,0.2692,0.2692,0.2692,0.2692,0.2692,0.2692,0.2692,0.2692,0.2733,0.2763,0.2784,0.2825,0.2855,0.2919,0.2919,0.2919,0.2919,0.2919,0.2919,0.2919,0.2919,0.2919,0.2919,0.2919,0.2919,0.2919,0.2919,0.2919,0.2919,0.2919,0.2919,0.2919,0.2919,0.2919,0.2917,0.2861,0.2859,0.2852,0.2822,0.2814,0.2806,0.2776,0.2752,0.2692,0.2683,0.2707,0.2692,0.2692,0.2692,0.2692,0.2692,0.2692,0.2692,0.2692,0.244,0.2356,0.265,0.2314,0.2018,0.2018,0.185,0.1473,0.0758,0.0842,0.0716,0.0295,0.0253,0.0168,0.0,0.0,0.0,0.0,0.0,0.0,0.0,0.0,0.0,0.0,0.0,0.0,0.0,0.0,0.0368,1.3403,1.3329,0.0,1.3254,1.3227,0.0,1.3091,0.0,1.2574,0.0,0.0,0.0,0.0,0.0,0.0,0.0,0.0,0.0,0.0,0.2514,0.2514,0.2514,0.2557,0.2598,0.2587,0.2599,0.2618,0.269,0.2692,0.2692,0.2692,0.2692,0.2692,0.2692,0.2692,0.2692,0.2692,0.268,0.2754,0.2784,0.2814,0.2845,0.2919,0.2919,0.2919,0.2919,0.2919,0.2919,0.2919,0.2919,0.2919,0.2919,0.2919,0.2919,0.2919,0.2919,0.2919,0.2919,0.2919,0.2919,0.2919,0.2919,0.2919,0.2919,0.2919,0.2919,0.287,0.2851,0.2845,0.2838,0.2807,0.2785,0.2724,0.2757,0.2731,0.2709,0.2709,0.2701,0.2692,0.2692,0.2692,0.2692,0.2692,0.2188,0.1892,0.2398,0.2061,0.1682,0.1557,0.1557,0.1262,0.0547,0.0463,0.0337,0.0042,0.0,0.0,0.0,0.0,0.0,0.0,0.0,0.0,0.0,0.0,0.0,0.0,0.0,0.0,0.0,0.0,0.0124]},{"header":{"parameterUnit":"m.s-1","parameterCategory":1,"la1":30.6,"la2":29.2853,"lo1":-89.7004,"lo2":-87.6739,"dy":0.0162,"dx":0.0183,"nx":112,"ny":82,"refTime":"2023-04-20T12:00:00:Z","depth":0,"parameterNumber":3,"parameterNumberName":"V-component_of_WINDS"},"data":[0.0,0.0,0.0,0.0,0.0,0.0,0.0,0.0,0.0,0.0,0.0,0.0,0.0,0.0,0.0,0.0,0.0,0.0,0.0,0.0,0.0,0.0,0.0,0.0,0.0,0.0,0.0,0.0,0.0,0.0,0.0,0.0,0.0,0.0,0.0,0.0,0.0,0.0,0.0,0.0,0.0,0.0,0.0,0.0,0.0,0.0,0.0,0.0,0.0,0.0,0.0,0.0,0.0,0.0,0.0,0.0,0.0,0.0,0.0,0.0,0.0,0.0,0.0,0.0,0.0,0.0,0.0,0.0,0.0,0.0,0.0,0.0,0.0,0.0,0.0,0.0,0.0,0.0,0.0,0.0,0.0,0.0,0.0,0.0,0.0,0.0,0.0,0.0,0.0,0.0,3.4565,3.4541,3.4488,3.4472,3.4472,3.4472,3.4488,3.4565,0.0,0.0,0.0,0.0,0.0,0.0,0.0,0.0,0.0,0.0,0.0,0.0,0.0,0.0,0.0,0.0,0.0,0.0,0.0,0.0,0.0,0.0,0.0,0.0,0.0,0.0,0.0,0.0,0.0,0.0,0.0,0.0,0.0,0.0,0.0,0.0,0.0,0.0,0.0,0.0,0.0,0.0,0.0,0.0,0.0,0.0,0.0,0.0,0.0,0.0,0.0,0.0,0.0,0.0,0.0,0.0,0.0,0.0,0.0,0.0,0.0,0.0,0.0,0.0,0.0,0.0,0.0,0.0,0.0,0.0,0.0,0.0,0.0,0.0,0.0,0.0,0.0,0.0,0.0,0.0,0.0,0.0,0.0,0.0,0.0,0.0,0.0,0.0,0.0,0.0,0.0,0.0,0.0,0.0,0.0,0.0,0.0,0.0,0.0,0.0,0.0,0.0,0.0,0.0,3.4485,3.4374,3.4337,3.4337,3.4337,3.4337,3.4386,3.4521,0.0,0.0,0.0,0.0,0.0,0.0,0.0,0.0,0.0,0.0,0.0,0.0,0.0,0.0,0.0,0.0,0.0,0.0,0.0,0.0,0.0,0.0,0.0,0.0,0.0,0.0,0.0,0.0,0.0,0.0,0.0,0.0,0.0,0.0,0.0,0.0,0.0,0.0,0.0,0.0,0.0,0.0,0.0,0.0,0.0,0.0,0.0,0.0,0.0,0.0,0.0,0.0,0.0,0.0,0.0,0.0,0.0,0.0,0.0,0.0,0.0,0.0,0.0,0.0,0.0,0.0,0.0,0.0,0.0,0.0,0.0,0.0,0.0,0.0,0.0,0.0,0.0,0.0,0.0,0.0,0.0,0.0,0.0,0.0,0.0,0.0,0.0,0.0,0.0,0.0,0.0,0.0,0.0,0.0,0.0,0.0,0.0,0.0,0.0,0.0,0.0,0.0,0.0,3.5522,3.5611,3.5069,3.4991,3.4991,3.4991,3.4991,3.5071,3.52,3.5224,0.0,0.0,0.0,0.0,0.0,0.0,0.0,0.0,0.0,0.0,0.0,0.0,0.0,0.0,0.0,0.0,0.0,0.0,0.0,0.0,0.0,0.0,0.0,0.0,0.0,0.0,0.0,0.0,0.0,0.0,0.0,0.0,0.0,0.0,0.0,0.0,0.0,0.0,0.0,0.0,0.0,0.0,0.0,0.0,0.0,0.0,0.0,0.0,0.0,0.0,0.0,0.0,0.0,0.0,0.0,0.0,0.0,0.0,0.0,0.0,0.0,0.0,0.0,0.0,0.0,0.0,0.0,0.0,0.0,0.0,0.0,0.0,0.0,0.0,0.0,0.0,0.0,0.0,0.0,0.0,0.0,0.0,0.0,0.0,0.0,0.0,0.0,0.0,0.0,0.0,0.0,0.0,0.0,0.0,0.0,0.0,0.0,0.0,0.0,0.0,0.0,0.0,3.6831,3.6899,3.6231,3.614,3.614,3.614,3.5983,3.5915,3.6016,3.5847,0.0,0.0,0.0,0.0,0.0,0.0,0.0,0.0,0.0,0.0,0.0,0.0,0.0,0.0,0.0,0.0,0.0,0.0,0.0,0.0,0.0,0.0,0.0,0.0,0.0,0.0,0.0,0.0,0.0,0.0,0.0,0.0,0.0,0.0,0.0,0.0,0.0,0.0,0.0,0.0,0.0,0.0,0.0,0.0,0.0,0.0,0.0,0.0,0.0,0.0,0.0,0.0,0.0,0.0,0.0,0.0,0.0,0.0,0.0,0.0,0.0,0.0,0.0,0.0,0.0,0.0,0.0,0.0,0.0,0.0,0.0,0.0,0.0,0.0,0.0,0.0,0.0,0.0,0.0,0.0,0.0,0.0,0.0,0.0,0.0,0.0,0.0,0.0,0.0,0.0,0.0,0.0,0.0,0.0,0.0,0.0,0.0,0.0,0.0,0.0,0.0,0.0,3.7917,3.7941,3.7765,3.7741,3.7741,3.7741,3.7122,3.6728,3.6728,3.6028,0.0,0.0,0.0,0.0,0.0,0.0,0.0,0.0,0.0,0.0,0.0,0.0,0.0,0.0,0.0,0.0,0.0,0.0,0.0,0.0,0.0,0.0,0.0,0.0,0.0,0.0,0.0,0.0,0.0,0.0,0.0,0.0,0.0,0.0,0.0,0.0,0.0,0.0,0.0,0.0,0.0,0.0,0.0,0.0,0.0,0.0,0.0,0.0,0.0,0.0,0.0,0.0,0.0,0.0,0.0,0.0,0.0,0.0,0.0,0.0,0.0,0.0,0.0,0.0,0.0,0.0,0.0,0.0,0.0,0.0,0.0,0.0,0.0,0.0,0.0,0.0,0.0,0.0,0.0,0.0,0.0,0.0,0.0,0.0,0.0,0.0,0.0,0.0,0.0,0.0,0.0,0.0,0.0,0.0,0.0,0.0,0.0,0.0,0.0,0.0,0.0,0.0,3.8462,3.8576,3.8087,3.7936,3.791,3.791,3.7652,3.7483,3.7483,0.0,0.0,0.0,0.0,0.0,0.0,0.0,0.0,0.0,0.0,0.0,0.0,0.0,0.0,0.0,0.0,0.0,0.0,0.0,0.0,0.0,0.0,0.0,0.0,0.0,0.0,0.0,0.0,0.0,0.0,0.0,0.0,0.0,0.0,0.0,0.0,0.0,0.0,0.0,0.0,0.0,0.0,0.0,0.0,0.0,0.0,0.0,0.0,0.0,0.0,0.0,0.0,0.0,0.0,0.0,0.0,0.0,0.0,0.0,0.0,0.0,0.0,0.0,0.0,0.0,0.0,0.0,0.0,0.0,0.0,0.0,0.0,0.0,0.0,0.0,0.0,0.0,0.0,0.0,0.0,0.0,0.0,0.0,0.0,0.0,0.0,0.0,0.0,0.0,0.0,0.0,0.0,0.0,0.0,0.0,0.0,0.0,0.0,0.0,0.0,0.0,0.0,3.9111,3.9438,3.9505,3.9099,3.8853,3.8732,3.8732,3.8528,3.8381,3.8381,0.0,0.0,0.0,0.0,0.0,0.0,0.0,0.0,0.0,0.0,0.0,0.0,0.0,0.0,0.0,0.0,0.0,0.0,0.0,0.0,0.0,0.0,0.0,0.0,0.0,0.0,0.0,0.0,0.0,0.0,0.0,0.0,0.0,0.0,0.0,0.0,0.0,0.0,0.0,0.0,0.0,0.0,0.0,0.0,0.0,0.0,0.0,0.0,0.0,0.0,0.0,0.0,0.0,0.0,0.0,0.0,0.0,0.0,0.0,0.0,0.0,0.0,0.0,0.0,0.0,0.0,0.0,0.0,0.0,0.0,0.0,0.0,0.0,0.0,0.0,0.0,0.0,0.0,0.0,0.0,0.0,0.0,0.0,0.0,0.0,0.0,0.0,0.0,0.0,0.0,0.0,0.0,0.0,0.0,0.0,0.0,0.0,0.0,0.0,0.0,0.0,0.0,4.1071,4.0884,4.0789,4.1082,4.0731,4.0522,4.0522,3.9838,3.9428,0.0,0.0,0.0,0.0,0.0,0.0,0.0,0.0,0.0,0.0,0.0,0.0,0.0,0.0,0.0,0.0,0.0,0.0,0.0,0.0,0.0,0.0,0.0,0.0,0.0,0.0,0.0,0.0,0.0,0.0,0.0,0.0,0.0,0.0,0.0,0.0,0.0,0.0,0.0,0.0,0.0,0.0,0.0,0.0,0.0,0.0,0.0,0.0,0.0,0.0,0.0,0.0,0.0,0.0,0.0,0.0,0.0,0.0,0.0,0.0,0.0,0.0,0.0,0.0,0.0,0.0,0.0,0.0,0.0,0.0,0.0,0.0,0.0,0.0,0.0,0.0,0.0,0.0,0.0,0.0,0.0,0.0,0.0,0.0,0.0,0.0,0.0,0.0,0.0,0.0,0.0,0.0,0.0,0.0,0.0,0.0,0.0,0.0,0.0,0.0,0.0,0.0,0.0,4.1253,4.1162,4.1139,4.1242,4.1047,4.0908,4.0908,4.1032,4.0949,4.062,0.0,0.0,0.0,0.0,0.0,0.0,0.0,0.0,0.0,0.0,0.0,0.0,0.0,0.0,0.0,0.0,0.0,0.0,0.0,0.0,0.0,0.0,0.0,0.0,0.0,0.0,0.0,0.0,0.0,0.0,0.0,0.0,0.0,0.0,0.0,0.0,0.0,0.0,0.0,0.0,0.0,0.0,0.0,0.0,0.0,0.0,0.0,0.0,0.0,0.0,0.0,0.0,0.0,0.0,0.0,0.0,0.0,0.0,0.0,0.0,0.0,0.0,0.0,0.0,0.0,0.0,0.0,0.0,0.0,0.0,0.0,0.0,0.0,0.0,0.0,0.0,0.0,0.0,0.0,0.0,0.0,0.0,0.0,0.0,0.0,0.0,0.0,0.0,0.0,0.0,0.0,0.0,0.0,0.0,0.0,0.0,0.0,0.0,0.0,0.0,0.0,0.0,4.1931,4.1792,4.1739,4.1931,4.1717,4.1554,4.1554,4.1814,4.1856,4.1576,0.0,0.0,0.0,0.0,0.0,0.0,0.0,0.0,0.0,0.0,0.0,0.0,0.0,0.0,0.0,0.0,0.0,0.0,0.0,0.0,0.0,0.0,0.0,0.0,0.0,0.0,0.0,0.0,0.0,0.0,0.0,0.0,0.0,0.0,0.0,0.0,0.0,0.0,0.0,0.0,0.0,0.0,0.0,0.0,0.0,0.0,0.0,0.0,0.0,0.0,0.0,0.0,0.0,0.0,0.0,0.0,0.0,0.0,0.0,0.0,0.0,0.0,0.0,0.0,0.0,0.0,0.0,0.0,0.0,0.0,0.0,0.0,0.0,0.0,0.0,0.0,0.0,0.0,0.0,0.0,0.0,0.0,0.0,0.0,0.0,0.0,0.0,0.0,0.0,0.0,0.0,0.0,0.0,0.0,0.0,0.0,0.0,0.0,0.0,0.0,0.0,0.0,4.2844,4.2518,4.2428,4.2854,4.2508,4.2277,4.2277,4.2307,4.2318,4.2277,0.0,0.0,0.0,0.0,0.0,0.0,0.0,0.0,0.0,0.0,0.0,0.0,0.0,0.0,0.0,0.0,0.0,0.0,0.0,0.0,0.0,0.0,0.0,0.0,0.0,0.0,0.0,0.0,0.0,0.0,0.0,0.0,0.0,0.0,0.0,0.0,0.0,0.0,0.0,0.0,0.0,0.0,0.0,0.0,0.0,0.0,0.0,0.0,0.0,0.0,0.0,0.0,0.0,0.0,0.0,0.0,0.0,0.0,0.0,0.0,4.6011,4.5607,0.0,0.0,0.0,0.0,0.0,0.0,0.0,0.0,0.0,0.0,0.0,0.0,0.0,0.0,0.0,0.0,0.0,0.0,0.0,0.0,0.0,0.0,0.0,0.0,0.0,0.0,0.0,0.0,0.0,0.0,0.0,0.0,0.0,0.0,0.0,0.0,0.0,0.0,0.0,0.0,4.2882,4.2816,4.2797,4.2882,4.2816,4.2758,4.2758,4.305,4.3096,4.2777,4.2703,0.0,0.0,0.0,0.0,0.0,0.0,0.0,0.0,0.0,0.0,0.0,0.0,0.0,0.0,0.0,0.0,0.0,0.0,0.0,0.0,0.0,0.0,0.0,0.0,0.0,0.0,0.0,0.0,0.0,0.0,0.0,0.0,0.0,0.0,0.0,0.0,0.0,0.0,0.0,0.0,0.0,0.0,0.0,0.0,0.0,0.0,0.0,0.0,0.0,0.0,0.0,0.0,0.0,0.0,0.0,0.0,0.0,0.0,0.0,4.7146,4.652,0.0,0.0,0.0,0.0,0.0,0.0,0.0,0.0,0.0,0.0,0.0,0.0,0.0,0.0,0.0,0.0,0.0,0.0,0.0,0.0,0.0,0.0,0.0,0.0,0.0,0.0,0.0,0.0,0.0,0.0,0.0,0.0,0.0,0.0,0.0,0.0,0.0,0.0,0.0,0.0,4.3178,4.3178,4.3178,4.3178,4.3178,4.3178,4.3178,4.3393,4.3428,4.3187,4.3178,0.0,0.0,0.0,0.0,0.0,0.0,0.0,0.0,0.0,0.0,0.0,0.0,0.0,0.0,0.0,0.0,0.0,0.0,0.0,0.0,0.0,0.0,0.0,0.0,0.0,0.0,0.0,0.0,0.0,0.0,0.0,0.0,0.0,0.0,0.0,0.0,0.0,0.0,0.0,0.0,0.0,0.0,0.0,0.0,0.0,0.0,0.0,0.0,0.0,0.0,0.0,0.0,0.0,4.8808,4.8891,4.8891,4.9039,4.9084,4.8962,4.8215,4.7447,4.6721,4.6611,0.0,0.0,0.0,0.0,0.0,0.0,0.0,0.0,0.0,0.0,0.0,0.0,0.0,0.0,0.0,0.0,0.0,0.0,0.0,0.0,0.0,0.0,0.0,0.0,4.4252,4.4227,4.4098,0.0,0.0,0.0,0.0,0.0,0.0,0.0,0.0,0.0,0.0,0.0,4.391,4.391,4.391,4.391,4.391,4.391,4.391,4.391,4.391,4.391,4.38,4.369,0.0,0.0,0.0,0.0,0.0,0.0,0.0,0.0,0.0,0.0,0.0,0.0,0.0,0.0,0.0,0.0,0.0,0.0,0.0,0.0,0.0,0.0,0.0,0.0,0.0,0.0,0.0,0.0,0.0,0.0,0.0,0.0,4.8596,4.8596,0.0,0.0,0.0,0.0,0.0,0.0,0.0,0.0,0.0,0.0,0.0,0.0,0.0,4.8615,4.8615,4.8733,4.8778,4.8778,4.9599,4.9969,4.9923,5.0674,5.0646,4.9904,4.9783,0.0,4.8576,4.855,0.0,0.0,0.0,0.0,0.0,0.0,0.0,0.0,0.0,0.0,0.0,0.0,0.0,0.0,0.0,0.0,0.0,0.0,0.0,0.0,0.0,0.0,4.6145,4.6145,4.6145,4.6121,0.0,4.5352,4.5009,4.5631,4.5785,4.5794,0.0,0.0,0.0,0.0,0.0,0.0,4.559,4.559,4.559,4.559,4.559,4.559,4.559,4.559,4.559,4.559,4.4929,4.4552,4.4639,4.3977,0.0,0.0,0.0,0.0,0.0,0.0,0.0,0.0,0.0,0.0,0.0,0.0,0.0,0.0,0.0,0.0,0.0,0.0,0.0,0.0,0.0,0.0,0.0,0.0,0.0,0.0,0.0,0.0,0.0,4.9658,4.9344,4.939,4.891,4.8642,0.0,0.0,0.0,0.0,0.0,0.0,0.0,0.0,0.0,4.9434,4.9434,4.9694,5.0185,5.0221,5.0355,5.0534,5.0762,5.0975,5.1107,5.1292,5.1273,5.1107,5.1107,5.0929,5.0501,4.9342,4.8626,4.8329,0.0,0.0,0.0,0.0,4.785,4.7875,4.8082,4.8017,4.7917,4.8243,0.0,0.0,0.0,0.0,0.0,0.0,0.0,4.6974,0.0,0.0,4.6513,4.6513,4.6513,4.6616,4.6982,4.6792,4.6436,0.0,4.6179,4.617,4.6028,4.6091,0.0,0.0,0.0,4.5984,4.5892,4.5883,4.5883,4.5883,4.5883,4.5883,4.5883,4.5883,4.5883,4.5883,4.5644,4.5504,4.5549,4.5224,4.4844,0.0,0.0,0.0,0.0,0.0,0.0,0.0,0.0,0.0,0.0,0.0,0.0,0.0,0.0,0.0,0.0,0.0,0.0,0.0,0.0,0.0,0.0,0.0,0.0,0.0,0.0,0.0,0.0,5.074,5.0397,5.036,4.9831,4.9469,0.0,0.0,0.0,0.0,0.0,0.0,4.9691,4.9691,4.9977,5.0634,5.0866,5.1315,5.195,5.2192,5.2411,5.2671,5.2619,5.2748,5.2956,5.291,5.2823,5.2655,5.2655,5.2391,5.187,5.0023,4.9216,4.9128,4.8905,4.8831,4.884,4.8864,4.8942,4.9061,4.9321,4.9241,4.9127,4.9637,4.9439,4.9044,4.9114,0.0,0.0,0.0,0.0,4.7887,4.7256,4.7107,4.7107,4.7107,4.7107,4.7293,4.7887,4.7999,4.777,0.0,4.6894,4.6868,4.6762,4.6815,0.0,4.6617,4.669,4.6708,4.6599,4.659,4.659,4.659,4.659,4.659,4.659,4.659,4.659,4.659,4.6469,4.6449,4.6476,4.6316,4.5944,4.5352,0.0,0.0,0.0,0.0,0.0,0.0,0.0,0.0,0.0,0.0,0.0,0.0,0.0,0.0,0.0,0.0,0.0,0.0,0.0,0.0,0.0,0.0,0.0,0.0,0.0,0.0,0.0,0.0,0.0,5.1378,5.1548,0.0,0.0,0.0,0.0,5.1735,5.1964,5.2139,5.2139,5.2139,5.2139,5.2177,5.2994,5.3456,5.3494,5.4305,5.4737,5.4759,5.5519,5.5852,5.5905,5.6671,5.6133,5.467,5.467,5.376,5.2177,5.0982,5.0331,4.9959,4.9179,4.8881,4.8919,4.889,4.9102,4.9384,4.9399,4.9391,4.94,4.9707,4.9624,4.9321,4.901,4.8899,0.0,0.0,4.8844,4.8816,4.8779,4.8779,4.8779,4.8779,4.8779,4.8779,4.8816,4.8853,4.8827,0.0,4.8709,4.8709,4.8494,0.0,4.8603,4.8467,4.8458,4.8458,4.8458,4.8458,4.8458,4.8458,4.8458,4.8458,4.8458,4.8458,4.8458,4.8458,4.7756,4.7385,4.7519,4.6741,4.6296,4.6222,4.6343,0.0,0.0,0.0,0.0,0.0,0.0,0.0,0.0,0.0,0.0,0.0,0.0,0.0,0.0,0.0,0.0,0.0,0.0,0.0,0.0,0.0,0.0,0.0,0.0,0.0,0.0,0.0,0.0,5.2821,5.2432,0.0,5.2,5.21,5.2167,5.2167,5.2776,5.3151,5.3151,5.3658,5.4228,5.4744,5.5055,5.5473,5.5996,5.6307,5.6556,5.6785,5.6852,5.6974,5.7184,5.7256,5.708,5.6726,5.6726,5.639,5.5735,5.423,5.279,5.1503,5.1201,5.1096,5.1096,5.1096,5.1164,5.1289,5.1523,5.1461,5.1199,5.0775,5.0319,4.9864,4.9572,4.9476,4.9476,4.9476,4.9737,5.0011,5.0011,5.0245,5.0525,5.0525,5.0525,5.0525,5.0525,5.0525,5.0516,5.048,4.9607,4.8847,4.8769,4.8785,4.8794,4.8642,4.8669,4.8687,4.8624,4.8615,4.8615,4.8615,4.8615,4.8615,4.8615,4.8615,4.8615,4.8615,4.841,4.8316,4.8388,4.8107,4.7725,4.7205,4.7239,4.683,0.0,0.0,0.0,0.0,0.0,0.0,0.0,0.0,0.0,0.0,0.0,0.0,0.0,0.0,0.0,0.0,0.0,0.0,0.0,0.0,0.0,0.0,0.0,0.0,0.0,5.4314,5.4223,5.4381,5.4012,5.3774,5.3978,5.4102,5.4165,5.4165,5.48,5.5197,5.5197,5.5744,5.6272,5.6837,5.7104,5.7517,5.8044,5.8311,5.8599,5.8809,5.8592,5.8599,5.8802,5.8585,5.8453,5.8381,5.8381,5.8228,5.7883,5.6784,5.5543,5.4179,5.2835,5.2302,5.2302,5.2302,5.2365,5.2511,5.2729,5.2691,5.2469,5.1757,5.1307,5.1005,5.0739,5.0651,5.0651,5.0651,5.0912,5.1133,5.1045,5.1361,5.1665,5.1573,5.1643,5.1699,5.1699,5.1699,5.1699,5.1699,5.0635,4.9727,4.9665,4.97,4.97,4.9546,4.962,4.9638,4.9574,4.9528,4.9528,4.9528,4.9528,4.9528,4.9528,4.9528,4.9417,4.9112,4.9175,4.9137,4.884,4.8892,4.8667,4.811,4.793,4.7754,4.7618,0.0,0.0,0.0,0.0,0.0,0.0,0.0,0.0,0.0,0.0,0.0,0.0,0.0,0.0,0.0,0.0,0.0,0.0,0.0,0.0,0.0,0.0,0.0,5.4896,5.513,5.5515,5.6026,5.6363,5.6768,5.7294,5.7641,5.7837,5.7837,5.8185,5.8429,5.8429,5.8434,5.8467,5.8467,5.9204,5.9627,5.9627,6.0473,6.0896,6.0896,6.0896,6.0896,6.0896,6.0896,6.0396,5.9588,5.9588,5.9127,5.8396,5.8352,5.8352,5.7966,5.4038,5.2482,5.2444,5.2444,5.2659,5.2879,5.2879,5.3025,5.3129,5.2576,5.2557,5.2754,5.2413,5.2323,5.2323,5.2323,5.2361,5.2283,5.1953,5.2107,5.2293,5.2051,5.2183,5.2378,5.2378,5.2378,5.2378,5.2378,5.1922,5.149,5.1435,5.1435,5.1397,5.1379,5.1416,0.0,5.1416,5.1416,5.1416,5.1416,5.1416,5.1416,5.1416,5.1416,5.1045,5.0199,5.0171,4.9791,4.9019,4.899,4.8999,4.8999,4.8471,4.8722,4.9848,0.0,0.0,0.0,0.0,0.0,0.0,0.0,0.0,0.0,0.0,0.0,0.0,0.0,0.0,0.0,0.0,0.0,0.0,0.0,0.0,0.0,5.6069,5.6411,5.6094,5.6338,5.6821,5.7588,5.7757,5.7846,5.8009,5.864,5.9028,5.9028,6.0284,6.1056,6.1056,6.1627,6.1929,6.1929,6.2121,6.2275,6.2275,6.2506,6.2621,6.2621,6.2621,6.2621,6.2621,6.2621,6.2166,6.1402,6.1402,6.0902,6.005,5.9435,5.916,5.9,5.7297,5.6252,5.5721,5.5721,5.5372,5.4885,5.4885,5.4578,5.4105,5.3947,5.3525,5.3064,5.296,5.2943,5.2943,5.2943,5.3229,5.3524,5.34,5.3739,5.4102,5.402,5.4065,5.4124,5.4124,5.4124,5.4124,5.4124,5.3981,5.3408,5.1999,5.1761,5.1668,5.1425,5.1416,0.0,5.1416,5.1416,5.1416,5.1416,5.1416,5.1416,5.1416,5.1416,5.1393,5.1407,5.1395,5.1274,5.1012,5.123,5.136,5.136,5.0655,5.043,0.0,0.0,0.0,0.0,0.0,0.0,0.0,0.0,0.0,0.0,0.0,0.0,0.0,0.0,0.0,0.0,0.0,0.0,0.0,0.0,0.0,0.0,5.6961,5.7742,5.825,5.7872,5.7973,5.9204,5.9358,5.9627,6.0314,6.0814,6.1083,6.1083,6.2012,6.2589,6.2589,6.3045,6.3314,6.3314,6.3314,6.3314,6.3314,6.3314,6.3314,6.3314,6.3314,6.3314,6.3314,6.3314,6.3045,6.2589,6.2589,6.2133,6.1325,6.0787,6.0358,0.0,0.0,0.0,0.0,0.0,5.6978,5.6247,5.6247,5.5708,5.5011,5.5011,5.4664,5.4241,5.4241,5.4241,5.4241,5.4241,5.4452,5.4703,5.4555,5.4874,5.5152,5.503,5.5098,5.5178,5.5178,5.5178,5.5178,5.5178,5.5178,0.0,5.3556,5.2893,5.2375,5.1819,5.1749,5.1749,5.1749,5.2057,5.229,5.229,5.2598,5.2832,5.2832,5.2832,0.0,0.0,0.0,5.2431,5.2016,5.2202,0.0,0.0,0.0,5.1897,5.2002,0.0,0.0,0.0,4.9284,4.8617,0.0,0.0,0.0,0.0,0.0,0.0,0.0,0.0,0.0,0.0,0.0,0.0,0.0,0.0,0.0,0.0,5.7967,5.916,6.0702,5.9727,5.9457,6.092,6.11,6.1666,6.3172,6.3403,6.3441,6.3468,6.3551,6.3589,6.3583,6.3583,0.0,0.0,0.0,6.3601,6.3607,6.3601,6.3595,6.3595,6.3589,6.3589,6.3595,6.3595,6.3557,6.3441,6.3486,6.2992,6.2261,6.2228,6.1734,6.0804,5.9094,5.8434,5.8429,5.8313,5.7819,5.7132,5.7132,0.0,0.0,5.5978,5.5939,5.5862,5.5862,5.5785,5.5708,5.5708,5.5708,5.566,5.5407,5.5514,5.5654,5.5401,5.552,5.5708,5.5708,5.5708,5.5708,5.5708,5.5708,5.5605,5.5268,5.4379,5.3426,5.2617,5.2489,5.2489,5.2489,5.3079,5.3503,5.3503,0.0,0.0,5.4647,5.4647,5.4404,5.3848,5.3772,5.3452,5.2703,5.2638,5.2804,5.3145,5.3062,5.3152,5.3451,5.3421,5.3406,5.3358,5.1206,5.0202,0.0,0.0,0.0,0.0,0.0,0.0,0.0,0.0,0.0,0.0,0.0,0.0,0.0,0.0,0.0,5.8001,5.9439,6.0606,6.0915,6.1869,6.259,6.2938,6.2885,6.2953,6.3353,6.4014,6.442,6.4359,6.5062,6.5459,6.5404,6.5397,6.5422,6.5477,6.5483,6.5463,6.5471,6.5469,6.5483,6.5483,6.5422,0.0,6.5483,6.5483,6.5098,6.4443,6.4496,6.3989,6.3134,6.3229,6.2706,6.1731,5.9975,5.9281,5.9204,5.8544,5.8198,5.805,5.805,5.7934,5.7819,5.7819,5.7324,5.6747,5.6747,5.6247,0.0,5.5708,5.5708,5.5698,5.5654,5.5676,5.5698,5.561,5.5676,5.5708,5.5708,5.5708,5.5708,5.5708,5.5708,5.5462,5.4765,5.482,5.4787,5.4381,5.4299,5.4299,5.4299,5.3844,5.3503,5.3503,5.3034,5.2996,5.3693,5.3731,5.4112,5.4936,5.4956,5.4976,5.5032,5.4847,5.4889,5.5214,5.4577,5.428,5.4352,5.371,5.3367,5.3324,5.2883,5.2684,0.0,0.0,0.0,0.0,0.0,0.0,0.0,0.0,0.0,0.0,0.0,5.7225,5.7688,0.0,5.9233,5.9657,6.1144,6.2434,6.2897,6.367,6.4199,6.4133,6.4078,6.4236,6.465,6.5118,6.5338,6.5303,6.5756,6.5988,6.5958,6.5958,6.597,6.6005,6.6005,6.6017,6.6007,6.6017,6.6005,6.6005,6.597,6.5976,6.6005,6.6005,6.5774,6.535,6.5384,6.4921,6.4089,6.3654,6.3246,6.2772,6.1863,6.0988,6.0217,5.9793,5.937,5.899,5.899,5.872,5.8329,5.8329,5.8065,5.7685,5.7685,5.7415,5.7063,5.7063,5.7063,5.7063,5.7063,5.7063,5.7063,5.7063,5.7063,5.6948,5.6529,5.6447,5.6331,5.5864,5.5787,5.5671,5.5286,5.5423,5.5245,5.4161,5.4015,5.4015,5.4015,5.4021,5.3983,5.3983,5.3983,5.4136,5.4562,5.4218,5.4248,5.4873,5.4885,5.5182,5.5782,5.5659,5.567,5.586,5.5494,5.5286,5.5286,5.4889,5.4671,5.4671,5.4709,5.4223,0.0,0.0,0.0,0.0,0.0,0.0,0.0,5.6737,5.7364,5.7409,5.7964,5.8515,5.8862,6.0064,6.1116,6.1464,6.2851,6.4108,6.4804,6.5036,6.5136,6.5098,6.5032,6.5286,6.5947,6.6024,6.6019,6.6007,6.6019,6.6019,6.6007,6.6007,6.6013,6.6024,6.6024,6.603,6.6041,6.603,6.6024,6.6024,6.6013,6.6013,6.6024,6.6024,6.6024,6.6024,6.6024,6.565,6.5016,6.4321,6.3934,6.378,6.378,6.2848,6.1487,6.1311,6.0689,5.9961,5.9961,5.9498,5.8919,5.8919,5.8803,5.8654,5.8654,5.8538,5.8384,5.8384,5.8384,5.8384,5.8384,5.8384,5.8384,5.8384,5.8384,5.8229,5.7573,5.7419,5.7221,5.6517,5.6401,5.6401,5.6401,5.6401,5.5798,5.3974,5.3733,5.3733,5.3733,5.4195,5.4508,5.4508,5.4932,5.5317,5.5471,5.5047,5.4716,5.453,5.453,5.4858,5.5625,5.5678,5.576,5.5914,5.5966,5.5989,5.5989,5.599,5.6008,5.6008,5.6008,5.5238,5.5771,5.5812,5.588,5.588,5.6469,5.7019,0.0,5.7679,5.8258,5.8263,5.838,5.895,6.0495,6.0954,6.1607,6.3158,6.4208,6.4865,6.4981,6.56,6.6059,6.6054,6.592,6.5914,6.6085,6.6091,6.6063,6.6013,6.6058,6.6063,6.6007,6.6007,6.603,6.6085,6.6091,6.6112,6.6165,6.6118,6.6091,6.6085,6.603,6.6036,6.6091,6.6091,6.6091,6.6091,6.6091,6.6079,6.6054,6.5938,6.5474,6.4821,6.4821,6.4241,6.3298,6.239,6.1537,6.0838,6.0838,6.0799,6.0722,6.0722,6.0187,5.9541,5.9541,5.9001,5.8384,5.8384,5.8384,5.8384,5.8384,5.8384,5.8384,5.8384,5.8384,5.8384,5.8307,5.8268,5.8229,5.8147,5.8109,5.8109,5.8109,5.8109,5.7564,5.5847,5.561,5.561,5.561,5.5003,5.4583,5.4583,5.3966,5.3889,5.466,5.5345,5.5422,5.4656,5.4579,5.4656,5.4738,5.4784,5.5193,5.5966,5.6016,5.5999,5.5999,5.6003,5.6008,5.6008,5.6008,5.5887,5.7302,5.7322,5.7332,5.7332,5.7646,5.7926,5.796,5.8621,5.936,5.9853,6.0418,6.1167,6.2409,6.3042,6.3598,6.4334,6.5146,6.5682,6.5682,6.5992,6.6185,6.6185,6.6144,6.6123,6.6149,6.6149,6.6139,6.6118,6.6134,6.6139,6.6112,6.6112,6.6123,6.6149,6.6149,6.616,6.6185,6.616,6.6149,6.6149,6.6123,6.6128,6.6149,6.6149,6.6149,6.6149,6.6149,6.6165,6.6185,6.6185,6.5992,6.5682,6.5682,6.5185,6.4329,6.3438,6.2877,6.2485,6.1978,6.1823,6.1746,6.1205,6.0824,6.0515,6.0515,6.0244,5.9974,5.9974,5.9974,5.9974,5.9974,5.9974,5.9974,5.9974,5.9974,5.9819,5.936,5.9283,5.9128,5.8626,5.851,5.851,5.851,5.851,5.8278,5.7578,5.7028,5.6483,5.5977,5.5591,5.5364,5.5364,5.5017,5.4747,5.4598,5.4945,5.4993,5.4678,5.4678,5.488,5.5405,5.5002,5.4938,5.5286,5.48,5.4542,5.4542,5.4542,5.4542,5.4542,5.4542,5.4542,5.8442,5.8452,5.8462,5.8462,5.8809,5.9167,5.9205,6.0065,6.1041,6.1693,6.2317,6.3013,6.3908,6.4566,6.5069,6.5301,6.5837,6.6185,6.6185,6.6185,6.6185,6.6185,6.6185,6.6185,6.6185,6.6185,6.6185,6.6185,6.6185,6.6185,6.6185,6.6185,6.6185,6.6185,6.6185,6.6185,6.6185,6.6185,6.6185,6.6185,6.6185,6.6185,6.6185,6.6185,6.6185,6.6185,6.6185,6.6185,6.6185,6.6185,6.6185,6.6185,6.6185,6.5837,6.5262,6.4604,6.4101,6.3598,6.2975,6.2743,6.2665,6.2008,6.1814,6.1776,6.1543,6.1461,6.1427,6.1157,6.1118,6.1118,6.1118,6.1118,6.1118,6.1118,6.1118,6.0925,6.0344,6.0228,6.0035,5.942,5.9304,5.9304,5.9304,5.9304,5.9227,5.8995,5.8394,5.7612,5.6758,5.6638,5.6638,5.6638,5.6445,5.602,5.5411,5.5103,5.4923,5.4731,5.4731,5.5015,5.5621,5.5122,5.489,5.5122,5.4271,5.3846,5.3846,5.3618,5.3502,5.3502,5.3502,5.3502,5.8496,5.8528,5.8604,5.8604,5.9837,6.1036,6.1036,6.2356,6.3598,6.3637,6.3637,6.3947,6.4798,6.4991,6.5262,6.6031,6.6185,6.6185,6.6185,6.6185,6.6185,6.6185,6.6185,6.6185,6.6185,6.6185,6.6185,6.6185,6.6185,6.6185,6.6185,6.6185,6.6185,6.6185,6.6185,6.6185,6.6185,6.6185,6.6185,6.6185,6.6185,6.6185,6.6185,6.6185,6.6185,6.6185,6.6185,6.6185,6.6185,6.6185,6.6185,6.6185,6.6185,6.6185,6.6147,6.6147,6.5107,6.3715,6.3676,6.3676,6.3676,6.3637,6.3598,6.3444,6.2627,6.2351,6.2196,6.135,6.1118,6.1118,6.1118,6.1118,6.1118,6.1118,6.1118,6.1079,6.1079,6.1079,6.1079,6.1041,6.1041,6.1041,6.1041,6.1041,6.077,5.9996,5.9841,5.9493,5.8642,5.8526,5.8526,5.8526,5.7748,5.7241,5.7202,5.6429,5.5621,5.4851,5.4813,5.4813,5.4851,5.4813,5.5161,5.593,5.5161,5.4774,5.4774,5.3923,5.3502,5.3502,5.3502,5.3502,6.0244,6.064,6.1118,6.1118,6.1969,6.2825,6.2825,6.3289,6.3869,6.445,6.4566,6.4836,6.5644,6.5799,6.5876,6.6147,6.6185,6.6185,6.6185,6.6185,6.6185,6.6185,6.6185,6.6185,6.6185,6.6185,6.6185,6.6185,6.6185,6.6185,6.6185,6.6185,6.6185,6.6185,6.6185,6.6185,6.6185,6.6185,6.6185,6.6185,6.6185,6.6185,6.6185,6.6185,6.6185,6.6185,6.6185,6.6185,6.6185,6.6185,6.6185,6.6185,6.6185,6.6185,6.6185,6.6185,6.5837,6.5301,6.4759,6.4566,6.4488,6.3869,6.3715,6.3637,6.3366,6.325,6.3212,6.2902,6.2825,6.2825,6.2825,6.2825,6.267,6.2085,6.1964,6.181,6.1234,6.1118,6.1118,6.1118,6.1118,6.1118,6.1118,6.1118,6.1002,6.0731,5.9764,5.8918,5.8647,5.8608,5.8608,5.8608,5.8337,5.8178,5.8178,5.7907,5.7602,5.7331,5.7331,5.7331,5.7331,5.6786,5.6317,5.6008,5.52,5.4503,5.3923,5.3656,5.3192,5.2651,5.2651,5.2337,6.1461,6.1964,6.2467,6.2781,6.3521,6.414,6.414,6.4372,6.4759,6.5301,6.5417,6.561,6.6108,6.6185,6.6301,6.6611,6.665,6.6766,6.7075,6.7114,6.7114,6.7114,6.7114,6.6998,6.6688,6.665,6.6533,6.6224,6.6185,6.6185,6.6185,6.6185,6.6185,6.6185,6.6185,6.6185,6.6185,6.6185,6.6185,6.6185,6.6185,6.6185,6.6185,6.6185,6.6185,6.6185,6.6185,6.6185,6.6185,6.6185,6.6185,6.6185,6.6185,6.6185,6.6185,6.6185,6.6185,6.6147,6.561,6.5417,6.5339,6.4798,6.4604,6.4527,6.4256,6.414,6.4101,6.3792,6.3715,6.3715,6.3715,6.3715,6.356,6.3013,6.2859,6.2704,6.2162,6.2046,6.2046,6.2046,6.1776,6.1539,6.1539,6.1311,6.1118,6.1118,6.019,5.9498,5.9498,5.9498,5.9498,5.9498,5.9227,5.9072,5.9072,5.8763,5.8608,5.8608,5.8608,5.8608,5.8608,5.8062,5.7521,5.694,5.6128,5.5432,5.4851,5.4542,5.3962,5.3115,5.3115,5.2647,6.2235,6.2506,6.2743,6.356,6.4411,6.5069,6.5069,6.5644,6.6185,6.6185,6.6185,6.6185,6.6185,6.6224,6.6533,6.7384,6.7539,6.7849,6.8694,6.881,6.8772,6.8733,6.8733,6.8385,6.7539,6.7423,6.7114,6.634,6.6224,6.6224,6.6263,6.6263,6.6301,6.634,6.634,6.634,6.634,6.634,6.634,6.634,6.6301,6.6263,6.6263,6.6224,6.6185,6.6185,6.6185,6.6185,6.6185,6.6185,6.6185,6.6185,6.6185,6.6185,6.6185,6.6185,6.6185,6.6185,6.6185,6.6185,6.6185,6.6185,6.6185,6.6069,6.5301,6.5069,6.4875,6.4063,6.3831,6.3831,6.3831,6.3831,6.3831,6.3792,6.3753,6.3753,6.3715,6.3715,6.3715,6.3715,6.3013,6.2467,6.2467,6.1771,6.1234,6.1234,6.1195,6.1157,6.1118,6.1118,6.1118,6.1118,6.0422,5.9962,5.9962,5.9188,5.8724,5.8724,5.8724,5.8724,5.8724,5.8724,5.8724,5.8685,5.7864,5.74,5.7361,5.6549,5.5737,5.4929,5.4929,5.4465,6.3134,6.3831,6.4411,6.4604,6.5301,6.5876,6.5876,6.6031,6.6185,6.6185,6.6185,6.6185,6.6185,6.6727,6.723,6.7462,6.8037,6.854,6.8772,6.881,6.854,6.7926,6.7849,6.7501,6.6611,6.6533,6.6727,6.7152,6.6572,6.6495,6.7114,6.7152,6.7462,6.8114,6.8153,6.8153,6.8153,6.8153,6.8153,6.8114,6.7501,6.7152,6.7152,6.6495,6.6185,6.6185,6.6185,6.6185,6.6185,6.6185,6.6185,6.6185,6.6185,6.6185,6.6185,6.6185,6.6185,6.6185,6.6185,6.6185,6.6185,6.6185,6.6185,6.6147,6.5953,6.5876,6.5837,6.5644,6.5566,6.5566,6.5566,6.5566,6.5417,6.4798,6.4682,6.4488,6.3831,6.3715,6.3715,6.3715,6.3521,6.3366,6.3366,6.3173,6.3057,6.3057,6.2472,6.181,6.1195,6.1118,6.1118,6.1118,6.0925,6.0809,6.0809,6.0576,6.046,6.046,6.046,6.046,6.046,6.046,6.019,5.9575,5.9339,5.8913,5.8255,5.8067,5.7482,5.6665,5.6665,5.6201,6.4024,6.4643,6.5069,6.5455,6.5876,6.6185,6.6185,6.6185,6.6185,6.6185,6.6185,6.6185,6.6185,6.692,6.7617,6.7998,6.8777,6.9473,6.986,6.9589,6.9164,6.8661,6.8274,6.7887,6.7384,6.7346,6.7539,6.8037,6.7268,6.7152,6.8037,6.8076,6.8269,6.8772,6.881,6.881,6.881,6.881,6.881,6.8772,6.8308,6.7887,6.7501,6.6998,6.6572,6.6185,6.6185,6.6417,6.6727,6.6379,6.6417,6.6727,6.634,6.6185,6.6185,6.6185,6.6185,6.6185,6.6185,6.6185,6.6185,6.6185,6.6185,6.6185,6.6185,6.6185,6.6185,6.6185,6.6185,6.6185,6.6185,6.6185,6.6108,6.5644,6.5533,6.5378,6.4914,6.4798,6.4682,6.4334,6.4256,6.414,6.3753,6.3715,6.3715,6.3715,6.3289,6.2781,6.2317,6.1582,6.1118,6.1118,6.1118,6.1118,6.1118,6.1118,6.1118,6.1118,6.1118,6.1118,6.1118,6.1118,6.0886,6.0422,6.0422,6.019,5.9687,5.9687,5.9261,5.8444,5.8444,5.7985,6.4914,6.5146,6.5339,6.6031,6.6185,6.6185,6.6185,6.6185,6.6185,6.6185,6.6185,6.6224,6.634,6.7075,6.7965,6.881,6.9628,7.0446,7.1181,7.0562,6.9943,6.9865,6.9203,6.8733,6.8656,6.8733,6.8849,6.8965,6.8274,6.8158,6.8926,6.8965,6.9004,6.912,6.912,6.912,6.912,6.912,6.912,6.912,6.9004,6.8545,6.781,6.7617,6.7075,6.6379,6.6263,6.6611,6.7268,6.6495,6.6727,6.7423,6.6688,6.6456,6.6533,6.6533,6.6533,6.6533,6.6417,6.6379,6.634,6.6224,6.6185,6.6185,6.6185,6.6185,6.6185,6.6185,6.6185,6.6185,6.6185,6.6185,6.6185,6.6185,6.6185,6.6185,6.6185,6.6185,6.5992,6.5301,6.5146,6.4914,6.414,6.4024,6.4024,6.4024,6.3947,6.3869,6.3869,6.2438,6.1466,6.1466,6.1466,6.1466,6.1466,6.1466,6.1466,6.1466,6.135,6.1273,6.1273,6.1157,6.1118,6.1118,6.1118,6.1118,6.1118,6.1118,6.0731,6.0074,6.0074,5.9653,6.576,6.5992,6.6031,6.6185,6.6185,6.6185,6.6185,6.6185,6.6185,6.6185,6.6185,6.6417,6.7152,6.7998,6.8854,6.9672,7.0523,7.1142,7.1297,7.0562,6.9749,6.9087,6.8888,6.8501,6.781,6.8385,6.9087,6.9749,6.9633,6.9633,6.9788,6.9788,7.0136,7.0827,7.0866,7.0866,7.0866,7.0866,7.0866,7.0866,7.0136,6.9711,6.9517,6.8119,6.7423,6.723,6.6495,6.6301,6.6417,6.6263,6.6727,6.7501,6.7346,6.7694,6.8346,6.8346,6.8346,6.823,6.7539,6.7268,6.7152,6.6417,6.6185,6.6185,6.6185,6.6185,6.6185,6.6185,6.6185,6.6185,6.6185,6.6185,6.6185,6.6185,6.6185,6.6185,6.6185,6.6185,6.6147,6.6031,6.5992,6.5953,6.5799,6.576,6.576,6.576,6.5185,6.4759,6.4759,6.3869,6.325,6.325,6.325,6.325,6.325,6.325,6.325,6.325,6.2588,6.2158,6.2158,6.1461,6.1118,6.1118,6.1118,6.1118,6.1118,6.1118,6.1041,6.0886,6.0886,6.0809,6.6108,6.6185,6.6185,6.6185,6.6185,6.6185,6.6185,6.6185,6.6185,6.6185,6.6185,6.6456,6.7346,6.8192,6.9048,6.9865,7.0717,7.1297,7.1297,7.0229,6.9289,6.8897,6.8519,6.8303,6.8346,6.9127,6.9982,7.0837,7.0876,7.0831,7.0689,7.0678,7.0871,7.1297,7.1297,7.1297,7.1297,7.1297,7.1297,7.1297,7.0871,7.0446,6.9982,6.9169,6.8584,6.8114,6.7268,6.7114,6.7501,6.6572,6.6727,6.7462,6.6998,6.7346,6.8114,6.8114,6.8424,6.8733,6.8308,6.8192,6.8114,6.7694,6.6959,6.6185,6.6185,6.6185,6.6185,6.6185,6.6185,6.6185,6.6185,6.6185,6.6185,6.6185,6.6185,6.6185,6.6185,6.6185,6.6185,6.6185,6.6185,6.6185,6.6185,6.6185,6.6185,6.6185,6.5876,6.561,6.561,6.5262,6.4682,6.3792,6.3715,6.3715,6.3715,6.3715,6.3715,6.3715,6.3328,6.3091,6.3091,6.267,6.224,6.1771,6.1771,6.1539,6.1118,6.1118,6.1118,6.1079,6.0654,6.046,6.6185,6.6185,6.6185,6.6185,6.6185,6.6185,6.6185,6.6185,6.6185,6.6185,6.6185,6.6533,6.7578,6.8346,6.9125,7.0136,7.0833,7.1313,7.1322,6.995,6.8964,6.9196,6.8526,6.8429,6.9286,7.0185,7.0965,7.1661,7.17,7.1611,7.1412,7.1397,7.1397,7.1397,7.1397,7.1397,7.1397,7.1397,7.1397,7.1397,7.1397,7.1048,7.0356,7.0162,6.9731,6.9072,6.8219,6.8141,6.8486,6.7095,6.694,6.7517,6.6819,6.709,6.7856,6.7818,6.837,6.9096,6.8898,6.8956,6.9101,6.8898,6.7885,6.6766,6.6766,6.6611,6.6495,6.6495,6.634,6.6185,6.6185,6.6185,6.6185,6.6185,6.6185,6.6185,6.6185,6.6185,6.6185,6.6185,6.6185,6.6185,6.6185,6.6185,6.6185,6.6185,6.6185,6.6185,6.6185,6.6185,6.5682,6.4372,6.4256,6.4256,6.4256,6.4256,6.4256,6.4256,6.4063,6.3985,6.3985,6.3792,6.3366,6.2704,6.2665,6.2356,6.166,6.1466,6.1389,6.135,6.0538,6.0151,6.6185,6.6185,6.6185,6.6185,6.6185,6.6185,6.6185,6.6185,6.6185,6.6185,6.6185,6.6727,6.8385,6.8733,6.9313,7.0905,7.1258,7.1327,7.1474,6.9993,6.9243,7.0158,6.9515,6.9325,7.0188,7.1082,7.1625,7.17,7.17,7.1691,7.1668,7.1668,7.1668,7.1668,7.1668,7.1668,7.1668,7.1668,7.1668,7.1668,7.1668,7.1629,7.1513,7.0736,7.0311,7.0194,6.9337,6.8558,6.789,6.7734,6.7693,6.7768,6.769,6.8193,6.8954,6.8828,6.9413,7.0125,6.922,6.9505,7.0099,6.9181,6.8741,6.854,6.854,6.7998,6.7384,6.7384,6.6804,6.6185,6.6185,6.6185,6.6185,6.6185,6.6185,6.6185,6.6185,6.6185,6.6185,6.6185,6.6185,6.6185,6.6185,6.6185,6.6185,6.6185,6.6185,6.6185,6.6185,6.6185,6.6147,6.5992,6.5953,6.5953,6.5953,6.5953,6.5953,6.5953,6.5301,6.4875,6.4875,6.4101,6.3676,6.356,6.356,6.3521,6.3444,6.2665,6.2274,6.2274,6.1389,6.1002,6.6185,6.6185,6.6185,6.6185,6.6185,6.6185,6.6185,6.6185,6.6185,6.6185,6.6185,6.6727,6.8462,6.881,6.9352,7.1021,7.1297,7.1332,7.1495,7.0081,6.9406,7.0415,6.9798,6.9622,7.0481,7.138,7.1886,7.1886,7.1886,7.1886,7.1886,7.1768,7.17,7.17,7.17,7.17,7.17,7.17,7.17,7.17,7.17,7.17,7.17,7.1352,7.1196,7.1121,7.0266,6.9681,6.9328,6.8782,6.8276,6.7803,6.7803,6.7995,6.8296,6.825,6.8808,6.9657,6.9769,7.0063,7.0406,7.0554,7.0576,7.0332,6.9164,6.854,6.8269,6.8269,6.8037,6.7771,6.7771,6.7384,6.6998,6.6998,6.6572,6.6185,6.6185,6.6185,6.6185,6.6185,6.6185,6.6185,6.6185,6.6185,6.6185,6.6185,6.6185,6.6185,6.6185,6.6185,6.6185,6.6185,6.6185,6.6185,6.6185,6.6185,6.6185,6.6185,6.5915,6.5721,6.5721,6.5378,6.4991,6.4488,6.4488,6.4217,6.3715,6.3366,6.3173,6.3134,6.1737,6.1118,6.6278,6.6235,6.6185,6.6185,6.6235,6.6278,6.6278,6.6285,6.6325,6.6325,6.6519,6.714,6.8614,6.9118,6.9743,7.1173,7.1406,7.1474,7.1562,7.0172,6.9631,7.0871,7.0074,6.9844,7.0976,7.164,7.1992,7.1992,7.1992,7.1992,7.1992,7.1879,7.1788,7.1788,7.1788,7.1788,7.1788,7.1788,7.1788,7.1788,7.1788,7.1788,7.1788,7.1788,7.1788,7.1749,7.1129,7.0739,0.0,6.9843,6.9061,6.8279,6.8279,6.8121,6.792,6.7857,6.8251,6.8931,6.9491,6.9853,7.0259,7.1092,7.1358,7.1168,6.9993,6.9467,6.9264,6.9242,6.9022,6.881,6.881,6.8346,6.7882,6.7882,6.7423,6.6959,6.6959,6.6959,6.6959,6.6959,6.6959,6.6959,6.6959,6.6959,6.6959,6.6959,6.6766,6.6572,6.6572,6.6379,6.6185,6.6185,6.6185,6.6185,6.6185,6.6185,6.6185,6.6185,6.6185,6.6185,6.6185,6.6185,6.5915,6.5378,6.5339,6.5069,6.445,6.4217,6.4063,6.4063,6.2554,6.1853,6.6388,6.6299,6.6185,6.6185,6.6299,6.6388,6.6388,6.65,6.659,6.659,6.7216,6.8037,6.8933,6.9793,7.065,7.1541,7.1697,7.1736,7.1782,7.0345,6.9974,7.1757,7.0469,7.0078,7.1836,7.1992,7.1992,7.1992,7.1992,7.1992,7.1992,7.1992,7.1992,7.1992,7.1992,7.1992,7.1992,7.1992,7.1992,7.1992,7.1992,7.1992,7.1992,7.1992,7.1992,7.1992,7.1992,7.1484,0.0,7.0703,7.0156,6.9375,6.9375,6.8906,6.8164,6.8063,6.8072,6.8202,6.8062,6.8619,6.953,7.0362,7.0618,7.0723,7.1458,7.1076,7.0356,7.0215,6.9526,6.881,6.881,6.8772,6.8772,6.8772,6.8772,6.8772,6.8772,6.8772,6.8772,6.8772,6.8772,6.8772,6.8772,6.8772,6.8772,6.8772,6.8037,6.7501,6.7501,6.6727,6.6185,6.6185,6.6185,6.6185,6.6185,6.6185,6.6185,6.6185,6.6185,6.6185,6.6185,6.6185,6.6185,6.6185,6.6185,6.6185,6.6185,6.5378,6.4991,6.4952,6.4063,6.3676,6.6537,6.6507,6.6474,6.6474,6.6507,6.6537,6.6537,6.6997,6.7413,6.7413,6.812,6.8941,6.9835,7.0227,7.0695,7.1547,7.17,7.1738,7.1783,7.0346,6.9975,7.1796,7.1523,7.1406,7.1953,7.1992,7.1992,7.1992,7.1992,7.1992,7.1992,7.1992,7.1992,7.1992,7.1992,7.1992,7.1992,7.1992,7.1992,7.1992,7.1992,7.1992,7.1992,7.1992,7.1992,7.1992,7.1992,7.1836,7.1601,7.1601,7.1055,7.0273,7.0273,6.9805,6.9062,6.8982,6.8983,6.9023,6.8982,6.9178,6.9492,6.9724,6.98,6.9994,7.0767,7.1141,7.1266,7.1228,7.1028,7.0795,7.0795,7.0332,6.9908,6.9908,6.9356,6.8873,6.8873,6.884,6.881,6.881,6.881,6.881,6.881,6.881,6.881,6.881,6.8578,6.8385,6.8385,6.8153,6.796,6.796,6.796,6.7501,6.6301,6.6185,6.6185,6.6185,6.6185,6.6185,6.6185,6.6185,6.6185,6.6185,6.6185,6.6185,6.6185,6.5953,6.5533,6.4991,6.472,6.4256,6.6658,6.6624,6.6592,6.6592,6.6622,6.6728,6.704,6.7534,6.8023,6.8336,6.9117,6.986,7.0405,7.0797,7.1185,7.173,7.1808,7.1822,7.1855,7.0689,7.0268,7.1366,7.1796,7.1991,7.199,7.1991,7.1991,7.199,7.1991,7.1991,7.199,7.1992,7.1992,7.199,7.1992,7.1992,7.1992,7.1992,7.1992,7.1992,7.1992,7.1992,7.1992,7.1992,7.1992,7.1992,7.1992,7.1992,0.0,7.1992,7.168,7.1172,7.1172,7.0664,6.9961,6.9922,6.9687,6.9453,6.9453,6.9453,6.9492,6.9805,6.9922,7.0,7.0195,7.0951,7.172,7.172,7.1733,7.17,7.17,7.1313,7.0887,7.0887,7.0398,6.9947,6.9947,6.9904,6.9904,6.9904,6.9904,6.9904,6.9904,6.9904,6.9904,6.9904,6.9593,6.9399,6.9399,6.9065,6.8859,6.8859,6.8824,6.8346,6.7268,6.6882,6.6533,6.6224,6.6185,6.6185,6.6185,6.6185,6.6185,6.6185,6.6185,6.6185,6.6185,6.6185,6.5953,6.5455,6.5455,6.5146,0.0,6.6679,6.6615,6.6615,6.6718,6.7037,6.7817,6.8195,0.0,6.9336,7.0195,7.0781,7.0781,7.1445,7.1992,7.1992,7.1992,7.1992,7.1914,7.121,7.0698,7.0692,7.1479,7.1987,7.1981,7.1986,7.1987,7.1981,7.1986,7.1987,7.198,7.199,7.199,7.1981,7.199,7.1992,7.1992,7.1992,7.1992,7.1992,7.1992,7.1992,7.1992,7.1992,7.1992,7.1992,7.1992,7.1992,7.1992,7.1992,7.1992,7.1992,7.1992,7.1523,7.0781,7.0781,7.0312,6.9687,6.9609,6.9531,6.9609,7.0351,7.0664,7.0547,6.9805,7.0578,7.172,7.172,7.1714,7.1723,7.1723,7.1723,7.1723,7.1723,7.1718,7.1713,7.1713,7.1705,7.17,7.17,7.17,7.17,7.17,7.17,7.17,7.17,7.1004,7.05,7.05,6.9691,6.9092,6.9076,6.9033,6.8986,6.8898,6.8081,6.7268,6.6456,6.6379,6.6379,6.6301,6.6301,6.6263,6.6185,6.6185,6.6185,6.6185,6.6185,6.6185,6.6185,6.6185,6.6185,6.6873,0.0,6.6827,6.6827,6.7339,6.7888,0.0,6.9179,7.0156,7.0351,7.1094,7.168,7.168,7.1875,7.1992,7.1992,7.1992,7.1758,7.1092,7.0816,7.0694,7.0692,7.1474,7.1982,7.198,7.1982,7.1982,7.198,7.1982,7.1982,7.198,7.1984,7.1984,7.198,7.1984,7.1985,7.1985,7.1989,7.1989,7.1985,7.1989,7.1989,7.1985,7.1985,7.1985,7.1985,7.1985,7.1985,7.1985,7.1985,7.1985,7.1986,7.199,7.1872,7.1674,7.1679,7.1562,7.1326,7.0662,7.0429,7.0312,6.9844,7.0156,7.0664,7.0469,7.0663,7.0974,7.0974,7.144,7.1943,7.1943,7.1943,7.1943,7.1943,7.1842,7.1769,7.1769,7.1757,7.17,7.17,7.17,7.17,7.17,7.17,7.17,7.17,7.1547,7.1391,7.1391,7.1171,7.0995,7.0914,7.0861,7.0562,6.9861,6.8997,6.8424,6.8192,6.8192,6.7887,6.723,6.7191,6.6882,6.6224,6.6185,6.6185,6.6185,6.6185,6.6185,6.6185,6.6185,6.6185,6.6914,6.6914,6.6914,6.6914,6.7578,6.8281,6.8672,6.9765,7.082,7.1211,7.168,7.1992,7.1992,7.1991,7.1991,7.199,7.199,7.1832,7.1358,7.1314,7.131,7.1305,7.1699,7.2012,7.2007,7.2011,7.2012,7.2007,7.2011,7.2012,7.2007,7.2016,7.2016,7.2007,7.2011,7.2016,7.2019,7.1984,7.1984,7.198,7.1984,7.1984,7.2019,7.2019,7.2019,7.2019,7.2019,7.2019,7.2019,7.2019,7.2019,7.1981,7.1985,7.1984,7.1981,7.1988,7.1988,7.1947,7.1478,7.1285,7.1169,7.0271,7.031,7.0622,7.0232,7.0388,7.0701,7.0703,7.1055,7.1406,7.1406,7.1719,7.1992,7.1992,7.1949,7.1901,7.1901,7.1845,7.1824,7.1824,7.1824,7.1824,7.1824,7.1824,7.1824,7.1824,7.1824,7.1827,7.1832,7.1769,7.1733,7.1653,7.1599,7.1346,7.082,7.0366,6.9743,6.8902,6.8829,6.8635,6.8157,6.8137,6.7735,6.684,6.6814,6.6621,6.6264,6.6239,6.6185,6.6185,6.5837,6.5837,6.6914,6.6914,6.6914,6.6914,6.7656,6.8555,6.9258,7.0195,7.1094,7.1836,7.1992,7.1991,7.1989,7.1989,7.1987,7.1982,7.1902,7.1859,7.1968,7.1887,7.1844,7.1989,7.1997,7.2,7.1989,7.1997,7.2,7.1989,7.1997,7.2077,7.2184,7.2203,7.2243,7.2379,7.2389,7.2398,7.2367,7.2134,7.2017,7.2016,7.2017,7.2017,7.2016,7.2016,7.2016,7.2016,7.2016,0.0,7.2016,7.2016,7.2016,7.2016,7.2017,7.2017,7.2016,7.2019,7.2019,7.2018,7.2019,7.2019,7.1862,7.112,7.0886,7.0769,7.0027,7.0222,7.0693,7.0702,7.0781,7.0859,7.0742,7.1367,7.1953,7.1836,7.1914,7.1992,7.1992,7.1992,7.1992,7.1992,7.1992,7.1992,7.1992,7.1992,7.1992,7.1992,7.1992,7.1992,7.1989,7.1911,7.1821,7.1786,7.1711,7.163,7.1624,7.162,7.0959,6.9416,6.9307,6.9241,6.9095,6.898,6.8568,6.7828,6.7745,6.7396,6.6704,6.6506,6.6399,6.6394,6.5581,6.5576,6.6914,6.6914,6.6914,6.6914,6.8125,6.9336,6.9375,7.0663,7.1834,7.1951,7.1987,7.1984,7.1982,7.1982,7.1982,7.198,7.139,7.115,7.1889,7.1373,7.1169,7.1909,7.199,7.199,7.1989,7.199,7.199,7.1987,7.199,7.2302,7.3079,7.3083,7.3397,7.4095,7.4137,7.4138,7.4102,7.2706,7.2004,7.1994,7.2004,7.2003,7.1994,7.1994,7.1994,7.1994,0.0,7.1994,7.1994,7.1994,7.1994,7.1995,7.2005,7.2003,7.1996,7.2015,7.2015,7.2009,7.2017,7.2015,7.197,7.1822,7.1785,7.1785,7.1629,7.1199,7.0692,7.0693,7.1242,7.1634,7.0898,7.1367,7.1795,7.1054,7.1445,7.1992,7.1992,7.1992,7.1992,7.1992,7.1992,7.1992,7.1992,7.1992,7.1992,7.199,7.199,7.1989,7.1983,7.1989,7.1914,7.1827,7.1774,7.1754,7.1688,7.163,7.1512,7.1276,7.1209,7.0837,7.003,6.9284,6.8853,6.8698,6.8689,6.8611,6.8504,6.7754,6.7382,6.7377,6.6487,6.6153,6.6914,6.6914,6.6991,6.7499,6.8515,6.9569,6.9997,7.1088,7.1985,7.1985,7.1983,7.2018,7.2014,7.2013,7.2011,7.2005,7.165,7.1529,7.1957,7.1679,7.1558,7.1948,7.1987,7.1987,7.1987,7.2417,7.269,7.269,7.3119,7.3549,7.3939,7.3939,7.4134,7.4486,7.4486,7.4486,7.4486,7.3751,7.336,7.3354,7.289,7.2695,7.269,7.2221,7.1987,7.1987,0.0,7.1987,7.1987,7.1987,7.1987,7.1989,7.1995,7.1994,7.199,7.2001,7.2001,7.1997,7.2003,7.2001,7.1997,7.2003,7.2004,7.2004,7.2004,7.1731,7.1381,7.1386,7.1352,7.1201,7.0816,7.1362,7.1792,7.0897,7.1015,7.1171,7.0703,7.0976,7.1289,7.1288,7.1679,7.1991,7.1989,7.1989,7.1988,7.1986,7.1985,7.1983,7.2014,7.2016,7.1982,7.1909,7.1911,7.1913,7.1875,7.1835,7.1783,7.1694,7.1638,7.142,7.0984,7.0585,7.014,6.9679,6.9613,6.938,6.8942,6.8527,6.8306,6.8282,6.6941,6.654,6.6914,6.7069,6.7418,6.8276,6.894,6.9643,7.0497,7.1354,7.2016,7.2016,7.2015,7.2011,7.2003,7.2002,7.1999,7.199,7.1987,7.1987,7.1987,7.1987,7.1987,7.1987,7.1987,7.2065,7.226,7.2923,7.3391,7.3586,7.4134,7.4603,7.4798,7.4798,7.4915,7.511,7.511,7.511,7.511,7.511,7.4915,7.4486,7.3861,7.3586,7.3547,7.2885,7.2573,7.2573,7.2573,7.2495,7.23,7.23,7.2182,7.1987,7.1987,7.1987,7.1987,7.1987,7.1987,7.1987,7.1987,7.1987,7.1987,7.1987,7.1987,7.1987,7.1987,7.1987,7.199,7.2,7.1539,7.096,7.0768,7.1354,7.1784,7.0893,7.0855,7.0778,6.9882,7.0234,7.0624,7.0426,7.0934,7.1401,7.1396,7.1551,7.1707,7.1705,7.1861,7.2014,7.2003,7.2004,7.2002,7.1989,7.1991,7.1991,7.1989,7.2,7.1909,7.1778,7.1661,7.1623,7.1623,7.1599,7.1271,7.0615,7.0541,7.0231,6.961,6.9343,6.9239,6.9191,6.7642,6.7284,6.6912,6.7497,6.8316,6.9123,6.936,6.9638,7.0496,7.1388,7.2007,7.2007,7.1999,7.199,7.199,7.1989,7.1989,7.1987,7.1987,7.1987,7.1987,7.1987,7.1987,7.1987,7.1987,7.2339,7.3118,7.3274,7.3625,7.4369,7.4486,7.4837,7.5658,7.5697,7.6088,7.6906,7.6906,7.6906,7.6906,7.6906,7.6086,7.4486,7.4447,7.4408,7.4408,7.4369,7.433,7.433,7.433,7.39,7.3196,7.3196,7.2729,7.1987,7.1987,7.1987,7.1987,7.1987,7.1987,7.1987,7.1987,7.1987,7.1987,7.1987,7.1987,7.1987,7.1987,7.1987,7.1989,7.1989,7.1951,7.1723,7.0921,7.1349,7.1775,7.0924,7.1317,7.1669,7.0772,7.0655,7.046,6.9639,6.9521,6.9599,6.9599,7.0263,7.0807,7.08,7.1461,7.2003,7.1991,7.2,7.2002,7.1989,7.1999,7.2001,7.1989,7.1945,7.1949,7.1964,7.1793,7.1691,7.1697,7.1644,7.1555,7.1516,7.1516,7.1477,7.1403,7.0579,7.0209,7.0166,6.9235,6.8825,6.7495,6.7881,6.8462,6.986,7.0207,7.044,7.1299,7.1764,7.1995,7.1995,7.1991,7.1987,7.1987,7.1987,7.1987,7.1987,7.1987,7.1987,7.1987,7.1987,7.1987,7.1987,7.2495,7.2923,7.3274,7.4251,7.4993,7.5307,7.5813,7.6242,7.6594,7.6594,7.675,7.7101,7.7101,7.7101,7.7101,7.7101,7.6789,7.6125,7.5579,7.5307,7.5307,7.4759,7.4486,7.4486,7.4486,7.433,7.4056,7.4056,7.3861,7.351,7.3002,7.2807,7.2729,7.2182,7.1987,7.1987,7.1987,7.1987,7.1987,7.1987,7.1987,7.1987,7.1987,7.1987,7.1987,7.1987,7.1987,7.1912,7.1609,7.1764,7.1764,7.0915,7.0957,7.0959,7.0065,7.0301,7.0612,7.0256,7.0216,7.0215,7.0207,7.0011,6.9894,6.9889,7.0161,7.0393,7.0388,7.0392,7.0588,7.1128,7.168,7.1994,7.1989,7.1966,7.1969,7.1989,7.1864,7.1753,7.1753,7.1697,7.1626,7.1602,7.1602,7.1602,7.1602,7.1287,7.1123,7.1107,7.0227,6.9791,6.7878,6.8301,6.8842,7.0322,7.0901,7.1285,7.187,7.1987,7.1987,7.1987,7.1987,7.1987,7.1987,7.1987,7.1987,7.1987,7.1987,7.1987,7.1987,7.2221,7.2417,7.2417,7.3158,7.3782,7.4056,7.5112,7.5893,7.6205,7.675,7.7101,7.7101,7.7101,7.7101,7.7101,7.7101,7.7101,7.7101,7.7101,7.7101,7.7101,7.6516,7.6205,7.6205,7.5579,7.5305,7.5305,7.5305,7.5149,7.4915,7.4915,7.4759,7.4447,7.39,7.3664,7.3625,7.3002,7.2807,7.2768,7.2495,7.2417,7.2378,7.2104,7.1987,7.1987,7.1987,7.1987,7.1987,7.1987,7.1987,7.1987,7.1987,7.1987,7.1834,7.1257,7.1102,7.087,7.0017,7.0292,7.0603,7.0323,7.0283,7.0281,7.0271,6.9801,6.9412,6.9412,6.9412,6.9412,6.9412,6.9412,6.9645,7.023,7.0816,7.1285,7.1558,7.1597,7.1714,7.1987,7.1913,7.1822,7.1793,7.1757,7.168,7.1602,7.1602,7.1602,7.1602,7.1602,7.1602,7.1598,7.0986,7.0714,6.7908,6.8765,6.9622,7.0506,7.1363,7.1987,7.1987,7.1987,7.1987,7.1987,7.1987,7.1987,7.1987,7.1987,7.1987,7.1987,7.1987,7.1987,7.2026,7.2768,7.3313,7.3313,7.4017,7.4837,7.5736,7.5814,7.6166,7.7023,7.7101,7.7101,7.7101,7.7101,7.7101,7.7101,7.7101,7.7101,7.7101,7.7101,7.7101,7.7101,7.7101,7.7101,7.7101,7.7101,7.7101,7.7101,7.7101,7.6594,7.5814,7.5814,7.5307,7.4525,7.4525,7.4525,7.4525,7.4486,7.4486,7.4408,7.3586,7.3313,7.3157,7.23,7.2026,7.2026,7.2026,7.2026,7.1987,7.1987,7.1987,7.1987,7.1987,7.1987,7.1987,7.1987,7.1987,7.1753,7.0893,7.0698,7.0463,6.9606,6.9412,6.9412,6.9412,6.9412,6.9412,6.9412,6.9373,6.9373,6.9373,6.9373,6.9373,6.9373,6.9412,6.9762,7.0619,7.0698,7.105,7.1909,7.1987,7.1946,7.1797,7.1759,7.1683,7.1606,7.1602,7.1602,7.1602,7.1602,7.1602,7.1602,7.1602,7.1602,6.8796,6.9651,7.0509,7.1403,7.1792,7.1987,7.1987,7.1987,7.1987,7.1987,7.1987,7.1987,7.1987,7.1987,7.1987,7.1987,7.1987,7.2221,7.2845,7.3157,7.3508,7.4095,7.4915,7.5502,7.5775,7.6361,7.6828,7.7062,7.7101,7.7101,7.7101,7.7101,7.7101,7.7101,7.7101,7.7101,7.7101,7.7101,7.7101,7.7101,7.7101,7.7101,7.7101,7.7101,7.7101,7.7101,7.7101,7.6945,7.6711,7.6711,7.6555,7.6281,7.5658,7.5424,7.5346,7.472,7.4486,7.4486,7.4212,7.4134,7.4095,7.3822,7.3393,7.2923,7.2923,7.2495,7.1987,7.1987,7.1987,7.1987,7.1987,7.1987,7.1987,7.1987,7.1987,7.1948,7.1675,7.1597,7.1558,7.1285,7.0738,7.0309,7.0309,6.9801,6.9412,6.9412,6.8864,6.8279,6.7655,6.8122,6.8474,6.8474,6.902,6.949,6.9762,6.9801,6.9918,7.0154,7.0738,7.1312,7.1833,7.1797,7.1722,7.1686,7.1622,7.1602,7.1602,7.1602,7.1602,7.1602,7.1602,7.1602,6.9179,7.0035,7.0893,7.1792,7.1987,7.1987,7.1987,7.1987,7.1987,7.1987,7.1987,7.1987,7.1987,7.1987,7.1987,7.1987,7.1987,7.23,7.3196,7.3586,7.4095,7.4915,7.5775,7.6322,7.6322,7.6789,7.7101,7.7101,7.7101,7.7101,7.7101,7.7101,7.7101,7.7101,7.7101,7.7101,7.7101,7.7101,7.7101,7.7101,7.7101,7.7101,7.7101,7.7101,7.7101,7.7101,7.7101,7.7101,7.7101,7.7101,7.7101,7.7062,7.6516,7.6322,7.6244,7.5735,7.554,7.5462,7.5149,7.5032,7.4954,7.4603,7.4173,7.3782,7.3782,7.3393,7.2924,7.2612,7.2534,7.2456,7.2104,7.1987,7.1987,7.1987,7.1987,7.1987,7.1987,7.1987,7.1987,7.1987,7.1597,7.1206,7.1206,7.0504,6.9918,6.9918,6.9176,6.8318,6.742,6.7771,6.7966,6.7615,6.8044,6.8514,6.8864,6.8864,6.902,6.9373,6.9879,7.0401,7.0891,7.1521,7.1788,7.1705,7.1664,7.1629,7.1602,7.1602,7.1602,7.1602,7.1602,7.1602,6.9294,7.0152,7.101,7.1792,7.1987,7.1987,7.1987,7.1987,7.1987,7.1987,7.1987,7.1987,7.1987,7.1987,7.2026,7.2104,7.2104,7.2456,7.3391,7.4173,7.4954,7.5814,7.6633,7.7101,7.7101,7.7101,7.7101,7.7101,7.7101,7.7101,7.7101,7.7101,7.7101,7.7101,7.7101,7.7101,7.7101,7.7101,7.7101,7.7101,7.7101,7.7101,7.7101,7.7101,7.7101,7.7101,7.7101,7.7101,7.7101,7.7101,7.7101,7.7101,7.7101,7.7101,7.7101,7.7101,7.7101,7.6984,7.6205,7.5932,7.5775,7.4993,7.4681,7.4603,7.4603,7.4564,7.4369,7.3625,7.3391,7.3196,7.2339,7.2104,7.2104,7.2026,7.1987,7.1987,7.1987,7.1987,7.1987,7.1987,7.1987,7.1987,7.1987,7.1324,7.0776,7.0698,7.0035,6.9215,6.8318,6.8239,6.7888,6.6992,6.6913,6.7224,6.7927,6.7966,6.8318,6.91,6.9256,6.9295,6.9295,7.0815,7.1626,7.1617,7.1604,7.1617,7.1622,7.1622,7.1614,7.1602,7.1602,7.1602,7.0191,7.105,7.1753,7.1948,7.1987,7.1987,7.1987,7.1987,7.1987,7.1987,7.1987,7.1987,7.1987,7.1987,7.2221,7.2923,7.3001,7.3549,7.5034,7.5424,7.5853,7.6711,7.6984,7.7101,7.7101,7.7101,7.7101,7.7101,7.7101,7.7101,7.7101,7.7101,7.7101,7.7101,7.7101,7.7101,7.7101,7.7101,7.7101,7.7101,7.7101,7.7101,7.7101,7.7101,7.7101,7.7101,7.7101,7.7101,7.7101,7.7101,7.7101,7.7101,7.7101,7.7101,7.7101,7.7101,7.7101,7.7062,7.6906,7.6828,7.6789,7.6594,7.6086,7.5502,7.5502,7.5032,7.4447,7.429,7.4251,7.4056,7.3235,7.3001,7.2845,7.2143,7.1987,7.1987,7.1987,7.1987,7.1987,7.1987,7.1987,7.1987,7.1987,7.1831,7.148,7.0815,7.0541,7.0113,6.9215,6.9137,6.8786,6.7927,6.781,6.7615,6.7109,6.707,6.7148,6.7343,6.8005,6.8396,6.8396,6.9331,7.0155,7.0812,7.0778,7.1064,7.1662,7.1662,7.1644,7.1602,7.1602,7.1602,7.058,7.1324,7.1987,7.1987,7.1987,7.1987,7.1987,7.1987,7.1987,7.1987,7.1987,7.1987,7.1987,7.2339,7.2768,7.3235,7.3625,7.433,7.5619,7.5814,7.6127,7.6984,7.7101,7.7101,7.7101,7.7101,7.7101,7.7101,7.7101,7.7101,7.7101,7.7101,7.7101,7.7101,7.7101,7.7101,7.7101,7.7101,7.7101,7.7101,7.7101,7.7101,7.7101,7.7101,7.7101,7.7101,7.7101,7.7101,7.7101,7.7101,7.7101,7.7101,7.7101,7.7101,7.7101,7.7101,7.7101,7.7101,7.7101,7.7101,7.7101,7.7101,7.6789,7.6438,7.6438,7.6125,7.5657,7.5227,7.5112,7.4915,7.4095,7.386,7.3666,7.2807,7.23,7.1987,7.1987,7.1987,7.1987,7.1987,7.1987,7.1987,7.1987,7.1987,7.1831,7.1402,7.1324,7.1011,7.0113,7.0035,6.9684,6.8825,6.8708,6.8357,6.7498,6.742,6.7224,6.6835,6.7224,6.7498,6.7498,6.7873,6.8707,6.9961,6.9954,7.0316,7.1146,7.1146,7.129,7.1637,7.1637,7.1637,7.0893,7.1441,7.1987,7.1987,7.1987,7.1987,7.1987,7.1987,7.1987,7.1987,7.1987,7.1987,7.1987,7.2729,7.3352,7.3469,7.4173,7.5032,7.5893,7.601,7.6283,7.7023,7.7101,7.7101,7.7101,7.7101,7.7101,7.7101,7.7101,7.7101,7.7101,7.7101,7.7101,7.7101,7.7101,7.7101,7.7101,7.7101,7.7101,7.7101,7.7101,7.7101,7.7101,7.7101,7.7101,7.7101,7.7101,7.7101,7.7101,7.7101,7.7101,7.7101,7.7101,7.7101,7.7101,7.7101,7.7101,7.7101,7.7101,7.7101,7.7101,7.7101,7.7101,7.7101,7.7101,7.7101,7.6945,7.6244,7.601,7.5814,7.4954,7.472,7.4525,7.3703,7.2963,7.2339,7.2065,7.1987,7.1987,7.1987,7.1987,7.1987,7.1987,7.1987,7.1987,7.1987,7.1987,7.1753,7.101,7.0932,7.0582,6.9723,6.9606,6.9255,6.8396,6.8318,6.7966,6.707,6.7031,6.6952,6.6796,6.6796,6.744,6.8827,6.9022,6.949,7.0278,7.0278,7.0717,7.1495,7.1495,7.1549,7.1636,7.1909,7.1987,7.1987,7.1987,7.1987,7.1987,7.1987,7.1987,7.1987,7.1987,7.1987,7.1987,7.2729,7.3547,7.4212,7.5073,7.5932,7.6789,7.6945,7.6984,7.7101,7.7101,7.7101,7.7101,7.7101,7.7101,7.7101,7.7101,7.7101,7.7101,7.7101,7.7101,7.7101,7.7101,7.7101,7.7101,7.7101,7.7101,7.7101,7.7101,7.7101,7.7101,7.7101,7.7101,7.7101,7.7101,7.7101,7.7101,7.7101,7.7101,7.7101,7.7101,7.7101,7.7101,7.7101,7.7101,7.7101,7.7101,7.7101,7.7101,7.7101,7.7101,7.7101,7.7101,7.7101,7.7062,7.6945,7.6945,7.6711,7.5853,7.5619,7.5424,7.4525,7.4251,7.3783,7.23,7.1987,7.1987,7.1987,7.1987,7.1987,7.1987,7.1987,7.1987,7.1987,7.1987,7.1948,7.1831,7.1831,7.148,7.0619,7.0541,7.0152,6.9294,6.9215,6.8864,6.7966,6.7927,6.7576,6.6835,6.6796,6.6917,6.7119,6.7899,6.8661,6.9452,6.9452,6.9871,7.0642,7.0642,7.1031,7.1716,7.1848,7.1858,7.1979,7.1987,7.1987,7.1987,7.1987,7.1987,7.1987,7.1987,7.2143,7.2651,7.3393,7.4251,7.5073,7.5969,7.6672,7.7062,7.7101,7.7101,7.7101,7.7101,7.7101,7.7101,7.7101,7.7101,7.7101,7.7101,7.7101,7.7101,7.7101,7.7101,7.7101,7.7101,7.7101,7.7101,7.7101,7.7101,7.7101,7.7101,7.7101,7.7101,7.7101,7.7101,7.7101,7.7101,7.7101,7.7101,7.7101,7.7101,7.7101,7.7101,7.7101,7.7101,7.7101,7.7101,7.7101,7.7101,7.7101,7.7101,7.7101,7.7101,7.7101,7.7101,7.7101,7.7101,7.7101,7.7101,7.7023,7.6633,7.6516,7.632,7.5424,7.5229,7.4877,7.3666,7.3041,7.2573,7.2104,7.1987,7.1987,7.1987,7.1987,7.1987,7.1987,7.1987,7.1987,7.1987,7.1987,7.1831,7.148,7.1441,7.1089,7.0191,7.0113,6.9762,6.8864,6.8825,6.8435,6.7576,6.7537,6.7303,6.6796,6.7185,6.7783,6.862,6.862,6.9022,6.9834,6.9834,7.0243,7.1677,7.1721,7.1798,7.1976,7.1987,7.1987,7.1987,7.1987,7.1987,7.1987,7.1987,7.2339,7.3391,7.4095,7.4798,7.5658,7.6516,7.7101,7.7101,7.7101,7.7101,7.7101,7.7101,7.7101,7.7101,7.7101,7.7101,7.7101,7.7101,7.7101,7.7101,7.7101,7.7101,7.7101,7.7101,7.7101,7.7101,7.7101,7.7101,7.7101,7.7101,7.7101,7.7101,7.7101,7.7101,7.7101,7.7101,7.7101,7.7101,7.7101,7.7101,7.7101,7.7101,7.7101,7.7101,7.7101,7.7101,7.7101,7.7101,7.7101,7.7101,7.7101,7.7101,7.7101,7.7101,7.7101,7.7101,7.7101,7.7101,7.7101,7.7101,7.7101,7.6945,7.6283,7.6127,7.5814,7.4759,7.4017,7.3352,7.2495,7.2339,7.226,7.2026,7.1987,7.1987,7.1987,7.1987,7.1987,7.1987,7.1987,7.1987,7.1987,7.1987,7.1753,7.1089,7.101,7.066,6.9801,6.9723,6.9333,6.8474,6.8435,6.8005,6.7148,6.7148,6.7342,6.7771,6.7771,6.8181,6.8982,6.8982,6.9413,7.17,7.185,7.1984,7.1987,7.1987,7.1987,7.1987,7.1987,7.1987,7.1987,7.1987,7.2495,7.4134,7.4486,7.4798,7.5658,7.6516,7.7101,7.7101,7.7101,7.7101,7.7101,7.7101,7.7101,7.7101,7.7101,7.7101,7.7101,7.7101,7.7101,7.7101,7.7101,7.7101,7.7101,7.7101,7.7101,7.7101,7.7101,7.7101,7.7101,7.7101,7.7101,7.7101,7.7101,7.7101,7.7101,7.7101,7.7101,7.7101,7.7101,7.7101,7.7101,7.7101,7.7101,7.7101,7.7101,7.7101,7.7101,7.7101,7.7101,7.7101,7.7101,7.7101,7.7101,7.7101,7.7101,7.7101,7.7101,7.7101,7.7101,7.7101,7.7101,7.7101,7.7023,7.7023,7.6555,7.4876,7.4486,7.4212,7.3391,7.3235,7.2962,7.2143,7.1987,7.1987,7.1987,7.1987,7.1987,7.1987,7.1987,7.1987,7.1987,7.1987,7.1987,7.1948,7.1948,7.1558,7.0698,7.0619,7.023,6.9373,6.9334,6.8903,6.8043,6.8043,6.7654,6.6874,6.6874,6.7305,6.8165,6.8165,6.858,7.168,7.177,7.185,7.1977,7.1987,7.1987,7.1987,7.1987,7.1987,7.1987,7.2456,7.3197,7.429,7.4486,7.4954,7.6399,7.6906,7.7101,7.7101,7.7101,7.7101,7.7101,7.7101,7.7101,7.7101,7.7101,7.7101,7.7101,7.7101,7.7101,7.7101,7.7101,7.7101,7.7101,7.7101,7.7101,7.7101,7.7101,7.7101,7.7101,7.7101,7.7101,7.7101,7.7101,7.7101,7.7101,7.7101,7.7101,7.7101,7.7101,7.7101,7.7101,7.7101,7.7101,7.7101,7.7101,7.7101,7.7101,7.7101,7.7101,7.7101,7.7101,7.7101,7.7101,7.7101,7.7101,7.7101,7.7101,7.7101,7.7101,7.7101,7.7101,7.7101,7.7101,7.7101,7.6945,7.6281,7.5735,7.5073,7.4212,7.4056,7.3822,7.2963,7.2845,7.2651,7.2065,7.1987,7.1987,7.1987,7.1987,7.1987,7.1987,7.1987,7.1987,7.1987,7.1987,7.187,7.1558,7.1519,7.1128,7.027,7.023,6.9801,6.8942,6.8942,6.8239,6.6796,6.6796,6.6952,6.7264,6.7264,6.7704,7.1611,7.1739,7.1848,7.1977,7.1987,7.1987,7.1987,7.1987,7.1987,7.1987,7.2456,7.3197,7.429,7.4486,7.5071,7.6828,7.7101,7.7101,7.7101,7.7101,7.7101,7.7101,7.7101,7.7101,7.7101,7.7101,7.7101,7.7101,7.7101,7.7101,7.7101,7.7101,7.7101,7.7101,7.7101,7.7101,7.7101,7.7101,7.7101,7.7101,7.7101,7.7101,7.7101,7.7101,7.7101,7.7101,7.7101,7.7101,7.7101,7.7101,7.7101,7.7101,7.7101,7.7101,7.7101,7.7101,7.7101,7.7101,7.7101,7.7101,7.7101,7.7101,7.7101,7.7101,7.7101,7.7101,7.7101,7.7101,7.7101,7.7101,7.7101,7.7101,7.7101,7.7101,7.7101,7.7101,7.7101,7.6633,7.5971,7.511,7.4954,7.4681,7.386,7.3703,7.3391,7.2573,7.2456,7.2339,7.2026,7.1987,7.1987,7.1987,7.1987,7.1987,7.1987,7.1987,7.1987,7.1987,7.1987,7.1753,7.1167,7.1128,7.0738,6.984,6.984,6.9137,6.7655,6.7382,6.7109,6.6796,6.6796,6.7109,0.0,0.0,0.0,7.1984,7.1984,7.1986,7.1987,7.1987,7.1987,7.1987,7.2026,7.2534,7.4173,7.4525,7.5071,7.6789,7.7062,7.7101,7.7101,7.7101,7.7101,7.7101,7.7101,7.7101,7.7101,7.7101,7.7101,7.7101,7.7101,7.7101,7.7101,7.7101,7.7101,7.7101,7.7101,7.7101,7.7101,7.7101,7.7101,7.7101,7.714,7.714,7.714,7.7179,7.7179,7.7179,7.7179,7.7179,7.714,7.7101,7.7101,7.7101,7.7101,7.7101,7.7101,7.7101,7.7101,7.7101,7.7101,7.7101,7.7101,7.7101,7.7101,7.7101,7.7101,7.7101,7.7101,7.7101,7.7101,7.7101,7.7101,7.7101,7.7101,7.7101,7.7101,7.7101,7.7101,7.7101,7.6867,7.601,7.5853,7.5541,7.4681,7.4525,7.4251,7.3469,7.3352,7.3001,7.2143,7.2026,7.2026,7.1987,7.1987,7.1987,7.1987,7.1987,7.1987,7.1987,7.1987,7.1987,7.1987,7.1987,7.1597,7.0737,7.0738,7.0309,6.9451,6.8552,6.7654,6.6835,6.6796,6.6796,7.1481,0.0,0.0,0.0,0.0,0.0,7.1977,7.1987,7.1987,7.1987,7.2495,7.3079,7.3547,7.4603,7.5619,7.6088,7.6672,7.7101,7.7101,7.7101,7.7101,7.7101,7.7101,7.7101,7.7101,7.7101,7.7101,7.7101,7.7101,7.7101,7.7101,7.7101,7.7101,7.7101,7.7101,7.7101,7.7101,7.7101,7.7101,7.7101,7.7726,7.804,7.8079,7.8702,7.8975,7.8975,7.8975,7.8624,7.8001,7.7375,7.7101,7.7101,7.7101,7.7101,7.7101,7.7101,7.7101,7.7101,7.7101,7.7101,7.7101,7.7101,7.7101,7.7101,7.7101,7.7101,7.7101,7.7101,7.7101,7.7101,7.7101,7.7101,7.7101,7.7101,7.7101,7.7101,7.7101,7.7101,7.7023,7.6789,7.675,7.6477,7.558,7.5424,7.5151,7.429,7.4173,7.3861,7.304,7.2923,7.269,7.2065,7.1987,7.1987,7.1987,7.1987,7.1987,7.1987,7.1987,7.1987,7.1987,7.1987,7.187,7.1636,7.1645,7.1215,7.0348,6.8824,6.7966,6.7732,6.7109,6.6796,7.1367,7.1426,7.1525,7.1671,0.0,0.0,7.1935,7.1987,7.1987,7.1987,7.2417,7.2884,7.3235,7.4095,7.4993,7.5697,7.6244,7.6672,7.7062,7.7101,7.7101,7.7101,7.7101,7.7101,7.7101,7.7101,7.7101,7.7101,7.7101,7.7101,7.7101,7.7101,7.7101,7.7101,7.7101,7.7101,7.7101,7.7453,7.7648,7.7648,7.8546,7.8936,7.8975,7.9483,7.9717,7.9717,7.9717,7.9405,7.8897,7.839,7.7765,7.7101,7.7101,7.7101,7.7101,7.7101,7.7101,7.7101,7.7101,7.7101,7.7101,7.7101,7.7101,7.7101,7.7101,7.7101,7.7101,7.7101,7.7101,7.7101,7.7101,7.7101,7.7101,7.7101,7.7101,7.7101,7.7101,7.7101,7.7101,7.7101,7.7101,7.6945,7.6439,7.6322,7.6049,7.519,7.5032,7.4759,7.39,7.3782,7.3471,7.2612,7.2534,7.2417,7.2026,7.1987,7.1987,7.1987,7.1987,7.1987,7.1987,7.1987,7.199,7.1996,7.1997,7.1568,7.0708,6.9693,6.8791,6.8082,6.7576,6.7146,7.1175,7.1285,0.0,7.1625,7.1671,0.0,7.1922,7.1983,7.1987,7.1987,7.1987,7.2221,7.3001,7.3235,7.3782,7.5268,7.5619,7.601,7.6945,7.7101,7.7101,7.7101,7.7101,7.7101,7.7101,7.7101,7.7101,7.7101,7.7101,7.7101,7.7101,7.7101,7.7101,7.7101,7.7101,7.7101,7.7101,7.7962,7.8391,7.8391,7.9366,7.9834,7.9834,7.9951,7.999,7.999,7.999,7.9912,7.9834,7.9834,7.8858,7.7375,7.7375,7.7375,7.7375,7.7375,7.7335,7.7257,7.7257,7.7179,7.7101,7.7101,7.7101,7.7101,7.7101,7.7101,7.7101,7.7101,7.7101,7.7101,7.7101,7.7101,7.7101,7.7101,7.7101,7.7101,7.7101,7.7101,7.7101,7.7101,7.7101,7.7101,7.7101,7.7101,7.6828,7.6049,7.5932,7.5619,7.4759,7.4642,7.433,7.3508,7.343,7.3079,7.2221,7.2143,7.2106,7.2029,7.1989,7.1989,7.199,7.199,7.1995,7.2005,7.1997,7.1608,7.084,7.0758,6.9853,6.8241,6.8239,6.7771,7.0947,7.0985,7.1047,7.125,7.1426,0.0,7.1708,7.187,7.1987,7.1987,7.1987,7.2065,7.2221,7.2845,7.3391,7.3743,7.433,7.5305,7.6867,7.7101,7.7101,7.7101,7.7101,7.7101,7.7101,7.7101,7.7101,7.7101,7.7101,7.7101,7.7101,7.7101,7.7101,7.7101,7.7101,7.7101,7.7101,7.7962,7.8391,7.843,7.9992,8.0732,8.0771,8.1474,8.1784,8.1784,8.1784,8.1396,8.0732,8.0732,8.0146,7.9209,7.9209,7.9209,7.9209,7.9209,7.8741,7.8157,7.8157,7.7687,7.7101,7.7101,7.7101,7.7101,7.7101,7.7101,7.7101,7.7101,7.7101,7.7101,7.7101,7.7101,7.7101,7.7101,7.7101,7.7101,7.7101,7.7101,7.7101,7.7101,7.7101,7.7101,7.7101,7.7101,7.7023,7.6867,7.6867,7.6516,7.5658,7.5541,7.5229,7.4369,7.4251,7.3939,7.3118,7.304,7.2733,7.2041,7.1994,7.1993,7.2002,7.2003,7.2004,7.2006,7.2012,7.1902,7.1753,7.103,7.016,6.9153,6.9142,6.8669,7.0898,7.0898,7.0965,7.1153,7.126,0.0,0.0,7.1782,7.1868,7.1982,7.1987,7.1987,7.1987,7.2378,7.2807,7.3235,7.3625,7.4369,7.5618,7.6164,7.6594,7.7062,7.7101,7.7101,7.7101,7.7101,7.7101,7.7101,7.7101,7.7101,7.7101,7.7101,7.7101,7.7101,7.7101,7.7101,7.7101,7.839,7.9053,7.9053,8.081,8.1669,8.1669,8.2098,8.2292,8.2292,8.2292,8.2059,8.1669,8.1669,8.1396,8.0927,8.0029,7.9717,7.9717,7.9717,7.9405,7.9053,7.9053,7.8741,7.8311,7.7882,7.7765,7.7687,7.7218,7.7101,7.7101,7.7101,7.7101,7.7101,7.7101,7.7101,7.7101,7.7101,7.7101,7.7101,7.7101,7.7101,7.7101,7.7101,7.7101,7.7101,7.7101,7.7101,7.7101,7.7101,7.7101,7.6945,7.6516,7.6438,7.6127,7.5229,7.5156,7.4809,7.4028,7.3559,7.3095,7.2677,7.2239,7.2003,7.2013,7.2013,7.2013,7.2013,7.1982,7.1987,7.199,7.1547,7.0913,7.0055,7.0049,6.9574,7.0898,7.0898,7.0952,7.1095,7.1181,7.127,0.0,0.0,0.0,7.1918,7.198,7.1987,7.1987,7.1987,7.2221,7.2923,7.304,7.3352,7.4134,7.4876,7.5697,7.6711,7.6984,7.7101,7.7101,7.7101,7.7101,7.7101,7.7101,7.7101,7.7101,7.7101,7.7101,7.7101,7.7101,7.7101,7.7101,7.8819,7.9717,7.9717,8.1472,8.2292,8.2292,8.2292,8.2292,8.2292,8.2292,8.2292,8.2292,8.2292,8.2292,8.2175,8.0732,8.0185,8.0185,8.0185,8.0107,7.9951,7.9951,7.9834,7.96,7.8897,7.8664,7.8508,7.7609,7.7335,7.7335,7.714,7.7101,7.7101,7.7101,7.7101,7.7101,7.7101,7.7101,7.7101,7.7101,7.7101,7.7101,7.7101,7.7101,7.7101,7.7101,7.7101,7.7101,7.7101,7.7101,7.7101,7.7101,7.7101,7.6829,7.6131,7.6059,7.5714,7.4897,7.4194,7.373,7.3543,7.2717,7.2247,7.2256,7.21,7.1983,7.1984,7.1989,7.199,7.199,7.1987,7.1629,7.0956,7.0956,7.048,7.0898,7.0898,7.0905,7.0939,7.1053,7.123,7.1239,0.0,7.1705,7.1718,0.0,7.1987,7.1987,0.0,0.0,7.2143,7.2143,7.2456,7.3313,7.3508,7.4173,7.5775,7.6633,7.7101,7.7101,7.7101,7.7101,7.7101,7.7101,7.7101,7.7101,7.7101,7.7101,7.7101,7.7101,7.7101,7.7101,7.8819,7.9717,7.9717,8.1472,8.2292,8.2292,8.2292,8.2292,8.2292,8.2292,8.2292,8.2292,8.2292,8.2292,8.2292,8.2097,8.2019,8.2019,8.2019,8.1513,8.085,8.085,8.0341,7.9678,7.96,7.9561,7.9405,7.8508,7.8235,7.8079,7.7335,7.7101,7.7101,7.7101,7.7101,7.7101,7.7101,7.7101,7.7101,7.7101,7.7101,7.7101,7.7101,7.7101,7.7101,7.7101,7.7101,7.7101,7.7101,7.7101,7.7101,7.7101,7.7101,7.7068,7.6963,7.6955,7.6601,7.5754,7.556,7.5213,7.4519,7.3621,7.3155,7.316,7.2419,7.199,7.1992,7.1992,7.1992,7.1992,7.1992,7.1951,7.1862,7.1862,7.1385,7.2392,7.2052,7.1629,7.1629,0.0,0.0,7.1186,0.0,7.1458,7.1671,0.0,0.0,0.0,0.0,0.0,0.0,7.1987,7.2143,7.2495,7.2962,7.3939,7.5619,7.6127,7.6555,7.7062,7.7101,7.7101,7.7101,7.7101,7.7101,7.7101,7.7101,7.7101,7.7101,7.7101,7.7101,7.7101,7.8819,7.9717,7.9717,8.1472,8.2292,8.2292,8.2292,8.2292,8.2292,8.2292,8.2292,8.2292,8.2292,8.2292,8.2292,8.2292,8.2292,8.2292,8.2292,8.2059,8.1747,8.1747,8.1513,8.1122,8.0615,8.0107,7.9639,7.9287,7.9131,7.8975,7.8116,7.7843,7.7726,7.7218,7.7101,7.7101,7.7101,7.7101,7.7101,7.7101,7.7101,7.7101,7.7101,7.7101,7.7101,7.7101,7.7101,7.7101,7.7101,7.7101,7.7101,7.7101,7.7101,7.7107,7.7082,7.7085,7.6973,7.6629,7.6162,7.5696,7.5388,7.406,7.3319,7.3281,7.246,7.1992,7.1992,7.1992,7.1992,7.1992,7.1992,7.2265,7.2728,7.2221,7.1784,7.3507,0.0,0.0,0.0,0.0,0.0,0.0,0.0,0.0,0.0,7.1653,0.0,0.0,0.0,7.1987,7.1987,0.0,7.1987,7.1987,7.2534,7.3471,7.4954,7.5502,7.6049,7.6672,7.6945,7.7101,7.7101,7.7101,7.7101,7.7101,7.7101,7.7101,7.7101,7.7101,7.7101,7.7101,7.8819,7.9717,7.9717,8.1472,8.2292,8.2292,8.2292,8.2292,8.2292,8.2292,8.2292,8.2292,8.2292,8.2292,8.2292,8.2292,8.2292,8.2292,8.2292,8.2292,8.2292,8.2292,8.2292,8.2215,8.1552,8.0927,8.0381,8.0146,8.0068,7.9873,7.9014,7.8742,7.8546,7.7687,7.7453,7.7414,7.7179,7.7101,7.7101,7.7101,7.7101,7.7101,7.7101,7.7101,7.7101,7.7101,7.7101,7.7101,7.7101,7.7104,7.7107,7.7107,7.7111,7.7118,7.713,7.7096,7.714,7.7184,7.6638,7.6131,7.5937,7.4726,7.3906,7.3672,7.2812,7.2344,7.2344,7.2109,7.1992,7.1992,7.2226,7.2695,7.328,7.2655,7.2494,0.0,0.0,0.0,7.3469,0.0,0.0,0.0,0.0,7.222,0.0,0.0,0.0,0.0,0.0,0.0,0.0,7.1987,0.0,0.0,7.2026,7.2378,7.3274,7.4798,7.5814,7.5853,7.6594,7.7101,7.7101,7.7101,7.7101,7.7101,7.7101,7.7101,7.7101,7.7101,7.7101,7.7101,7.8819,7.9717,7.9717,8.1472,8.2292,8.2292,8.2292,8.2292,8.2292,8.2292,8.2292,8.2292,8.2292,8.2292,8.2292,8.2292,8.2292,8.2292,8.2292,8.2292,8.2292,8.2292,8.2292,8.2292,8.2253,8.2253,8.2059,8.12,8.0968,8.0771,7.9912,7.9678,7.9444,7.8586,7.8352,7.8157,7.7296,7.7101,7.7101,7.7101,7.7101,7.7101,7.7101,7.7101,7.7101,7.7101,7.7101,7.7101,7.7101,7.7114,7.7083,7.7083,7.7092,7.7139,7.7183,7.7141,7.714,7.7184,7.7184,7.6795,7.5937,7.5859,7.543,7.4609,7.3711,7.3242,7.3242,7.2422,7.1992,7.1992,7.2851,7.3281,7.3281,7.3281,7.3708,0.0,0.0,7.4276,7.4276,0.0,0.0,0.0,0.0,0.0,0.0,0.0,0.0,0.0,0.0,0.0,0.0,0.0,7.1987,0.0,7.1987,7.2104,7.2417,7.39,7.519,7.5736,7.6088,7.6477,7.7062,7.7101,7.7101,7.7101,7.7101,7.7101,7.7101,7.7101,7.7101,7.7101,7.8272,7.9131,7.9717,8.0888,8.1747,8.2292,8.2292,8.2292,8.2292,8.2292,8.2292,8.2292,8.2292,8.2292,8.2292,8.2292,8.2292,8.2292,8.2292,8.2292,8.2292,8.2292,8.2292,8.2292,8.2292,8.2292,8.2253,8.1942,8.1864,8.1669,8.081,8.0576,8.0341,7.9483,7.8819,7.8313,7.804,7.7531,7.7101,7.7101,7.7101,7.7101,7.7101,7.7101,7.7101,7.7101,7.711,7.7112,7.7103,7.7114,7.7083,7.7083,7.7087,7.7134,7.7184,7.7183,7.7184,7.7187,7.7187,7.707,7.6797,7.6211,7.5781,7.5469,7.4609,7.414,7.414,7.3867,7.3711,7.3711,7.4023,7.4453,7.5039,7.5039,7.4882,7.6015,7.5592,0.0,7.5168,7.4776,0.0,7.4007,0.0,7.3899,0.0,0.0,0.0,0.0,0.0,0.0,0.0,0.0,0.0,0.0,7.1987,7.1987,7.1987,7.3236,7.4408,7.5268,7.5619,7.6166,7.7023,7.7101,7.7101,7.7101,7.7101,7.7101,7.7101,7.7101,7.7101,7.7101,7.7962,7.8858,7.9717,8.0576,8.1474,8.2292,8.2292,8.2292,8.2292,8.2292,8.2292,8.2292,8.2292,8.2292,8.2292,8.2292,8.2292,8.2292,8.2292,8.2292,8.2292,8.2292,8.2292,8.2292,8.2292,8.2292,8.2292,8.2292,8.2292,8.2176,8.163,8.1474,8.1278,8.0381,7.9756,7.925,7.8936,7.8194,7.757,7.757,7.7335,7.7101,7.7101,7.7101,7.7101,7.7101,7.7117,7.7086,7.7111,7.7082,7.7091,7.7133,7.7133,7.7138,7.7185,7.7186,7.7187,7.7187,7.7187,7.7187,7.7187,7.668,7.6367,7.6367,7.5547,7.4922,7.4609,7.4609,7.4453,7.414,7.4765,7.5351,7.5898,7.6211,7.6054]}]]